[[{"header":{"parameterUnit":"m.s-1","parameterCategory":1,"la1":30.6,"la2":29.2853,"lo1":-89.7004,"lo2":-87.6739,"dy":0.0162,"dx":0.0183,"nx":112,"ny":82,"refTime":"2024-12-31T06:00:00:Z","depth":0,"parameterNumber":2,"parameterNumberName":"U-component_of_WINDS"},"data":[0.0,0.0,0.0,0.0,0.0,0.0,0.0,0.0,0.0,0.0,0.0,0.0,0.0,0.0,0.0,0.0,0.0,0.0,0.0,0.0,0.0,0.0,0.0,0.0,0.0,0.0,0.0,0.0,0.0,0.0,0.0,0.0,0.0,0.0,0.0,0.0,0.0,0.0,0.0,0.0,0.0,0.0,0.0,0.0,0.0,0.0,0.0,0.0,0.0,0.0,0.0,0.0,0.0,0.0,0.0,0.0,0.0,0.0,0.0,0.0,0.0,0.0,0.0,0.0,0.0,0.0,0.0,0.0,0.0,0.0,0.0,0.0,0.0,0.0,0.0,0.0,0.0,0.0,0.0,0.0,0.0,0.0,0.0,0.0,0.0,0.0,0.0,0.0,0.0,0.0,0.0,-0.6706,-0.6929,-0.7439,-0.8154,-0.7361,-0.6948,-0.7138,0.0,0.0,0.0,0.0,0.0,0.0,0.0,0.0,0.0,0.0,0.0,0.0,0.0,0.0,0.0,0.0,0.0,0.0,0.0,0.0,0.0,0.0,0.0,0.0,0.0,0.0,0.0,0.0,0.0,0.0,0.0,0.0,0.0,0.0,0.0,0.0,0.0,0.0,0.0,0.0,0.0,0.0,0.0,0.0,0.0,0.0,0.0,0.0,0.0,0.0,0.0,0.0,0.0,0.0,0.0,0.0,0.0,0.0,0.0,0.0,0.0,0.0,0.0,0.0,0.0,0.0,0.0,0.0,0.0,0.0,0.0,0.0,0.0,0.0,0.0,0.0,0.0,0.0,0.0,0.0,0.0,0.0,0.0,0.0,0.0,0.0,0.0,0.0,0.0,0.0,0.0,0.0,0.0,0.0,0.0,0.0,0.0,0.0,0.0,0.0,0.0,0.0,0.0,0.0,-0.4869,-0.6672,-0.7021,-0.7129,-0.7285,-0.708,-0.6798,-0.6451,0.0,0.0,0.0,0.0,0.0,0.0,0.0,0.0,0.0,0.0,0.0,0.0,0.0,0.0,0.0,0.0,0.0,0.0,0.0,0.0,0.0,0.0,0.0,0.0,0.0,0.0,0.0,0.0,0.0,0.0,0.0,0.0,0.0,0.0,0.0,0.0,0.0,0.0,0.0,0.0,0.0,0.0,0.0,0.0,0.0,0.0,0.0,0.0,0.0,0.0,0.0,0.0,0.0,0.0,0.0,0.0,0.0,0.0,0.0,0.0,0.0,0.0,0.0,0.0,0.0,0.0,0.0,0.0,0.0,0.0,0.0,0.0,0.0,0.0,0.0,0.0,0.0,0.0,0.0,0.0,0.0,0.0,0.0,0.0,0.0,0.0,0.0,0.0,0.0,0.0,0.0,0.0,0.0,0.0,0.0,0.0,0.0,0.0,0.0,0.0,0.0,0.0,0.0,-0.5648,-0.5538,-0.688,-0.7102,-0.7143,-0.7143,-0.7007,-0.6736,-0.6288,-0.584,0.0,0.0,0.0,0.0,0.0,0.0,0.0,0.0,0.0,0.0,0.0,0.0,0.0,0.0,0.0,0.0,0.0,0.0,0.0,0.0,0.0,0.0,0.0,0.0,0.0,0.0,0.0,0.0,0.0,0.0,0.0,0.0,0.0,0.0,0.0,0.0,0.0,0.0,0.0,0.0,0.0,0.0,0.0,0.0,0.0,0.0,0.0,0.0,0.0,0.0,0.0,0.0,0.0,0.0,0.0,0.0,0.0,0.0,0.0,0.0,0.0,0.0,0.0,0.0,0.0,0.0,0.0,0.0,0.0,0.0,0.0,0.0,0.0,0.0,0.0,0.0,0.0,0.0,0.0,0.0,0.0,0.0,0.0,0.0,0.0,0.0,0.0,0.0,0.0,0.0,0.0,0.0,0.0,0.0,0.0,0.0,0.0,0.0,0.0,0.0,0.0,0.0,-0.6482,-0.6614,-0.7088,-0.7143,-0.7143,-0.7143,-0.6946,-0.6647,-0.6234,-0.5752,0.0,0.0,0.0,0.0,0.0,0.0,0.0,0.0,0.0,0.0,0.0,0.0,0.0,0.0,0.0,0.0,0.0,0.0,0.0,0.0,0.0,0.0,0.0,0.0,0.0,0.0,0.0,0.0,0.0,0.0,0.0,0.0,0.0,0.0,0.0,0.0,0.0,0.0,0.0,0.0,0.0,0.0,0.0,0.0,0.0,0.0,0.0,0.0,0.0,0.0,0.0,0.0,0.0,0.0,0.0,0.0,0.0,0.0,0.0,0.0,0.0,0.0,0.0,0.0,0.0,0.0,0.0,0.0,0.0,0.0,0.0,0.0,0.0,0.0,0.0,0.0,0.0,0.0,0.0,0.0,0.0,0.0,0.0,0.0,0.0,0.0,0.0,0.0,0.0,0.0,0.0,0.0,0.0,0.0,0.0,0.0,0.0,0.0,0.0,0.0,0.0,0.0,-0.6471,-0.6953,-0.7122,-0.7143,-0.7143,-0.7143,-0.6749,-0.6376,-0.6064,-0.5488,0.0,0.0,0.0,0.0,0.0,0.0,0.0,0.0,0.0,0.0,0.0,0.0,0.0,0.0,0.0,0.0,0.0,0.0,0.0,0.0,0.0,0.0,0.0,0.0,0.0,0.0,0.0,0.0,0.0,0.0,0.0,0.0,0.0,0.0,0.0,0.0,0.0,0.0,0.0,0.0,0.0,0.0,0.0,0.0,0.0,0.0,0.0,0.0,0.0,0.0,0.0,0.0,0.0,0.0,0.0,0.0,0.0,0.0,0.0,0.0,0.0,0.0,0.0,0.0,0.0,0.0,0.0,0.0,0.0,0.0,0.0,0.0,0.0,0.0,0.0,0.0,0.0,0.0,0.0,0.0,0.0,0.0,0.0,0.0,0.0,0.0,0.0,0.0,0.0,0.0,0.0,0.0,0.0,0.0,0.0,0.0,0.0,0.0,0.0,0.0,0.0,0.0,-0.6634,-0.677,0.0,-0.7143,-0.7143,-0.7143,-0.6905,-0.6546,-0.6057,0.0,0.0,0.0,0.0,0.0,0.0,0.0,0.0,0.0,0.0,0.0,0.0,0.0,0.0,0.0,0.0,0.0,0.0,0.0,0.0,0.0,0.0,0.0,0.0,0.0,0.0,0.0,0.0,0.0,0.0,0.0,0.0,0.0,0.0,0.0,0.0,0.0,0.0,0.0,0.0,0.0,0.0,0.0,0.0,0.0,0.0,0.0,0.0,0.0,0.0,0.0,0.0,0.0,0.0,0.0,0.0,0.0,0.0,0.0,0.0,0.0,0.0,0.0,0.0,0.0,0.0,0.0,0.0,0.0,0.0,0.0,0.0,0.0,0.0,0.0,0.0,0.0,0.0,0.0,0.0,0.0,0.0,0.0,0.0,0.0,0.0,0.0,0.0,0.0,0.0,0.0,0.0,0.0,0.0,0.0,0.0,0.0,0.0,0.0,0.0,0.0,0.0,-0.6919,-0.7009,-0.6892,0.0,-0.7244,-0.721,-0.721,-0.6905,-0.6498,-0.5989,0.0,0.0,0.0,0.0,0.0,0.0,0.0,0.0,0.0,0.0,0.0,0.0,0.0,0.0,0.0,0.0,0.0,0.0,0.0,0.0,0.0,0.0,0.0,0.0,0.0,0.0,0.0,0.0,0.0,0.0,0.0,0.0,0.0,0.0,0.0,0.0,0.0,0.0,0.0,0.0,0.0,0.0,0.0,0.0,0.0,0.0,0.0,0.0,0.0,0.0,0.0,0.0,0.0,0.0,0.0,0.0,0.0,0.0,0.0,0.0,0.0,0.0,0.0,0.0,0.0,0.0,0.0,0.0,0.0,0.0,0.0,0.0,0.0,0.0,0.0,0.0,0.0,0.0,0.0,0.0,0.0,0.0,0.0,0.0,0.0,0.0,0.0,0.0,0.0,0.0,0.0,0.0,0.0,0.0,0.0,0.0,0.0,0.0,0.0,0.0,0.0,0.0,-0.7219,-0.7454,-0.7428,-0.7584,-0.7461,-0.7373,-0.7373,-0.6695,-0.6132,0.0,0.0,0.0,0.0,0.0,0.0,0.0,0.0,0.0,0.0,0.0,0.0,0.0,0.0,0.0,0.0,0.0,0.0,0.0,0.0,0.0,0.0,0.0,0.0,0.0,0.0,0.0,0.0,0.0,0.0,0.0,0.0,0.0,0.0,0.0,0.0,0.0,0.0,0.0,0.0,0.0,0.0,0.0,0.0,0.0,0.0,0.0,0.0,0.0,0.0,0.0,0.0,0.0,0.0,0.0,0.0,0.0,0.0,0.0,0.0,0.0,0.0,0.0,0.0,0.0,0.0,0.0,0.0,0.0,0.0,0.0,0.0,0.0,0.0,0.0,0.0,0.0,0.0,0.0,0.0,0.0,0.0,0.0,0.0,0.0,0.0,0.0,0.0,0.0,0.0,0.0,0.0,0.0,0.0,0.0,0.0,0.0,0.0,0.0,0.0,0.0,0.0,0.0,-0.7219,-0.7454,-0.7428,-0.7584,-0.7556,-0.7489,-0.738,-0.698,-0.6464,-0.584,0.0,0.0,0.0,0.0,0.0,0.0,0.0,0.0,0.0,0.0,0.0,0.0,0.0,0.0,0.0,0.0,0.0,0.0,0.0,0.0,0.0,0.0,0.0,0.0,0.0,0.0,0.0,0.0,0.0,0.0,0.0,0.0,0.0,0.0,0.0,0.0,0.0,0.0,0.0,0.0,0.0,0.0,0.0,0.0,0.0,0.0,0.0,0.0,0.0,0.0,0.0,0.0,0.0,0.0,0.0,0.0,0.0,0.0,0.0,0.0,0.0,0.0,0.0,0.0,0.0,0.0,0.0,0.0,0.0,0.0,0.0,0.0,0.0,0.0,0.0,0.0,0.0,0.0,0.0,0.0,0.0,0.0,0.0,0.0,0.0,0.0,0.0,0.0,0.0,0.0,0.0,0.0,0.0,0.0,0.0,0.0,0.0,0.0,0.0,0.0,0.0,0.0,-0.7247,-0.7555,-0.7604,-0.776,-0.7719,-0.7645,-0.7556,-0.7217,-0.6722,-0.603,0.0,0.0,0.0,0.0,0.0,0.0,0.0,0.0,0.0,0.0,0.0,0.0,0.0,0.0,0.0,0.0,0.0,0.0,0.0,0.0,0.0,0.0,0.0,0.0,0.0,0.0,0.0,0.0,0.0,0.0,0.0,0.0,0.0,0.0,0.0,0.0,0.0,0.0,0.0,0.0,0.0,0.0,0.0,0.0,0.0,0.0,0.0,0.0,0.0,0.0,0.0,0.0,0.0,0.0,0.0,0.0,0.0,0.0,0.0,0.0,0.0,0.0,0.0,0.0,0.0,0.0,0.0,0.0,0.0,0.0,0.0,0.0,0.0,0.0,0.0,0.0,0.0,0.0,0.0,0.0,0.0,0.0,0.0,0.0,0.0,0.0,0.0,0.0,0.0,0.0,0.0,0.0,0.0,0.0,0.0,0.0,0.0,0.0,0.0,0.0,0.0,0.0,-0.7357,-0.7738,-0.7868,-0.8024,-0.7916,-0.7828,-0.7814,-0.7428,-0.6932,-0.6335,0.0,0.0,0.0,0.0,0.0,0.0,0.0,0.0,0.0,0.0,0.0,0.0,0.0,0.0,0.0,0.0,0.0,0.0,0.0,0.0,0.0,0.0,0.0,0.0,0.0,0.0,0.0,0.0,0.0,0.0,0.0,0.0,0.0,0.0,0.0,0.0,0.0,0.0,0.0,0.0,0.0,0.0,0.0,0.0,0.0,0.0,0.0,0.0,0.0,0.0,0.0,0.0,0.0,0.0,0.0,0.0,0.0,0.0,0.0,0.0,0.4239,0.0,0.0,0.0,0.0,0.0,0.0,0.0,0.0,0.0,0.0,0.0,0.0,0.0,0.0,0.0,0.0,0.0,0.0,0.0,0.0,0.0,0.0,0.0,0.0,0.0,0.0,0.0,0.0,0.0,0.0,0.0,0.0,0.0,0.0,0.0,0.0,0.0,0.0,0.0,0.0,0.0,-0.762,-0.7836,-0.7868,-0.8024,-0.8011,-0.7943,-0.7821,-0.7617,-0.7244,-0.6647,-0.6186,0.0,0.0,0.0,0.0,0.0,0.0,0.0,0.0,0.0,0.0,0.0,0.0,0.0,0.0,0.0,0.0,0.0,0.0,0.0,0.0,0.0,0.0,0.0,0.0,0.0,0.0,0.0,0.0,0.0,0.0,0.0,0.0,0.0,0.0,0.0,0.0,0.0,0.0,0.0,0.0,0.0,0.0,0.0,0.0,0.0,0.0,0.0,0.0,0.0,0.0,0.0,0.0,0.0,0.0,0.0,0.0,0.0,0.0,0.0,0.0,0.4779,0.0,0.0,0.0,0.0,0.0,0.0,0.0,0.0,0.0,0.0,0.0,0.0,0.0,0.0,0.0,0.0,0.0,0.0,0.0,0.0,0.0,0.0,0.0,0.0,0.0,0.0,0.0,0.0,0.0,0.0,0.0,0.0,0.0,0.0,0.0,0.0,0.0,0.0,0.0,0.0,-0.7385,-0.7852,-0.795,-0.8031,-0.8038,-0.8011,-0.7929,-0.7787,-0.7509,-0.7054,-0.66,0.0,0.0,0.0,0.0,0.0,0.0,0.0,0.0,0.0,0.0,0.0,0.0,0.0,0.0,0.0,0.0,0.0,0.0,0.0,0.0,0.0,0.0,0.0,0.0,0.0,0.0,0.0,0.0,0.0,0.0,0.0,0.0,0.0,0.0,0.0,0.0,0.0,0.0,0.0,0.0,0.0,0.0,0.0,0.0,0.0,0.0,0.0,0.0,0.0,0.0,0.0,0.0,0.0,0.0,0.0,0.6308,0.5577,0.4001,0.1912,0.3149,0.4029,0.4235,0.0,0.0,0.0,0.0,0.0,0.0,0.0,0.0,0.0,0.0,0.0,0.0,0.0,0.0,0.0,0.0,0.0,0.0,0.0,0.0,0.0,0.0,0.0,0.0,0.0,-0.0,-0.0,0.0,0.0,0.0,0.0,0.0,0.0,0.0,0.0,0.0,0.0,0.0,0.0,-0.7197,-0.7799,-0.8038,-0.8038,-0.8038,-0.8038,-0.8038,-0.7923,-0.7733,-0.7461,-0.7054,-0.6695,0.0,0.0,0.0,0.0,0.0,0.0,0.0,0.0,0.0,0.0,0.0,0.0,0.0,0.0,0.0,0.0,0.0,0.0,0.0,0.0,0.0,0.0,0.0,0.0,0.0,0.0,0.0,0.0,0.0,0.0,0.0,0.0,0.4836,0.4857,0.0,0.0,0.0,0.0,0.0,0.0,0.0,0.0,0.0,0.0,0.0,0.0,0.0,0.0,0.5149,0.5836,0.6103,0.6015,0.6699,0.6745,0.6274,0.6155,0.401,0.0273,0.046,0.0,0.0641,0.0234,0.0,0.0,0.0,0.0,0.0,0.0,0.0,0.0,0.0,0.0,0.0,0.0,0.0,0.0,0.0,0.0,0.0,0.0,0.0,0.0,0.0,0.0,0.0474,0.0092,-0.0,-0.0,0.0,-0.0,-0.1314,-0.5848,0.0,0.0,0.0,0.0,0.0,0.0,0.0,0.0,-0.7614,-0.7861,-0.8038,-0.8038,-0.8038,-0.8038,-0.8038,-0.8018,-0.7936,-0.7767,-0.7455,-0.7204,-0.7034,-0.6478,0.0,0.0,0.0,0.0,0.0,0.0,0.0,0.0,0.0,0.0,0.0,0.0,0.0,0.0,0.0,0.0,0.0,0.0,0.0,0.0,0.0,0.0,0.0,0.0,0.0,0.0,0.0,0.0,0.0,0.4701,0.4891,0.4802,0.4863,0.4857,0.0,0.0,0.0,0.0,0.0,0.0,0.0,0.0,0.0,0.5639,0.4323,0.3738,0.4085,0.4346,0.4431,0.4255,0.4851,0.5716,0.675,0.7075,0.4578,-0.0,-0.0,-0.0,-0.0,-0.0,-0.0,-0.0,0.0,0.0,0.0,0.0,0.0,0.0,0.1067,0.0,0.0,0.0,0.0,0.0,0.0,0.0,0.0,0.0,0.0,0.0,0.0,0.0,0.0,-0.0,-0.0,-0.0786,-0.3801,-0.4479,-0.4655,0.0,-0.599,-0.6295,-0.5345,0.0,0.0,0.0,0.0,0.0,-0.764,-0.7876,-0.8038,-0.8038,-0.8038,-0.8038,-0.8038,-0.8038,-0.8011,-0.7943,-0.774,-0.759,-0.7522,-0.7027,-0.6614,0.0,0.0,0.0,0.0,0.0,0.0,0.0,0.0,0.0,0.0,0.0,0.0,0.0,0.0,0.0,0.0,0.0,0.0,0.0,0.0,0.0,0.0,0.0,0.0,0.0,0.0,0.0,0.0,0.4972,0.5033,0.4884,0.5067,0.5094,0.0,0.0,0.0,0.0,0.0,0.0,0.5795,0.5676,0.5781,0.6056,0.4265,0.2985,0.2289,0.2323,0.2345,0.2263,0.2527,0.3555,0.5259,0.5737,0.3739,-0.0,-0.0,-0.0,-0.0,-0.0,-0.0,-0.0,-0.0,-0.0,0.0,-0.0,0.1451,0.3065,0.082,-0.0,-0.0,-0.0,0.0,-0.0,-0.0,0.0,0.0,0.0,0.0,-0.231,-0.2243,0.0,-0.1185,-0.1117,-0.1125,-0.2249,-0.6256,-0.7623,-0.755,0.0,-0.6051,-0.6708,-0.5987,0.0,0.0,0.0,0.0,-0.7865,-0.7828,-0.7963,-0.8113,-0.8147,-0.8085,-0.8058,-0.8092,-0.8065,-0.8058,-0.8099,-0.7957,-0.7889,-0.7929,-0.7529,-0.717,-0.6878,0.0,0.0,0.0,0.0,0.0,0.0,0.0,0.0,0.0,0.0,0.0,0.0,0.0,0.0,0.0,0.0,0.0,0.0,0.0,0.0,0.0,0.0,0.0,0.0,0.0,0.0,0.0,0.0,0.0,0.5411,0.5711,0.0,0.0,0.0,0.0,0.5759,0.5744,0.5877,0.6236,0.6232,0.6274,0.627,0.619,0.4137,0.0195,0.0196,0.0198,0.0201,0.0201,0.0202,0.0404,0.0404,0.0303,-0.0,-0.0,-0.0,-0.0,-0.0,-0.0,-0.0,-0.0,-0.0,-0.0,-0.0,0.0092,0.0184,0.0094,-0.0,-0.0,-0.0,-0.0,-0.0,-0.0,-0.0,0.0,0.0,-0.4111,-0.8488,-0.8464,-0.6405,-0.4225,-0.4232,-0.4235,-0.4341,-0.4657,-0.6779,-0.835,0.0,-0.7476,-0.7326,-0.7014,0.0,-0.6987,-0.7265,-0.7461,-0.774,-0.818,-0.8248,-0.8309,-0.8445,-0.8208,-0.8099,-0.8248,-0.8126,-0.8099,-0.8248,-0.8113,-0.8092,-0.8241,-0.7943,-0.7638,-0.7346,-0.6885,0.0,0.0,0.0,0.0,0.0,0.0,0.0,0.0,0.0,0.0,0.0,0.0,0.0,0.0,0.0,0.0,0.0,0.0,0.0,0.0,0.0,0.0,0.0,0.0,0.0,0.0,0.0,0.0,0.5786,0.6017,0.0,0.0,0.5956,0.609,0.6263,0.6389,0.5803,0.436,0.5834,0.6856,0.6864,0.3801,0.1479,-0.0,-0.0,-0.0,-0.0,-0.0,-0.0,-0.0,-0.0,-0.0,-0.0,-0.0,-0.0,-0.0,-0.0,-0.0,-0.0,-0.0,-0.0,-0.0,-0.0,-0.0,-0.0,-0.0,-0.0,-0.0,-0.0,-0.0,-0.0,-0.0,-0.0,-0.0798,-0.463,-0.7286,-0.8888,-0.8924,-0.8151,-0.7358,-0.7358,-0.7358,-0.7246,-0.7123,-0.7874,-0.857,-0.8289,-0.8167,-0.7984,-0.7631,-0.7773,-0.7868,-0.7685,-0.795,-0.8228,-0.8384,-0.8404,-0.8425,-0.8479,-0.8391,-0.8343,-0.8404,-0.8269,-0.8214,-0.8269,-0.8126,-0.8065,-0.8119,-0.8018,-0.7862,-0.7658,-0.7228,-0.6726,0.0,0.0,0.0,0.0,0.0,0.0,0.0,0.0,0.0,0.0,0.0,0.0,0.0,0.0,0.0,0.0,0.0,0.0,0.0,0.0,0.0,0.0,0.0,0.0,0.0,0.0,0.6125,0.6173,0.6451,0.658,0.6351,0.6471,0.6622,0.6795,0.6866,0.6258,0.4849,0.4696,0.467,0.467,0.1606,-0.0,-0.0,-0.0,-0.0,-0.0,-0.0,-0.0,-0.0,-0.0,-0.0,-0.0,-0.0,-0.0,-0.0,-0.0,-0.0,-0.0,-0.0,-0.0,-0.0,-0.0,-0.0,-0.0,-0.0,-0.0,-0.0,-0.0,-0.0,-0.0,-0.0,-0.0,-0.0854,-0.4805,-0.731,-0.8869,-0.8855,-0.8876,-0.8904,-0.8904,-0.8904,-0.8897,-0.8769,-0.8804,-0.8838,-0.871,-0.8587,-0.8384,-0.8085,-0.8282,-0.8397,-0.8153,-0.837,-0.8574,-0.8628,-0.8587,-0.8581,-0.8628,-0.8547,-0.8506,-0.8554,-0.8384,-0.8289,-0.8336,-0.8153,-0.8065,-0.8113,-0.8065,-0.7991,-0.7889,-0.6989,-0.6404,-0.6153,0.0,0.0,0.0,0.0,0.0,0.0,0.0,0.0,0.0,0.0,0.0,0.0,0.0,0.0,0.0,0.0,0.0,0.0,0.0,0.0,0.0,0.0,0.0,0.6051,0.643,0.6661,0.6525,0.7021,0.7128,0.6376,0.6707,0.7012,0.7165,0.713,0.7273,0.7711,0.2828,-0.0,-0.0,-0.0,-0.0,-0.0,-0.0,-0.0,-0.0,-0.0,-0.0,-0.0,-0.0,-0.0,-0.0,-0.0,-0.0,-0.0,-0.0,-0.0,-0.0,-0.0,-0.0,-0.0,-0.0,-0.0,-0.0,-0.0,-0.0,-0.0,-0.0,-0.0,-0.0,-0.0,-0.0,-0.0,-0.0,-0.4108,-0.8689,-0.8804,-0.8879,-0.8954,-0.8954,-0.8954,-0.8954,-0.8954,-0.9062,-0.9157,-0.9157,-0.8811,-0.8513,-0.8513,-0.8513,-0.856,-0.8703,-0.8723,0.0,-0.892,-0.8811,-0.8771,-0.892,-0.8676,-0.8554,-0.8703,-0.8445,-0.8336,-0.8472,-0.8201,-0.8106,-0.8255,-0.8126,-0.8045,-0.8045,-0.6367,-0.5471,-0.5531,0.0,0.0,0.0,0.0,0.0,0.0,0.0,0.0,0.0,0.0,0.0,0.0,0.0,0.0,0.0,0.0,0.0,0.0,0.0,0.0,0.0,0.0,0.6519,0.6519,0.6803,0.7088,0.7272,0.7349,0.7356,0.7349,0.5631,0.5446,0.7582,0.7733,0.6147,0.2423,0.0808,-0.0,-0.0,-0.0,-0.0,-0.0,-0.0,-0.0,-0.0,-0.0,-0.0,-0.0,-0.0,-0.0,-0.0,-0.0,-0.0,-0.0,-0.0,-0.0,-0.0,-0.0,-0.0,-0.0,-0.0,-0.0,-0.0,-0.0,-0.0,-0.0,-0.0,-0.0,-0.0,-0.0,-0.0,-0.0,-0.0,-0.1137,-0.3452,-0.7743,-0.9036,-0.9164,-0.9164,-0.9151,-0.9259,-0.9259,-0.9293,-0.932,-0.932,-0.9218,-0.9137,-0.9137,-0.9137,-0.911,-0.9042,0.0,0.0,-0.8947,-0.8899,-0.8893,-0.8933,-0.8866,-0.8832,-0.8872,-0.8601,-0.8438,0.0,-0.8201,-0.8058,-0.8099,-0.8167,-0.8106,-0.8011,-0.768,-0.759,0.0,0.0,0.0,0.0,0.0,0.0,0.0,0.0,0.0,0.0,0.0,0.0,0.0,0.0,0.0,0.0,0.0,0.0,0.0,0.0,0.0,0.0,0.6847,0.7027,0.7149,0.7312,0.7489,0.7583,0.7664,0.7654,0.7851,0.6361,0.5187,0.4645,0.4649,0.3243,0.0204,-0.0,-0.0,-0.0,-0.0,-0.0,-0.0,-0.0,-0.0,-0.0,-0.0,-0.0,-0.0,-0.0,-0.0,0.0,-0.0,-0.0,-0.0,-0.0,-0.0,0.0,0.0,0.0,0.0,0.0,-0.0,-0.0,-0.0,-0.0,-0.0,-0.0,-0.1909,-0.4076,-0.4113,-0.3109,-0.2084,-0.2081,-0.3025,-0.4808,-0.8242,-0.9182,-0.9285,-0.9285,-0.9388,-0.9381,-0.9381,-0.9435,-0.9476,-0.9476,0.0,0.0,-0.9564,-0.9462,-0.9354,-0.9259,-0.9245,-0.9218,0.0,-0.9123,-0.9123,-0.9123,-0.9123,-0.9096,-0.9035,-0.8811,0.0,0.0,0.0,-0.8228,-0.8228,-0.8309,0.0,0.0,0.0,0.0,0.0,0.0,0.0,0.0,-0.7759,-0.85,0.0,0.0,0.0,0.0,0.0,0.0,0.0,0.0,0.0,0.0,0.0,0.0,0.0,0.0,0.0,0.0,0.7577,0.7516,0.7794,0.7834,0.7848,0.7771,0.7588,0.7679,0.8019,0.7409,0.5161,0.0405,-0.0,-0.0,-0.0,0.0,0.0,0.0,0.0,-0.0,-0.0,-0.0,-0.0,-0.0,-0.0,-0.0,-0.0,-0.0,-0.0,-0.0,-0.0,-0.0,-0.0,-0.0,-0.0,-0.0,-0.0,-0.0,-0.0,-0.0,-0.0,0.0,0.0,0.0,0.0,-0.0807,-0.5013,-0.9849,-0.9842,-0.7797,-0.5412,-0.5412,-0.7434,-0.9593,-0.9593,-0.9456,-0.9435,-0.9435,-0.9435,-0.9429,-0.9429,-0.9537,-0.9632,-0.9632,-0.9734,-0.9822,-0.9822,-0.9605,-0.9422,-0.9408,-0.9408,0.0,-0.9381,-0.9381,-0.9381,-0.9381,0.0,0.0,-0.9191,-0.9049,-0.8906,-0.8771,-0.8615,-0.854,-0.8554,-0.8574,-0.8648,-0.8784,-0.8818,-0.9022,-0.9408,-0.9442,-0.9598,-0.9849,-0.9471,-0.9305,0.0,0.0,0.0,0.0,0.0,0.0,0.0,0.0,0.0,0.0,0.0,0.0,0.0,0.0,0.0,0.7429,0.7609,0.7787,0.797,0.7997,0.8004,0.7925,0.6022,0.5641,0.7818,0.4041,0.1117,0.0103,-0.0,-0.0,-0.0,-0.0,0.0,-0.0,-0.0,-0.0,-0.0,-0.0,-0.0,-0.0,0.0,0.0,-0.0,-0.0,-0.0,-0.0,-0.0,-0.0,-0.0,-0.0,-0.0,-0.0,-0.0,-0.0,-0.0,-0.0,-0.0,-0.0,-0.0,-0.0,-0.0821,-0.6228,-0.874,-0.9842,-0.9828,-0.9301,0.0,-0.8897,-0.9226,-0.9694,-0.9694,-0.9788,-0.9761,-0.9761,-0.9747,-0.9734,-0.9734,-0.9761,-0.9781,-0.9781,-0.9802,-0.9822,-0.9822,-0.9774,-0.97,-0.9585,-0.9564,-0.9517,-0.9395,-0.9381,-0.9381,-0.9381,-0.9381,-0.9367,-0.934,-0.9198,-0.9096,-0.9069,-0.8933,-0.8899,-0.9022,-0.9144,-0.9218,-0.9252,-0.9483,-0.9591,-0.9564,-0.9802,-1.0012,-1.0181,-0.9854,-0.9772,0.0,0.0,0.0,0.0,0.0,0.0,0.0,0.0,0.0,0.0,0.0,0.6477,0.6489,0.0,0.7068,0.7516,0.7712,0.7862,0.8018,0.8038,0.8045,0.7972,0.5627,0.4031,0.3974,0.1531,0.1235,0.4198,0.1682,-0.0,-0.0,-0.0,-0.0,-0.0,-0.0,-0.0,-0.0,-0.0,-0.0,-0.0,-0.0,-0.0,-0.0,-0.0,-0.0,-0.0,-0.0,-0.0,-0.0,-0.0,-0.0,-0.0,-0.0,-0.0,-0.0,-0.0,-0.0,-0.0,-0.0,-0.0,-0.1073,-0.766,-0.9772,-0.9813,-0.9786,-0.982,-0.9754,-0.9754,-0.9808,-0.9761,-0.9834,-0.9841,-0.9971,-1.0053,-1.0059,-1.0053,-1.0053,-0.9992,-0.9937,-0.9937,-0.9937,-0.9937,-0.9937,-0.9998,-0.9978,-0.9747,-0.9713,-0.9686,-0.9612,-0.9598,-0.9598,-0.9598,-0.9598,-0.9571,-0.9503,-0.9422,-0.9408,-0.9483,-0.9422,-0.9415,-0.9483,-0.9557,-0.9639,-0.9713,-0.9863,-0.9971,-1.0053,-1.0195,-1.0392,-1.0609,-1.046,-1.0426,0.0,0.0,0.0,0.0,0.0,0.0,0.0,0.0,0.6881,0.69,0.674,0.6593,0.6987,0.7177,0.74,0.7794,0.7855,0.7896,0.8024,0.8038,0.7959,0.8006,0.6062,0.3954,0.1748,0.1658,0.325,0.685,0.3752,0.1188,0.011,-0.0,-0.0,-0.0,-0.0,-0.0,-0.0,-0.0,-0.0,-0.0,-0.0,-0.0,-0.0,-0.0,-0.0,-0.0,-0.0,-0.0,-0.0,-0.0,-0.0,-0.0,-0.0,-0.0,-0.0,-0.0,-0.0,-0.0,-0.0,-0.0,-0.0848,-0.6189,-0.8702,-0.9774,-0.9741,-0.9856,-0.9863,-0.9863,-0.9883,-0.9937,-1.0059,-1.0093,-1.0127,-1.0249,-1.0283,-1.0283,-1.0283,-1.0181,-1.0093,-1.0093,-1.0093,-1.0093,-1.0093,-1.0195,-1.0195,-0.9951,-0.991,-0.991,-0.991,-0.991,-0.991,-0.991,-0.991,-0.9863,-0.9747,-0.9741,-0.9788,-0.9903,-0.991,-0.991,-0.991,-0.9937,-1.0012,-1.0134,-1.0161,-1.031,-1.0582,-1.0582,-1.0724,-1.0989,-1.1023,-1.1016,1.1089,0.9604,0.8341,0.8284,0.7518,0.684,0.0,0.0,0.7437,0.7154,0.721,0.7305,0.7489,0.7638,0.7794,0.7984,0.8011,0.8018,0.8038,0.8038,0.7992,0.8018,0.7731,0.7437,0.7159,0.7608,0.6003,0.1304,0.5251,0.563,0.0335,-0.0,-0.0,-0.0,-0.0,-0.0,-0.0,-0.0,-0.0,-0.0,-0.0,-0.0,-0.0,-0.0,-0.0,-0.0,-0.0,-0.0,-0.0,-0.0,-0.0,-0.0,-0.0,-0.0,-0.0,-0.0,-0.0,-0.0,-0.0,-0.0,-0.0123,-0.086,-0.5042,-0.9774,-0.9741,-0.9937,-1.0025,-1.0025,-1.012,-1.0236,-1.0249,-1.0256,-1.0256,-1.0276,-1.0283,-1.0283,-1.0283,-1.0263,-1.0256,-1.0256,-1.0256,-1.0256,-1.0256,-1.027,-1.027,-1.0236,-1.0229,-1.0229,-1.0229,-1.0229,-1.0229,-1.0229,-1.0229,-1.0222,-1.0209,-1.0202,-1.0209,-1.0229,-1.0229,-1.0229,-1.0229,-1.0351,-1.0426,-1.0439,-1.0575,-1.0731,-1.09,-1.09,-1.0982,-1.1138,-1.128,-1.1267,1.2118,1.0348,0.86,0.8896,0.7957,0.6884,0.6943,0.7218,0.7476,0.7327,0.7461,0.7645,0.7712,0.7841,0.7963,0.0,0.8038,0.8045,0.7959,0.8045,0.7965,0.8046,0.833,0.835,0.7986,0.8521,0.6418,0.044,0.2324,0.412,0.5162,0.1906,-0.0,-0.0,-0.0,-0.0,-0.0,-0.0,-0.0,-0.0,-0.0,-0.0,-0.0,-0.0,-0.0,-0.0,-0.0,-0.0,-0.0,-0.0,-0.0,-0.0,-0.0,-0.0,-0.0,-0.0,-0.0,-0.0,-0.0,-0.0,-0.0,-0.0,-0.188,-0.4797,-0.8609,-0.979,-0.9962,-1.0209,-1.0256,-1.0317,-1.0385,-1.0405,-1.0426,-1.0514,-1.0534,-1.0534,-1.0534,-1.0466,-1.0405,-1.0405,-1.0405,-1.0405,-1.0405,-1.048,-1.0534,-1.0534,-1.0392,-1.0283,-1.0283,-1.0283,-1.0283,-1.0283,-1.0283,-1.0317,-1.0399,-1.0405,-1.0439,-1.0527,-1.0534,-1.0534,-1.0534,-1.0595,-1.0622,-1.0622,-1.0772,-1.0887,-1.0948,-1.1029,-1.1151,-1.1301,-1.145,-1.1531,1.2143,1.0557,0.9068,0.9091,0.8159,0.7197,0.7177,0.7339,0.7502,0.755,0.7726,0.7875,0.7875,0.7963,0.8038,0.8038,0.8038,0.8045,0.7972,0.7952,0.7959,0.8026,0.8424,0.8495,0.8132,0.8622,0.7133,0.2779,0.0892,0.19,0.6182,0.2354,-0.0,-0.0,-0.0,-0.0,-0.0,-0.0,-0.0,-0.0,-0.0,-0.0,-0.0,-0.0,-0.0,-0.0,-0.0,-0.0,-0.0,-0.0,-0.0,-0.0,-0.0,-0.0,-0.0,-0.0,-0.0,-0.0,-0.0,-0.0,-0.0,-0.0,-0.0,-0.0899,-0.5661,-0.7755,-0.8559,-0.8811,-0.9626,-1.0473,-1.0555,-1.0582,-1.0609,-1.0717,-1.0738,-1.0731,-1.0731,-1.0636,-1.0555,-1.0555,-1.0555,-1.0555,-1.0555,-1.0649,-1.0717,-1.0717,-1.0541,-1.0399,-1.0399,-1.0399,-1.0399,-1.0399,-1.0399,-1.0446,-1.0548,-1.0555,-1.0602,-1.0711,-1.0717,-1.0717,-1.0717,-1.0758,-1.0785,-1.0785,-1.0934,-1.1029,-1.107,-1.1172,-1.1321,-1.1511,-1.1626,-1.1775,1.0574,0.9734,0.9082,0.8413,0.7834,0.7441,0.7719,0.7794,0.7841,0.7991,0.8024,0.8031,0.8031,0.8038,0.8038,0.8038,0.8038,0.8045,0.7972,0.7952,0.7999,0.8051,0.8064,0.817,0.0,0.873,0.8818,0.8654,0.324,0.0112,0.0224,0.0112,-0.0,-0.0,-0.0,-0.0,-0.0,-0.0,-0.0,-0.0,-0.0,-0.0,-0.0,-0.0,-0.0,-0.0,-0.0,-0.0,-0.0,-0.0,-0.0,-0.0,-0.0,-0.0,-0.0,-0.0,-0.0,-0.0,-0.0,-0.0,-0.0,-0.0,-0.0,-0.0,-0.0257,-0.2464,-0.5112,-0.5112,-0.7837,-1.0658,-1.0658,-1.0665,-1.0665,-1.0672,-1.0645,-1.0751,-1.0751,-1.0731,-1.0711,-1.0711,-1.0711,-1.0711,-1.0711,-1.0717,-1.0717,-1.0717,-1.0711,-1.0704,-1.0704,-1.0704,-1.0704,-1.0704,-1.0704,-1.0711,-1.0711,-1.0711,-1.0717,-1.0717,-1.0717,-1.0717,-1.0717,-1.086,-1.0941,-1.0941,-1.1084,-1.1226,-1.1375,-1.1382,-1.1531,-1.1816,-1.1823,-1.1986,1.1065,1.0306,0.9619,0.8949,0.8251,0.7719,0.7916,0.7963,0.7977,0.8031,0.8038,0.8038,0.8038,0.8038,0.8038,0.8038,0.8038,0.8052,0.7979,0.7959,0.7965,0.8046,0.8032,0.0,0.0,0.0,0.0,0.8863,0.5254,0.2122,0.0112,-0.0,-0.0,-0.0,-0.0,-0.0,-0.0,-0.0,-0.0,-0.0,-0.0,-0.0,-0.0,-0.0,-0.0,-0.0,-0.0,-0.0,-0.0,-0.0,-0.0,-0.0,-0.0,-0.0,-0.0,-0.0,-0.0,-0.0,-0.0,-0.0,-0.0,-0.0,-0.0,-0.0,-0.0,-0.0798,-0.16,-0.1598,-0.2538,-0.416,-0.6581,-0.7121,-0.7121,-0.7121,-0.7779,-0.8712,-1.0345,-1.0738,-1.0717,-1.0717,-1.0717,-1.0717,-1.0717,-1.0717,-1.0717,-1.0717,-1.0717,-1.0717,-1.0717,-1.0717,-1.0717,-1.0717,-1.0717,-1.0717,-1.0717,-1.0717,-1.0717,-1.0717,-1.0812,-1.0873,-1.0873,-1.1016,-1.109,-1.109,-1.124,-1.1389,-1.1545,-1.164,-1.1789,-1.1986,-1.2088,-1.2189,1.0983,1.0258,0.9349,0.8776,0.8261,0.7916,0.8018,0.8038,0.8038,0.8038,0.7997,0.7963,0.7963,0.8021,0.8,0.795,0.797,0.7997,0.7979,0.7147,0.6954,0.7864,0.7951,0.8011,0.0,0.0,0.0,0.8899,0.7149,0.425,0.0224,-0.0,-0.0,-0.0,-0.0,-0.0,-0.0,-0.0,-0.0,-0.0,-0.0,-0.0,-0.0,-0.0,-0.0,-0.0,-0.0,-0.0,-0.0,-0.0,-0.0,-0.0,-0.0,-0.0,-0.0,-0.0,-0.0,-0.0,-0.0,-0.0,-0.0,-0.0,-0.0,-0.0,-0.0,-0.0,-0.0,-0.0,-0.0,-0.0537,-0.2818,-0.3488,-0.3488,-0.3488,-0.4019,-0.5756,-0.9819,-1.0751,-1.0731,-1.0724,-1.0717,-1.0717,-1.0717,-1.0717,-1.0717,-1.0717,-1.0717,-1.0717,-1.0717,-1.0717,-1.0717,-1.0717,-1.0717,-1.0717,-1.0717,-1.0717,-1.0744,-1.0799,-1.0894,-1.0968,-1.1023,-1.1165,-1.1246,-1.1246,-1.1443,-1.1599,-1.1694,-1.1843,-1.1993,-1.2149,-1.2244,-1.2318,1.0389,0.9571,0.8635,0.7938,0.7929,0.8038,0.8038,0.8038,0.8038,0.8031,0.8014,0.8007,0.789,0.7984,0.8044,0.798,0.8035,0.7923,0.7672,0.5541,0.4972,0.0,0.0,0.0,0.0,0.0,0.0,0.8784,0.0,0.64,0.0786,0.0114,-0.0,-0.0,-0.0,-0.0,-0.0,-0.0,-0.0,-0.0,-0.0,-0.0,-0.0,-0.0,-0.0,-0.0,-0.0,-0.0,-0.0,-0.0,-0.0,-0.0,-0.0,-0.0,-0.0,-0.0,-0.0,-0.0,-0.0,-0.0,-0.0,-0.0,-0.0,-0.0,-0.0,-0.0,-0.0,-0.0,-0.0,-0.0,-0.0,-0.0269,-0.0538,-0.0538,-0.0538,-0.2414,-0.9163,-1.0645,-1.0744,-1.0724,-1.0717,-1.0717,-1.0717,-1.0717,-1.0717,-1.0717,-1.0717,-1.0717,-1.0717,-1.0717,-1.0717,-1.0717,-1.0717,-1.0724,-1.0731,-1.0731,-1.0799,-1.0948,-1.0968,-1.1029,-1.1165,-1.1321,-1.1409,-1.1416,-1.1687,-1.1837,-1.1857,-1.1999,-1.2149,-1.2298,-1.2298,-1.2379,0.9777,0.9343,0.9068,0.8126,0.8011,0.8038,0.8038,0.8038,0.8011,0.7993,0.8035,0.7746,0.6858,0.7435,0.0,0.776,0.7851,0.0,0.2557,0.321,0.0,0.7657,0.0,0.4974,0.5022,0.4978,0.0,0.0,0.8602,0.827,0.6754,0.2437,-0.0,-0.0,-0.0,-0.0,-0.0,-0.0,-0.0,-0.0,-0.0,-0.0,-0.0,-0.0,-0.0,-0.0,-0.0,-0.0,-0.0,-0.0,-0.0,-0.0,-0.0,-0.0,-0.0,-0.0,-0.0,-0.0,-0.0,-0.0,-0.0,-0.0,-0.0,-0.0,-0.0,-0.0,-0.0,-0.0,-0.0,-0.0,-0.0,-0.3905,-0.7968,-0.7968,-0.7937,-0.8456,-1.0358,-1.0744,-1.0724,-1.0724,-1.0717,-1.0717,-1.0717,-1.0717,-1.0717,-1.0717,-1.0717,-1.0717,-1.0717,-1.0717,-1.0717,-1.0717,-1.0717,-1.0765,-1.088,-1.0894,-1.0955,-1.1097,-1.1212,-1.1294,-1.1335,-1.1484,-1.1613,-1.1714,-1.1789,-1.1945,-1.2176,-1.221,-1.2305,-1.2447,-1.2447,-1.2528,0.9648,0.9188,0.8706,0.8117,0.8038,0.8004,0.7979,0.8042,0.7987,0.8045,0.7752,0.7373,0.6477,0.6989,0.7609,0.0,0.0,0.0,0.2369,0.1991,0.277,0.0,0.5285,0.0,0.4131,0.3954,0.5103,0.0,0.8514,0.7772,0.5177,0.1762,-0.0,-0.0,-0.0,-0.0,-0.0,-0.0,-0.0,-0.0,-0.0,-0.0,-0.0,-0.0,-0.0,-0.0,0.0,-0.0,-0.0,-0.0,-0.0,-0.0,-0.0,-0.0,-0.0,-0.0,-0.0,-0.0,-0.0,-0.0,-0.0,-0.0,-0.0,-0.0,-0.0,-0.0,-0.0,-0.0,-0.2289,-0.4714,-0.4714,-0.6464,-0.8767,-1.0277,-1.0665,-1.0638,-1.0758,-1.0744,-1.0731,-1.0724,-1.0717,-1.0717,-1.0717,-1.0717,-1.0717,-1.0717,-1.0778,-1.0819,-1.0819,-1.0819,-1.0819,-1.0819,-1.088,-1.0948,-1.1036,-1.1043,-1.1104,-1.1253,-1.1341,-1.1423,-1.1491,-1.1633,-1.1748,-1.183,-1.1965,-1.2115,-1.2291,-1.2352,-1.2427,-1.2501,-1.2569,-1.2651,0.9616,0.8924,0.8038,0.8038,0.8024,0.7936,0.7956,0.7858,0.783,0.779,0.7339,0.6885,0.6329,0.674,0.7183,0.7319,0.0,0.7024,0.4343,0.1685,-0.0,-0.0,0.4066,0.5978,0.3701,0.3482,0.4415,0.6809,0.7404,0.5434,0.0231,-0.0,-0.0,-0.0,-0.0,-0.0,-0.0,-0.0,-0.0,-0.0,-0.0,-0.0,-0.0,-0.0,-0.0,-0.0,0.0,0.0,-0.0,-0.0,-0.0,-0.0,-0.0,-0.0,-0.0,-0.0,-0.0,-0.0,-0.0,-0.0,-0.0,-0.0,-0.0,-0.0,-0.0,-0.0,-0.0,-0.0,-0.5117,-1.0705,-1.0705,-0.8354,-0.6844,-0.9977,-1.0665,-1.0652,-1.0758,-1.0765,-1.0772,-1.0758,-1.0765,-1.0778,-1.0778,-1.0778,-1.0778,-1.0778,-1.0894,-1.0975,-1.0975,-1.0975,-1.0975,-1.0975,-1.109,-1.1172,-1.1192,-1.1192,-1.126,-1.1409,-1.1423,-1.1491,-1.164,-1.1769,-1.185,-1.1891,-1.2155,-1.2298,-1.2318,-1.244,-1.2515,-1.2535,-1.2671,-1.2752,0.8576,0.8137,0.8038,0.8038,0.7943,0.7807,0.7732,0.7217,0.6864,0.6837,0.6589,0.6325,0.6093,0.6622,0.7149,0.7177,0.759,0.7041,0.4414,0.1716,-0.0,0.0,0.0781,0.123,0.0784,0.0673,0.0,0.0,0.0,0.0,-0.0,-0.0,-0.0,-0.0,-0.0,-0.0,-0.0,-0.0,-0.0,-0.0,-0.0,-0.0,-0.0,-0.0,-0.0,-0.0,0.0,0.0,-0.0,-0.0,-0.0,-0.0,-0.0,-0.0,-0.0,-0.0,-0.0,-0.0,-0.0,-0.0,-0.0,-0.0,-0.0,-0.0,-0.0,-0.0,-0.0,-0.0,-0.5117,-1.0705,-1.0705,-1.0257,-0.994,-1.0492,-1.0751,-1.0731,-1.0724,-1.0826,-1.0914,-1.0907,-1.1002,-1.1084,-1.1084,-1.1084,-1.1084,-1.1084,-1.1111,-1.1124,-1.1124,-1.1124,-1.1124,-1.1124,-1.1151,-1.1212,-1.1341,-1.1348,-1.1416,-1.1572,-1.1579,-1.1647,-1.1789,-1.1816,-1.1952,-1.2203,-1.2264,-1.2345,-1.2467,-1.2488,-1.2569,-1.2691,-1.2718,-1.2861,0.8315,0.8038,0.8038,0.8038,0.7923,0.7733,0.7428,0.6946,0.646,0.6099,0.597,0.5976,0.5993,0.6418,0.6844,0.7007,0.7489,0.7477,0.6355,0.2658,-0.0,-0.0,-0.0,-0.0,0.0,-0.0,0.0,0.0,0.0,0.0,-0.0,-0.0,-0.0,-0.0,-0.0,-0.0,-0.0,-0.0,-0.0,-0.0,-0.0,-0.0,-0.0,-0.0,-0.0,-0.0,0.0,0.0,-0.0,-0.0,-0.0,-0.0,-0.0,-0.0,-0.0,-0.0,-0.0,-0.0,-0.0,-0.0,-0.0,-0.0,-0.0,-0.0,-0.0,-0.0,-0.0,-0.0,-0.39,-0.8354,-1.027,-1.0645,-1.0738,-1.0738,-1.0785,-1.0839,-1.0839,-1.0955,-1.1056,-1.1056,-1.1118,-1.1165,-1.1165,-1.1165,-1.1165,-1.1165,-1.1233,-1.128,-1.128,-1.1348,-1.1369,-1.1287,-1.1355,-1.143,-1.1504,-1.1579,-1.1653,-1.1728,-1.1803,-1.1877,-1.1945,-1.2026,-1.2142,-1.2284,-1.2366,-1.2433,-1.2501,-1.2583,-1.2657,-1.2732,-1.2888,-1.3037,0.8336,0.8038,0.8038,0.8038,0.7902,0.7658,0.7238,0.678,0.6324,0.5607,0.5564,0.5728,0.5949,0.6227,0.6539,0.0,0.7292,0.774,0.8086,0.4504,0.1396,0.0,-0.0,0.0,-0.0,0.0,0.0,0.0,0.0,0.0,0.0,-0.0,-0.0,-0.0,-0.0,-0.0,-0.0,-0.0,-0.0,-0.0,-0.0,-0.0,-0.0,-0.0,-0.0,-0.0,0.0,0.0,0.0,-0.0,-0.0,-0.0,-0.0,-0.0,-0.0,-0.0,-0.0,-0.0,-0.0,-0.0,-0.0,-0.0,-0.0,-0.0,-0.0,-0.0,-0.0,-0.0,-0.309,-0.7125,-0.999,-1.0645,-1.0744,-1.0772,-1.0867,-1.0955,-1.0989,-1.1111,-1.1212,-1.1212,-1.124,-1.126,-1.126,-1.126,-1.126,-1.126,-1.1362,-1.1443,-1.1443,-1.1545,-1.1586,-1.1497,-1.1592,-1.1667,-1.1667,-1.1796,-1.1877,-1.1877,-1.1993,-1.2074,-1.2108,-1.223,-1.2305,-1.2332,-1.2447,-1.2501,-1.2501,-1.2657,-1.2745,-1.2786,-1.3051,-1.3193,0.8336,0.8038,0.8038,0.8038,0.7828,0.7536,0.721,0.6709,0.6207,0.5815,0.5705,0.565,0.5793,0.6071,0.6424,0.6858,0.719,0.7463,0.772,0.7808,0.5882,0.0654,0.0,0.0,-0.0,0.0,0.0,0.0,0.0,0.0,0.0,-0.0,-0.0,-0.0,-0.0,-0.0,-0.0,-0.0,-0.0,-0.0,-0.0,-0.0,-0.0,-0.0,-0.0,-0.0,0.0,0.0,0.0,-0.0,-0.0,-0.0,-0.0,-0.0,-0.0,-0.0,-0.0,-0.0,-0.0,-0.0,-0.0,-0.0,-0.0,-0.0,-0.0,-0.0,-0.0,-0.0,-0.4983,-1.029,-1.0564,-1.0685,-1.0692,-1.0934,-1.0955,-1.0982,-1.1118,-1.126,-1.1369,-1.1369,-1.1484,-1.1579,-1.1579,-1.1579,-1.1579,-1.1579,-1.1592,-1.1599,-1.1599,-1.1613,-1.166,-1.1775,-1.1803,-1.1809,-1.1809,-1.1952,-1.204,-1.204,-1.2054,-1.2128,-1.2264,-1.2284,-1.2352,-1.2481,-1.2494,-1.2501,-1.2501,-1.2657,-1.28,-1.2942,-1.3098,-1.3247,0.8499,0.8038,0.8038,0.8038,0.7821,0.7516,0.721,0.6681,0.6173,0.5867,0.5616,0.5521,0.5759,0.5901,0.6159,0.6702,0.6892,0.7156,0.761,0.7878,0.7406,0.5567,0.2179,0.0,0.0,0.0,0.0,0.0,0.0,0.0,0.0,0.0,-0.0,-0.0,-0.0,-0.0,-0.0,-0.0,-0.0,-0.0,-0.0,-0.0,-0.0,-0.0,-0.0,-0.0,0.0,0.0,0.0,-0.0,-0.0,-0.0,-0.0,-0.0,-0.0,-0.0,-0.0,-0.0,-0.0,-0.0,-0.0,-0.0,-0.0,-0.0,-0.0,-0.0,-0.0,-0.0,-0.2017,-0.4973,-0.7823,-0.8671,-0.912,-1.0541,-1.109,-1.1233,-1.1287,-1.1423,-1.1531,-1.1531,-1.1579,-1.1619,-1.1619,-1.1619,-1.1619,-1.1619,-1.1619,-1.1619,-1.1619,-1.1694,-1.1769,-1.1823,-1.183,-1.187,-1.1965,-1.2108,-1.2196,-1.2196,-1.2277,-1.2352,-1.2413,-1.242,-1.244,-1.2501,-1.2501,-1.2549,-1.2637,-1.2793,-1.2942,-1.3091,-1.3241,-1.3342,0.851,0.8004,0.8038,0.8038,0.7787,0.7461,0.7197,0.6647,0.6118,0.5854,0.5569,0.5454,0.5745,0.58,0.5983,0.6539,0.6709,0.6946,0.7461,0.765,0.8045,0.0,0.0,0.0,0.0,0.0,0.0,0.0,0.0,0.0,0.0,0.0,-0.0,-0.0,-0.0,-0.0,-0.0,-0.0,-0.0,-0.0,-0.0,-0.0,-0.0,-0.0,-0.0,0.0,0.0,0.0,0.0,-0.0,-0.0,-0.0,-0.0,-0.0,-0.0,-0.0,-0.0,-0.0,-0.0,-0.0,-0.0,-0.0,-0.0,-0.0,-0.0,-0.0,-0.0,-0.0,-0.0,-0.1345,-0.6909,-0.8455,-0.8916,-1.0652,-1.1246,-1.1402,-1.145,-1.1545,-1.1619,-1.1619,-1.1619,-1.1619,-1.1619,-1.1653,-1.1681,-1.1681,-1.1721,-1.1748,-1.1748,-1.1837,-1.1918,-1.1959,-1.1965,-1.2013,-1.2121,-1.2271,-1.2352,-1.2352,-1.2447,-1.2501,-1.2501,-1.2501,-1.2501,-1.2501,-1.2549,-1.2623,-1.2732,-1.2929,-1.3078,-1.3173,-1.3329,-1.3424,0.8151,0.7923,0.8038,0.8038,0.7706,0.7333,0.7177,0.6566,0.5989,0.5833,0.5569,0.5454,0.5745,0.58,0.5949,0.6403,0.6729,0.7034,0.7333,0.7753,0.8006,0.0,0.0,0.0,0.0,0.0,0.0,0.0,0.0,0.0,0.0,0.0,-0.0,-0.0,-0.0,-0.0,-0.0,-0.0,-0.0,-0.0,-0.0,-0.0,-0.0,-0.0,0.0,0.0,0.0,0.0,0.0,-0.0,-0.0,-0.0,-0.0,-0.0,-0.0,-0.0,-0.0,-0.0,-0.0,-0.0,-0.0,-0.0,-0.0,-0.0,-0.0,-0.0,-0.0,-0.0,-0.0,-0.1756,-0.9496,-1.133,-1.1228,-1.1502,-1.155,-1.1436,-1.1586,-1.1619,-1.1619,-1.1619,-1.1619,-1.1619,-1.1619,-1.1735,-1.183,-1.183,-1.1959,-1.2054,-1.2054,-1.206,-1.2121,-1.2271,-1.2284,-1.2284,-1.2291,-1.242,-1.2501,-1.2501,-1.2501,-1.2501,-1.2501,-1.2501,-1.2501,-1.2501,-1.2651,-1.2725,-1.2732,-1.3024,-1.3173,-1.3173,-1.3329,-1.3485,0.7576,0.7468,0.7556,0.7448,0.7244,0.7,0.6742,0.6342,0.5962,0.5705,0.5501,0.542,0.5623,0.5739,0.5983,0.6539,0.6797,0.7068,0.0,0.0,0.0,0.7968,0.0,0.0,0.0,0.0,0.0,0.0,0.0,0.0,0.0,0.0,0.0,-0.0,-0.0,-0.0,-0.0,-0.0,-0.0,-0.0,-0.0,-0.0,-0.0,-0.0,0.0,0.0,0.0,0.0,0.0,-0.0,-0.0,-0.0,-0.0,-0.0,-0.0,-0.0,-0.0,-0.0,-0.0,-0.0,-0.0,-0.0,-0.0,-0.0,-0.0,-0.0,-0.0,-0.0,-0.3796,-0.7947,-0.7683,-0.9607,-1.1461,-1.153,-1.1477,-1.1558,-1.1606,-1.1633,-1.1647,-1.1647,-1.1596,-1.1537,-1.1537,-1.1791,-1.1871,-1.2026,-1.2047,-1.206,-1.206,-1.2155,-1.2237,-1.2284,-1.2379,-1.2433,-1.2433,-1.2474,-1.2501,-1.2501,-1.2501,-1.2501,-1.2501,-1.2603,-1.2657,-1.2657,-1.2807,-1.2935,-1.303,-1.3125,-1.3227,-1.3329,-1.3376,-1.3485,0.714,0.7122,0.7258,0.7163,0.6993,0.6776,0.6525,0.62,0.5874,0.5637,0.5467,0.5406,0.5562,0.5664,0.5881,0.6369,0.662,0.6912,0.0,0.0,0.0,0.0,0.0,0.0,0.0,0.0,0.0,0.0,0.0,0.0,0.0,0.0,0.0,-0.0,-0.0,-0.0,-0.0,-0.0,-0.0,-0.0,-0.0,-0.0,-0.0,0.0,0.0,0.0,0.0,0.0,0.0,-0.0,-0.0,-0.0,-0.0,-0.0,-0.0,-0.0,-0.0,-0.0,-0.0,-0.0,-0.0404,-0.31,-0.2155,-0.0,-0.0,-0.1882,-0.4044,-0.4338,-0.6834,-0.9245,-0.8188,-0.9719,-1.1578,-1.147,-1.1558,-1.1633,-1.1633,-1.1653,-1.1096,-0.9663,-0.9449,-0.9377,-0.942,-0.9511,-1.0196,-1.1888,-1.2223,-1.2244,-1.223,-1.2311,-1.2372,-1.2372,-1.2447,-1.2501,-1.2501,-1.2501,-1.2501,-1.2501,-1.2556,-1.2589,-1.2589,-1.2739,-1.282,-1.282,-1.2963,-1.3085,-1.3173,-1.3227,-1.3308,-1.3403,-1.3458,-1.3566,0.0,0.6837,0.7061,0.7048,0.6837,0.6593,0.6444,0.6084,0.0,0.5603,0.546,0.5413,0.5576,0.5603,0.5705,0.6023,0.6329,0.6675,0.0,0.757,0.0,0.0,0.0,0.0,0.0,0.0,0.0,0.0,0.0,0.0,0.0,0.0,0.0,0.0,-0.0,-0.0,-0.0,-0.0,-0.0,-0.0,-0.0,-0.0,-0.0,0.0,0.0,0.0,0.0,0.0,0.0,-0.0,-0.0,-0.0,-0.0,-0.0,-0.0,-0.0,-0.0,-0.0,-0.0,-0.0269,-0.1885,-0.8531,-0.6211,-0.0673,-0.0403,-0.5245,-1.0873,-1.1453,-0.8955,-0.7031,-1.0639,-1.1585,-1.1626,-1.1599,-1.164,-1.1509,-1.1214,-1.1398,-1.0572,-0.6953,-0.5783,-0.5363,-0.5422,-0.5337,-0.6919,-1.1097,-1.2146,-1.2542,-1.2508,-1.2501,-1.2508,-1.2515,-1.2515,-1.2522,-1.2535,-1.2522,-1.2515,-1.2515,-1.2664,-1.2745,-1.2745,-1.2895,-1.2976,-1.2976,-1.3119,-1.3186,-1.3186,-1.3336,-1.3403,-1.3403,-1.3559,-1.3702,0.5994,0.0,0.6261,0.6146,0.6064,0.5976,0.0,0.5718,0.5596,0.5447,0.5452,0.544,0.5705,0.5752,0.5922,0.6458,0.679,0.7102,0.0,0.0,0.0,0.0,0.0,0.0,0.0,0.0,0.0,0.0,0.0,0.0,0.0,0.0,0.0,0.0,-0.0,-0.0,-0.0,-0.0,-0.0,-0.0,-0.0,-0.0,-0.0,0.0,0.0,0.0,0.0,0.0,0.0,-0.0,-0.0,-0.0,-0.0,-0.0,-0.0,-0.0,-0.0,-0.0,-0.0,-0.3638,-0.8531,-1.0168,-0.9612,-0.7689,-0.4967,-0.7268,-1.0873,-1.1453,-1.0849,-1.0234,-1.1275,-1.1552,-1.1647,-1.1536,-1.1543,-1.08,-0.7851,-0.9562,-1.1315,-1.0435,-0.5431,-0.1376,-0.1379,-0.1392,-0.2802,-0.7007,-1.0474,-1.2542,-1.2508,-1.2501,-1.2549,-1.2664,-1.2678,-1.2725,-1.284,-1.2745,-1.2678,-1.2678,-1.282,-1.2908,-1.2908,-1.3044,-1.3125,-1.3125,-1.3268,-1.3349,-1.3349,-1.3383,-1.3403,-1.3403,-1.3559,-1.3702,0.6071,0.5902,0.601,0.5928,0.6193,0.6432,0.6354,0.6256,0.615,0.6043,0.5683,0.5433,0.5664,0.5759,0.5976,0.6512,0.6851,0.0,0.0,0.0,0.0,0.0,0.0,0.0,0.0,0.0,0.0,0.0,0.0,0.0,0.0,0.0,0.0,0.0,0.0,-0.0,-0.0,-0.0,-0.0,-0.0,-0.0,-0.0,-0.0,0.0,0.0,0.0,0.0,0.0,-0.0,-0.0,-0.0,-0.0,-0.0,-0.0,-0.0,-0.0,-0.0,-0.0,-0.0,-0.4717,-1.0719,-1.0699,-1.0692,-1.0143,-0.7166,-0.8412,-1.0941,-1.1379,-1.1372,-1.1362,-1.1518,-1.0299,-0.8889,-0.8889,-1.0227,-1.0995,-0.8967,-0.7252,-0.6273,-0.6344,-0.2904,-0.0,-0.0,-0.0,-0.0783,-0.3127,-0.8622,-1.2576,-1.2528,-1.2589,-1.2657,-1.2725,-1.2793,-1.2868,-1.2956,-1.2942,-1.2908,-1.284,-1.2976,-1.3057,-1.3057,-1.32,-1.3275,-1.3275,-1.3356,-1.3403,-1.3403,-1.3403,-1.3437,-1.3512,-1.3654,-1.3804,0.6741,0.647,0.6352,0.6009,0.666,0.7419,0.7107,0.694,0.6848,0.6753,0.6028,0.5454,0.5657,0.5806,0.0,0.0,0.0,0.0,0.0,0.0,0.0,0.0,0.0,0.0,0.0,0.0,0.0,0.0,0.0,0.0,0.0,0.0,0.0,0.0,0.0,0.0,-0.0,-0.0,-0.0,-0.0,-0.0,-0.0,-0.0,-0.0,0.0,0.0,0.0,0.0,-0.0,-0.0,-0.0,-0.0,-0.0,-0.0,-0.0,-0.0,-0.0,-0.0,-0.0,-0.4308,-1.0009,-1.0538,-1.0685,-1.0437,-0.8455,-0.9472,-1.1084,-1.1212,-1.1335,-1.1322,-1.1482,-0.829,-0.4942,-0.4942,-0.7447,-0.9871,-0.9831,-0.4625,-0.0,-0.0,-0.0,-0.0,-0.0,-0.0,-0.0,-0.0,-0.5968,-1.089,-1.1479,-1.2239,-1.2813,-1.2807,-1.2915,-1.3003,-1.3024,-1.3139,-1.3159,-1.3037,-1.3139,-1.3207,-1.3207,-1.3336,-1.3403,-1.3403,-1.3403,-1.3403,-1.3403,-1.3403,-1.3478,-1.3641,-1.3777,-1.3926,0.8042,0.8147,0.7742,0.5931,0.6839,0.7991,0.6981,0.6721,0.6753,0.6728,0.6127,0.5677,0.6084,0.6274,0.6519,0.0,0.0,0.0,0.0,0.0,0.0,0.0,0.0,0.0,0.0,0.0,0.0,0.0,0.0,0.0,0.0,0.0,0.0,0.0,0.0,0.0,0.0,-0.0,-0.0,-0.0,-0.0,-0.0,-0.0,-0.0,-0.0,0.0,0.0,0.0,-0.0,-0.0,-0.0,-0.0,-0.0,-0.0,-0.0,-0.0,-0.0,-0.0,-0.0,-0.2687,-0.6715,-0.971,-1.0873,-1.0819,-1.0535,-1.0862,-1.1509,-1.1389,-1.1281,-1.1219,-1.1536,-0.6272,-0.0875,-0.0875,-0.1324,-0.178,-0.1784,-0.0907,-0.0,-0.0,-0.0,-0.0,-0.0,-0.0,-0.0,-0.0,-0.1105,-0.3176,-0.6828,-1.0445,-1.2856,-1.297,-1.3146,-1.3193,-1.3322,-1.3356,-1.3356,-1.3336,-1.3356,-1.3363,-1.3363,-1.339,-1.3403,-1.3403,-1.3403,-1.3403,-1.3403,-1.3403,-1.3325,-1.3499,-1.3613,-1.3939,0.8281,0.8821,0.8911,0.7591,0.8099,0.902,0.8928,0.8028,0.7325,0.7966,0.6977,0.6064,0.643,0.0,0.6919,0.7529,0.0,0.0,0.0,0.0,0.0,0.0,0.0,0.0,0.0,0.0,0.0,0.0,0.0,0.0,0.0,0.0,0.0,0.0,0.0,0.0,0.0,-0.0,-0.0,-0.0,-0.0,-0.0,-0.0,-0.0,-0.0,0.0,0.0,-0.0,-0.0,-0.0,-0.0,-0.0,-0.0,-0.0,-0.0,-0.0,-0.0,-0.0538,-0.4445,-0.4303,-0.3356,-0.9092,-1.0941,-1.1016,-1.102,-1.1307,-1.145,-1.1422,-0.9976,-0.8827,-1.0976,-0.5839,-0.0,-0.0,-0.0,-0.0,-0.0,-0.0,-0.0,-0.0,-0.0,-0.0,-0.0,-0.0,-0.0,-0.0,-0.0,-0.0639,-0.257,-0.4707,-0.7705,-1.2572,-1.3144,-1.3383,-1.3451,-1.3458,-1.3437,-1.3403,-1.3403,-1.3403,-1.3403,-1.3403,-1.3403,-1.3403,-1.3403,-1.3403,-1.3403,-1.3485,-1.3607,-1.3599,-1.3899,-1.4055,0.8945,0.9515,0.9856,0.9592,0.9772,1.0133,1.0813,0.9357,0.8125,0.9182,0.7869,0.6498,0.6756,0.7014,0.0,0.0,0.0,0.0,0.0,0.0,0.0,0.0,0.0,0.0,0.0,0.0,0.0,0.0,0.0,0.0,0.0,0.0,0.0,0.0,0.0,0.0,-0.0,-0.0,-0.0,-0.0,-0.0,-0.0,-0.0,-0.0,-0.0,-0.0,-0.0,-0.0,-0.0,-0.0,-0.0,-0.0,-0.0,-0.0,-0.0,-0.0,-0.0,-0.0807,-0.6337,-0.58,-0.324,-0.7097,-0.9638,-1.1131,-1.1221,-1.0735,-1.0209,-1.1253,-0.9496,-0.7425,-0.8624,-0.4533,-0.0,-0.0,-0.0,-0.0,-0.0,-0.0,-0.0,-0.0,-0.0,-0.0,-0.0,-0.0,-0.0,-0.0,-0.0,-0.0,-0.0,-0.0,-0.298,-1.0639,-1.173,-1.179,-1.179,-1.179,-1.1772,-1.189,-1.2746,-1.3424,-1.341,-1.341,-1.341,-1.3403,-1.3403,-1.3417,-1.3458,-1.3573,-1.3722,-1.3905,-1.4021,-1.4156,1.0797,1.089,1.073,1.1484,1.1467,1.1294,1.1386,0.9948,0.8777,0.9687,0.8263,0.6926,0.7082,0.7577,0.0,0.0,0.0,0.0,0.0,0.0,0.0,0.0,0.0,0.0,0.0,0.0,0.0,0.0,0.0,0.0,0.0,0.0,0.0,0.0,0.0,0.0,-0.0,-0.0,-0.0,-0.0,-0.0,-0.0,-0.0,-0.0,-0.0,-0.0,-0.0,-0.0,-0.0,-0.0,-0.0,-0.0,-0.0,-0.0,-0.0,-0.0,-0.0,-0.0135,-0.0538,-0.5018,-0.9336,-0.2875,-0.5566,-1.1261,-1.1166,-0.8934,-0.697,-1.0541,-1.1444,-0.9512,-0.2625,-0.0442,-0.0,-0.0,-0.0,-0.0,-0.0,-0.0,-0.0,-0.0,-0.0,-0.0,-0.0,-0.0,-0.0,-0.0,-0.0,-0.0,-0.0,-0.0,-0.1844,-0.6717,-0.7212,-0.7208,-0.7208,-0.7208,-0.7205,-0.7205,-1.1098,-1.3478,-1.3451,-1.3451,-1.3431,-1.3403,-1.3403,-1.3471,-1.3614,-1.3627,-1.379,-1.3928,-1.4082,-1.417,1.014,1.0581,1.0955,1.1463,1.1917,1.2311,1.2518,1.0552,0.9063,1.0492,0.8901,0.7387,0.7529,0.0,0.0,0.0,0.0,0.0,0.0,0.0,0.0,0.0,0.0,0.0,0.0,0.0,0.0,0.0,0.0,0.0,0.0,0.0,0.0,0.0,0.0,0.0,0.0,-0.0,-0.0,-0.0,-0.0,-0.0,-0.0,-0.0,-0.0,-0.0,-0.0,-0.0,-0.0,-0.0,-0.0,-0.0,-0.0,-0.0,-0.0,-0.0,-0.0,-0.0,-0.0,-0.1898,-0.4535,-0.6371,-0.5758,-0.5134,-0.9988,-1.0492,-0.9652,-1.1166,-1.1623,-0.9854,-0.2064,-0.0,-0.0,-0.0,-0.0,-0.0,-0.0,-0.0,-0.0,-0.0,-0.0,-0.0,-0.0,-0.0,-0.0,-0.0,-0.0,-0.0,-0.0,-0.0,-0.0673,-0.2355,-0.2522,-0.2519,-0.2519,-0.5046,-0.6734,-0.6734,-0.8236,-0.923,-0.9221,-1.1945,-1.3512,-1.3573,-1.358,-1.3634,-1.3763,-1.3858,-1.3966,-1.4089,-1.4177,-1.4251,1.002,1.0474,1.0969,1.145,1.1722,1.2094,1.2667,1.09,0.9456,1.0631,0.9242,0.7767,0.7868,0.0,0.0,0.0,0.0,0.0,0.0,0.0,0.0,0.0,0.0,0.0,0.0,0.0,0.0,0.0,0.0,0.0,0.0,0.0,0.0,0.0,0.0,0.0,0.0,-0.0,-0.0,-0.0,-0.0,-0.0,-0.0,-0.0,-0.0,-0.0,-0.0,-0.0,-0.0,-0.0,-0.0,-0.0,-0.0,-0.0,-0.0,-0.0,-0.0,-0.0,-0.0,-0.0,-0.083,-0.6005,-0.5806,-0.4171,-0.7135,-0.7892,-0.7897,-0.7915,-0.7943,-0.6651,-0.1342,-0.0,-0.0,-0.0,-0.0,-0.0,-0.0,-0.0,-0.0,-0.0,-0.0,-0.0,-0.0,-0.0,-0.0,-0.0,-0.0,-0.0,-0.0,-0.0,-0.0,-0.0,-0.0,-0.0,-0.0,-0.2865,-0.456,-0.4576,-0.4562,-0.4551,-0.4549,-0.7619,-0.9884,-1.1498,-1.2898,-1.3824,-1.3933,-1.4048,-1.4116,-1.415,-1.4265,-1.4312,1.0902,1.0782,1.0833,1.165,1.1006,1.0461,1.179,1.1133,1.0159,1.0035,0.8924,0.8038,0.8038,0.8282,0.0,0.0,0.0,0.0,0.0,0.0,0.0,0.0,0.0,0.0,0.0,0.0,0.0,0.0,0.0,0.0,0.0,0.0,0.0,0.0,0.0,0.0,0.0,-0.0,-0.0,-0.0,-0.0,-0.0,-0.0,-0.0,-0.0,-0.0,-0.0,-0.0,-0.0,-0.0,-0.0,-0.0,-0.0,-0.0,-0.0,-0.0,-0.0,-0.0,-0.0,-0.0,-0.0,-0.0,-0.5143,-1.0105,-0.2334,-0.0,-0.0,-0.0,-0.0,-0.0,-0.0,-0.0,-0.0,-0.0,-0.0,-0.0,-0.0,-0.0,-0.0,-0.0,-0.0,-0.0,-0.0,-0.0,-0.0,-0.0,-0.0,-0.0,-0.0,-0.0,-0.0,-0.0,-0.0,-0.0,-0.0,-0.0,-0.0,-0.0,-0.0,-0.0,-0.0,-0.0,-0.2078,-0.6583,-1.1307,-1.384,-1.3948,-1.3806,-1.4035,-1.4299,-1.4333,-1.4333,1.01,1.0461,1.0771,1.0459,1.0959,1.125,1.0124,0.9518,0.9158,0.8713,0.8237,0.8038,0.8038,0.0,0.0,0.0,0.0,0.0,0.0,0.0,0.0,0.0,0.0,0.0,0.0,0.0,0.0,0.0,0.0,0.0,0.0,0.0,0.0,0.0,0.0,0.0,0.0,0.0,-0.0,-0.0,-0.0,-0.0,-0.0,-0.0,-0.0,-0.0,-0.0,-0.0,-0.0,-0.0,-0.0,-0.0,-0.0,-0.0,-0.0,-0.0,-0.0,-0.0,-0.0,-0.0,-0.0,-0.0,-0.1571,-0.3063,-0.0729,-0.0,-0.0,-0.0,-0.0,-0.0,-0.0,-0.0,-0.0,-0.0,-0.0,-0.0,-0.0,-0.0,-0.0,-0.0,-0.0,-0.0,-0.0,-0.0,-0.0,-0.0,-0.0,-0.0,-0.0,-0.0,-0.0,-0.0,-0.0,-0.0,-0.0,-0.0,-0.0,-0.0,-0.0,-0.0,-0.0,-0.0,-0.0696,-0.1926,-0.3328,-0.5811,-0.9078,-1.2514,-1.2526,-0.9286,-1.274,-1.438,0.9843,1.0183,1.0508,1.0051,1.0209,1.0173,0.8742,0.852,0.8467,0.0,0.8038,0.8038,0.8038,0.0,0.0,0.0,0.0,0.0,0.0,0.0,0.0,0.0,0.0,0.0,0.0,0.0,0.0,0.0,0.0,0.0,0.0,0.0,0.0,0.0,0.0,0.0,0.0,0.0,0.0,-0.0,-0.0,-0.0,-0.0,-0.0,-0.0,-0.0,-0.0,-0.0,-0.0,-0.0,-0.0,-0.0,-0.0,-0.0,-0.0,-0.0,-0.0,-0.0,-0.0,-0.0,-0.0,-0.0,-0.0,-0.0,-0.0,-0.0,-0.0,-0.0,-0.0,-0.0,-0.0,-0.0,-0.0,-0.0,-0.0,-0.0,-0.0,-0.0,-0.0,-0.0,-0.0,-0.0,-0.0,-0.0,-0.0,-0.0,-0.0,-0.0,-0.0,-0.0,-0.0,-0.0,-0.0,-0.0,-0.0,-0.0,-0.0,-0.0,-0.0,-0.0,-0.0,-0.0,-0.0,-0.0,-0.0,-0.1423,-0.4287,-0.7167,-0.8063,-0.7146,-0.8234,-0.9678,1.0091,1.0008,1.0103,1.0141,0.9159,0.8105,0.7889,0.7936,0.8038,0.8038,0.0,0.8038,0.0,0.0,0.0,0.0,0.0,0.0,0.0,0.0,0.0,0.0,0.0,0.0,0.0,0.0,0.0,0.0,0.0,0.0,0.0,0.0,0.0,0.0,0.0,0.0,0.0,0.0,0.0,0.0,-0.0,-0.0,-0.0,-0.0,-0.0,-0.0,-0.0,-0.0,-0.0,-0.0,-0.0,-0.0,-0.0,-0.0,-0.0,-0.0,-0.0,-0.0,-0.0,-0.0,-0.0,-0.0,-0.0,-0.0,-0.0,-0.0,-0.0,-0.0,-0.0,-0.0,-0.0,-0.0,-0.0,-0.0,-0.0,-0.0,-0.0,-0.0,-0.0,-0.0,-0.0,-0.0,-0.0,-0.0,-0.0,-0.0,-0.0,-0.0,-0.0,-0.0,-0.0,-0.0,-0.0,-0.0,-0.0,-0.0,-0.0,-0.0,-0.0,-0.0,-0.0,-0.0,-0.0,-0.0,-0.0,-0.0,-0.0,-0.0,-0.215,-0.6433,-0.1967,-0.2324,1.0379,1.0098,0.983,1.0029,0.8957,0.7868,0.7936,0.8018,0.8038,0.8038,0.8038,0.0,0.0,0.0,0.0,0.0,0.0,0.0,0.0,0.0,0.0,0.0,0.0,0.0,0.0,0.0,0.0,0.0,0.0,0.0,0.0,0.0,0.0,0.0,0.0,0.0,-0.0,-0.0,-0.0,0.0,-0.0,-0.0,-0.0,-0.0,-0.0,-0.0,-0.0,-0.0,-0.0,-0.0,-0.0,-0.0,-0.0,-0.0,-0.0,-0.0,-0.0,-0.0,-0.0,-0.0,-0.0,-0.0,-0.0,-0.0,-0.0,-0.0,-0.0,-0.0,-0.0,-0.0,-0.0,-0.0,-0.0,-0.0,-0.0,-0.0,-0.0,-0.0,-0.0,-0.0,-0.0,-0.0,-0.0,-0.0,-0.0,-0.0,-0.0,-0.0,-0.0,-0.0,-0.0,-0.0,-0.0,-0.0,-0.0,-0.0,-0.0,-0.0,-0.0,-0.0,-0.0,-0.0,-0.0,-0.0,-0.0,-0.0,-0.0,-0.0,-0.0538,-0.1434,-0.0538,-0.0538,1.0185,0.9788,0.9241,0.8931,0.8326,0.7943,0.8024,0.8038,0.8038,0.8038,0.0,0.0,0.0,0.0,0.0,0.0,0.0,0.0,0.0,0.0,0.0,0.0,0.0,0.0,0.0,0.0,0.0,0.0,0.0,0.0,0.0,0.0,0.0,0.0,0.0,0.0,-0.0,-0.0,-0.0,-0.0,-0.0,-0.0,-0.0,-0.0,-0.0,-0.0,-0.0,-0.0,-0.0,-0.0,-0.0,-0.0,-0.0,-0.0,-0.0,-0.0,-0.0,-0.0,-0.0,-0.0,-0.0,-0.0,-0.0,-0.0,-0.0,-0.0,-0.0,-0.0,-0.0,-0.0,-0.0,-0.0,-0.0,-0.0,-0.0,-0.0,-0.0,-0.0,-0.0,-0.0,-0.0,-0.0,-0.0,-0.0,-0.0,-0.0,-0.0,-0.0,-0.0,-0.0,-0.0,-0.0,-0.0,-0.0,-0.0,-0.0,-0.0,-0.0,-0.0,-0.0,-0.0,-0.0,-0.0,-0.0,-0.0,-0.0,-0.0,-0.0,-0.0,-0.0,-0.0,-0.0,0.9904,0.9497,0.8754,0.78,0.778,0.0,0.8031,0.8038,0.8038,0.8038,0.0,0.0,0.0,0.0,0.0,0.0,0.0,0.0,0.0,0.0,0.0,0.0,0.0,0.0,0.0,0.0,0.0,0.0,0.0,0.0,0.0,0.0,0.0,0.0,0.0,-0.0,-0.0,-0.0,-0.0,-0.0,-0.0,-0.0,-0.0,-0.0,-0.0,-0.0,-0.0,-0.0,-0.0,-0.0,-0.0,-0.0,-0.0,-0.0,-0.0,-0.0,-0.0,-0.0,-0.0,-0.0,-0.0,-0.0,-0.0,-0.0,-0.0,-0.0,-0.0,-0.0,-0.0,-0.0,-0.0,-0.0,-0.0,-0.0,-0.0,-0.0,-0.0,-0.0,-0.0,-0.0,-0.0,-0.0,-0.0,-0.0,-0.0,-0.0,-0.0,-0.0,-0.0,-0.0,-0.0,-0.0,-0.0,-0.0,-0.0,-0.0,-0.0,-0.0,-0.0,-0.0,-0.0,-0.0,-0.0,-0.0,-0.0,-0.0,-0.0,-0.0,-0.0,-0.0,-0.0,-0.0,0.9918,0.9783,0.9137,0.7803,0.7624,0.7875,0.0,0.0,0.8038,0.0,0.0,0.0,0.0,0.0,0.0,0.0,0.0,0.0,0.0,0.0,0.0,0.0,0.0,0.0,0.0,0.0,0.0,0.0,0.0,0.0,0.0,0.0,-0.0,-0.0,-0.0,0.0,-0.0,-0.0,-0.0,-0.0,-0.0,-0.0,-0.0,-0.0,-0.0,-0.0,-0.0,-0.0,-0.0,-0.0,-0.0,-0.0,-0.0,-0.0,-0.0,-0.0,-0.0,-0.0,-0.0,-0.0,-0.0,-0.0,-0.0,-0.0,-0.0,-0.0,-0.0,-0.0,-0.0,-0.0,-0.0,-0.0,-0.0,-0.0,-0.0,-0.0,-0.0,-0.0,-0.0,-0.0,-0.0,-0.0,-0.0,-0.0,-0.0,-0.0,-0.0,-0.0,-0.0,-0.0,-0.0,-0.0,-0.0,-0.0,-0.0,-0.0,-0.0,-0.0,-0.0,-0.0,-0.0,-0.0,-0.0,-0.0,-0.0,-0.0,-0.0,-0.0,-0.0,-0.0,-0.0,-0.0,0.9171,0.9196,0.8973,0.7678,0.759,0.7828,0.7896,0.0,0.0,0.0,0.0,0.0,0.0,0.0,0.0,0.0,0.0,0.0,0.0,0.0,0.0,0.0,0.0,0.0,0.0,0.0,0.0,0.0,0.0,0.0,0.0,-0.0,-0.0,-0.0,-0.0,0.0,-0.0,-0.0,-0.0,-0.0,-0.0,-0.0,-0.0,-0.0,-0.0,-0.0,-0.0,-0.0,-0.0,-0.0,-0.0,-0.0,-0.0,-0.0,-0.0,-0.0,-0.0,-0.0,-0.0,-0.0,-0.0,-0.0,-0.0,-0.0,-0.0,-0.0,-0.0,-0.0,-0.0,-0.0,-0.0,-0.0,-0.0,-0.0,-0.0,-0.0,-0.0,-0.0,-0.0,-0.0,-0.0,-0.0,-0.0,-0.0,-0.0,-0.0,-0.0,-0.0,-0.0,-0.0,-0.0,-0.0,-0.0,-0.0,-0.0,-0.0,-0.0,-0.0,-0.0,-0.0,-0.0,-0.0,-0.0,-0.0,-0.0,-0.0,-0.0,-0.0,-0.0,-0.0,-0.0,-0.0,0.8508,0.8495,0.8499,0.7662,0.7549,0.7624,0.0,0.0,0.0,0.0,0.0,0.0,0.0,0.0,0.0,0.0,0.0,0.0,0.0,0.0,0.0,0.0,0.0,0.0,0.0,0.0,0.0,0.0,0.0,0.0,-0.0,-0.0,-0.0,-0.0,-0.0,-0.0,-0.0,-0.0,-0.0,-0.0,-0.0,-0.0,-0.0,-0.0,-0.0,-0.0,-0.0,-0.0,-0.0,-0.0,-0.0,-0.0,-0.0,-0.0,-0.0,-0.0,-0.0,-0.0,-0.0,-0.0,-0.0,-0.0,-0.0,-0.0,-0.0,-0.0,-0.0,-0.0,-0.0,-0.0,-0.0,-0.0,-0.0,-0.0,-0.0,-0.0,-0.0,-0.0,-0.0,-0.0,-0.0,-0.0,-0.0,-0.0,-0.0,-0.0,-0.0,-0.0,-0.0,-0.0,-0.0,-0.0,-0.0,-0.0,-0.0,-0.0,-0.0,-0.0,-0.0,-0.0,-0.0,-0.0,-0.0,-0.0,-0.0,-0.0,-0.0,-0.0,-0.0,-0.0,-0.0,-0.0,0.8317,0.7892,0.7555,0.7561,0.7242,0.7122,0.0,0.0,0.0,0.0,0.0,0.0,0.0,0.0,0.0,0.0,0.0,0.0,0.0,0.0,0.0,0.0,0.0,0.0,0.0,0.0,0.0,0.0,0.0,0.0,-0.0,-0.0,-0.0,-0.0,-0.0,-0.0,-0.0,-0.0,-0.0,-0.0,-0.0,-0.0,-0.0,-0.0,-0.0,-0.0,-0.0,-0.0,-0.0,-0.0,-0.0,-0.0,-0.0,-0.0,-0.0,-0.0,-0.0,-0.0,-0.0,-0.0,-0.0,-0.0,-0.0,-0.0,-0.0,-0.0,-0.0,-0.0,-0.0,-0.0,-0.0,-0.0,-0.0,-0.0,-0.0,-0.0,-0.0,-0.0,-0.0,-0.0,-0.0,-0.0,-0.0,-0.0,-0.0,-0.0,-0.0,-0.0,-0.0,-0.0,-0.0,-0.0,-0.0,-0.0,-0.0,-0.0,-0.0,-0.0,-0.0,-0.0,-0.0,-0.0,-0.0,-0.0,-0.0,-0.0,-0.0,-0.0,-0.0,-0.0,-0.0,-0.0,0.7838,0.7509,0.7269,0.6685,0.6645,0.6865,0.7177,0.0,0.0,0.0,0.0,0.0,0.0,0.0,0.0,0.0,0.0,0.0,0.0,0.0,0.0,0.0,0.0,0.0,0.0,0.0,0.0,0.0,0.0,0.0,-0.0,-0.0,-0.0,-0.0,-0.0,-0.0,-0.0,-0.0,-0.0,-0.0,-0.0,-0.0,-0.0,-0.0,-0.0,-0.0,-0.0,-0.0,-0.0,-0.0,-0.0,-0.0,-0.0,-0.0,-0.0,-0.0,-0.0,-0.0,-0.0,-0.0,-0.0,-0.0,-0.0,-0.0,-0.0,-0.0,-0.0,-0.0,-0.0,-0.0,-0.0,-0.0,-0.0,-0.0,-0.0,-0.0,-0.0,-0.0,-0.0,-0.0,-0.0,-0.0,-0.0,-0.0,-0.0,-0.0,-0.0,-0.0,-0.0,-0.0,-0.0,-0.0,-0.0,-0.0,-0.0,-0.0,-0.0,-0.0,-0.0,-0.0,-0.0,-0.0,-0.0,-0.0,-0.0,-0.0,-0.0,-0.0,-0.0,-0.0,-0.0,-0.0,0.7692,0.73,0.7019,0.0,0.0,0.6444,0.6898,0.0,0.0,0.0,0.0,0.0,0.0,0.0,0.0,0.0,0.0,0.0,0.0,0.0,0.0,0.0,0.0,0.0,0.0,0.0,0.0,0.0,0.0,0.0,-0.0,-0.0,-0.0,-0.0,-0.0,-0.0,-0.0,-0.0,-0.0,-0.0,-0.0,-0.0,-0.0,-0.0,-0.0,-0.0,-0.0,-0.0,-0.0,-0.0,-0.0,-0.0,-0.0,-0.0,-0.0,-0.0,-0.0,-0.0,-0.0,-0.0,-0.0,-0.0,-0.0,-0.0,-0.0,-0.0,-0.0,-0.0,-0.0,-0.0,-0.0,-0.0,-0.0,-0.0,-0.0,-0.0,-0.0,-0.0,-0.0,-0.0,-0.0,-0.0,-0.0,-0.0,-0.0,-0.0,-0.0,-0.0,-0.0,-0.0,-0.0,-0.0,-0.0,-0.0,-0.0,-0.0,-0.0,-0.0,-0.0,-0.0,-0.0,-0.0,-0.0,-0.0,-0.0,-0.0,-0.0,-0.0,-0.0,-0.0,-0.0,-0.1795,0.0,0.0,0.0,0.0,0.0,0.0,0.0,0.0,0.0,0.0,0.0,0.0,0.0,0.0,0.0,0.0,0.0,0.0,0.0,0.0,0.0,0.0,0.0,0.0,0.0,0.0,0.0,0.0,0.0,-0.0,-0.0,-0.0,-0.0,-0.0,-0.0,-0.0,-0.0,-0.0,-0.0,-0.0,-0.0,-0.0,-0.0,-0.0,-0.0,-0.0,-0.0,-0.0,-0.0,-0.0,-0.0,-0.0,-0.0,-0.0,-0.0,-0.0,-0.0,-0.0,-0.0,-0.0,-0.0,-0.0,-0.0,-0.0,-0.0,-0.0,-0.0,-0.0,-0.0,-0.0,-0.0,-0.0,-0.0,-0.0,-0.0,-0.0,-0.0,-0.0,-0.0,-0.0,-0.0,-0.0,-0.0,-0.0,-0.0,-0.0,-0.0,-0.0,-0.0,-0.0,-0.0,-0.0,-0.0,-0.0,-0.0,-0.0,-0.0,-0.0,-0.0,-0.0,-0.0,-0.0,-0.0,-0.0,-0.0,-0.0,-0.0,-0.0,-0.0,-0.0,-0.0,-0.5206,0.7213,0.0,0.0,0.0,0.0,0.0,0.0,0.0,0.0,0.0,0.0,0.0,0.0,0.0,0.0,0.0,0.0,0.0,0.0,0.0,0.0,0.0,0.0,0.0,0.0,0.0,0.0,0.0,0.0,-0.0,-0.0,-0.0,-0.0,-0.0,-0.0,-0.0,-0.0,-0.0,-0.0,-0.0,-0.0,-0.0,-0.0,-0.0,-0.0,-0.0,-0.0,-0.0,-0.0,-0.0,-0.0,-0.0,-0.0,-0.0,-0.0,-0.0,-0.0,-0.0,-0.0,-0.0,-0.0,-0.0,-0.0,-0.0,-0.0,-0.0,-0.0,-0.0,-0.0,-0.0,-0.0,-0.0,-0.0,-0.0,-0.0,-0.0,-0.0,-0.0,-0.0,-0.0,-0.0,-0.0,-0.0,-0.0,-0.0,-0.0,-0.0,-0.0,-0.0,-0.0,-0.0,-0.0,-0.0,-0.0,-0.0,-0.0,-0.0,-0.0,-0.0,-0.0,-0.0,-0.0,-0.0,-0.0,-0.0,-0.0,-0.0,-0.0,-0.0,-0.0,-0.0,-0.5206,0.6939,0.6498,0.6032,0.52,0.0,0.0,0.0,0.0,0.0,0.0,0.0,0.0,0.0,0.0,0.0,0.0,0.0,0.0,0.0,0.0,0.0,0.0,0.0,0.0,0.0,0.0,0.0,0.0,-0.0,-0.0,-0.0,-0.0,-0.0,-0.0,-0.0,-0.0,-0.0,-0.0,-0.0,-0.0,-0.0,-0.0,-0.0,-0.0,-0.0,-0.0,-0.0,-0.0,-0.0,-0.0,-0.0,-0.0,-0.0,-0.0,-0.0,-0.0,-0.0,-0.0,-0.0,-0.0,-0.0,-0.0,-0.0,-0.0,-0.0,-0.0,-0.0,-0.0,-0.0,-0.0,-0.0,-0.0,-0.0,-0.0,-0.0,-0.0,-0.0,-0.0,-0.0,-0.0,-0.0,-0.0,-0.0,-0.0,-0.0,-0.0,-0.0,-0.0,-0.0,-0.0,-0.0,-0.0,-0.0,-0.0,-0.0,-0.0,-0.0,-0.0,-0.0,-0.0,-0.0,-0.0,-0.0,-0.0,-0.0,-0.0,-0.0,-0.0,-0.0,-0.018,-0.4128,-0.7904,0.6817,0.6365,0.5799,0.541,0.504,0.0,0.5542,0.5596,0.0,0.0,0.0,0.0,0.0,0.0,0.0,0.0,0.0,0.0,0.0,0.0,0.0,0.0,0.0,0.0,0.0,0.0,0.0,-0.0,-0.0,-0.0,-0.0,-0.0,-0.0,-0.0,-0.0,-0.0,-0.0,-0.0,-0.0,-0.0,-0.0,-0.0,-0.0,-0.0,-0.0,-0.0,-0.0,-0.0,-0.0,-0.0,-0.0,-0.0,-0.0,-0.0,-0.0,-0.0,-0.0,-0.0,-0.0,-0.0,-0.0,-0.0,-0.0,-0.0,-0.0,-0.0,-0.0,-0.0,-0.0,-0.0,-0.0,-0.0,-0.0,-0.0,-0.0,-0.0,-0.0,-0.0,-0.0,-0.0,-0.0,-0.0,-0.0,-0.0,-0.0,-0.0,-0.0,-0.0,-0.0,-0.0,-0.0,-0.0,-0.0,-0.0,-0.0,-0.0,-0.0,-0.0,-0.0,-0.0,-0.0,-0.0,-0.0,-0.0,-0.0,-0.0,-0.0,-0.0,-0.0,-0.018,-0.9899,-1.2056,0.6493,0.632,0.6077,0.5227,0.0,0.0,0.4958,0.4979,0.0,0.0,0.0,0.0,0.0,0.0,0.0,0.0,0.0,0.0,0.0,0.0,0.0,0.0,0.0,0.0,0.0,0.0,-0.0,-0.0,-0.0,-0.0,-0.0,-0.0,-0.0,-0.0,-0.0,-0.0,-0.0,-0.0,-0.0,-0.0,-0.0,-0.0,-0.0,-0.0,-0.0,-0.0,-0.0,-0.0,-0.0,-0.0,-0.0,-0.0,-0.0,-0.0,-0.0,-0.0,-0.0,-0.0,-0.0,-0.0,-0.0,-0.0,-0.0,-0.0,-0.0,-0.0,-0.0,-0.0,-0.0,-0.0,-0.0,-0.0,-0.0,-0.0,-0.0,-0.0,-0.0,-0.0,-0.0,-0.0,-0.0,-0.0,-0.0,-0.0,-0.0,-0.0,-0.0,-0.0,-0.0,-0.0,-0.0,-0.0,-0.0,-0.0,-0.0,-0.0,-0.0,-0.0,-0.0,-0.0,-0.0,-0.0,-0.0,-0.0,-0.0,-0.0,-0.0,-0.0,-0.0,-0.018,-0.9899,-1.3885,0.6335,0.614,0.58,0.5336,0.0,0.0,0.0,0.0,0.0,0.0,0.0,0.0,0.0,0.0,0.0,0.0,0.0,0.0,0.0,0.0,0.0,0.0,0.0,0.0,0.0,0.0,-0.0,-0.0,-0.0,-0.0,-0.0,-0.0,-0.0,-0.0,-0.0,-0.0,-0.0,-0.0,-0.0,-0.0,-0.0,-0.0,-0.0,-0.0,-0.0,-0.0,-0.0,-0.0,-0.0,-0.0,-0.0,-0.0,-0.0,-0.0,-0.0,-0.0,-0.0,-0.0,-0.0,-0.0,-0.0,-0.0,-0.0,-0.0,-0.0,-0.0,-0.0,-0.0,-0.0,-0.0,-0.0,-0.0,-0.0,-0.0,-0.0,-0.0,-0.0,-0.0,-0.0,-0.0,-0.0,-0.0,-0.0,-0.0,-0.0,-0.0,-0.0,-0.0,-0.0,-0.0,-0.0,-0.0,-0.0,-0.0,-0.0,-0.0,-0.0,-0.0,-0.0,-0.0,-0.0,-0.0,-0.0,-0.0,-0.0,-0.0,-0.0,-0.0,-0.0,-0.018,-0.7352,-1.205,0.0,0.0,0.0,0.0,0.0,0.5108,0.0,0.0,0.0,0.5191,0.0,0.0,0.0,0.0,0.0,0.0,0.0,0.0,0.0,0.0,0.0,0.0,0.0,0.0,0.0,0.0,-0.0,-0.0,-0.0,-0.0,-0.0,-0.0,-0.0,-0.0,-0.0,-0.0,-0.0,-0.0,-0.0,-0.0,-0.0,-0.0,-0.0,-0.0,-0.0,-0.0,-0.0,-0.0,-0.0,-0.0,-0.0,-0.0,-0.0,-0.0,-0.0,-0.0,-0.0,-0.0,-0.0,-0.0,-0.0,-0.0,-0.0,-0.0,-0.0,-0.0,-0.0,-0.0,-0.0,-0.0,-0.0,-0.0,-0.0,-0.0,-0.0,-0.0,-0.0,-0.0,-0.0,-0.0,-0.0,-0.0,-0.0,-0.0,-0.0,-0.0,-0.0,-0.0,-0.0,-0.0,-0.0,-0.0,-0.0,-0.0,-0.0,-0.0,-0.0,-0.0,-0.0,-0.0,-0.0,-0.0,-0.0,-0.0,-0.0,-0.0,-0.0,-0.0,-0.0,-0.018,-0.3936,-0.8782,0.0,0.0,0.0,0.0,0.5745,0.0,0.0,0.0,0.483,0.467,0.0,0.0,0.0,0.0,0.0,0.0,0.0,0.0,0.0,0.0,0.0,0.0,0.0,0.0,0.0,0.0,0.0,-0.0,-0.0,-0.0,-0.0,-0.0,-0.0,-0.0,-0.0,-0.0,-0.0,-0.0,-0.0,-0.0,-0.0,-0.0,-0.0,-0.0,-0.0,-0.0,-0.0,-0.0,-0.0,-0.0,-0.0,-0.0,-0.0,-0.0,-0.0,-0.0,-0.0,-0.0,-0.0,-0.0,-0.0,-0.0,-0.0,-0.0,-0.0,-0.0,-0.0,-0.0,-0.0,-0.0,-0.0,-0.0,-0.0,-0.0,-0.0,-0.0,-0.0,-0.0,-0.0,-0.0,-0.0,-0.0,-0.0,-0.0,-0.0,-0.0,-0.0,-0.0,-0.0,-0.0,-0.0,-0.0,-0.0,-0.0,-0.0,-0.0,-0.0,-0.0,-0.0,-0.0,-0.0,-0.0,-0.0,-0.0,-0.0,-0.0,-0.0,-0.0,-0.0,-0.0,-0.0537,-0.5733,0.0,0.0,0.0,0.0,0.0,0.0,0.4904,0.0,0.4646,0.0,0.0,0.0,0.0,0.0,0.0,0.0,0.0,0.0,0.0,0.0,0.0,0.0,0.0,0.0,0.0,0.0,0.0,0.0,0.0,-0.0,-0.0,-0.0,-0.0,-0.0,-0.0,-0.0,-0.0,-0.0,-0.0,-0.0,-0.0,-0.0,-0.0,-0.0,-0.0,-0.0,-0.0,-0.0,-0.0,-0.0,-0.0,-0.0,-0.0,-0.0,-0.0,-0.0,-0.0,-0.0,-0.0,-0.0,-0.0,-0.0,-0.0,-0.0,-0.0,-0.0,-0.0,-0.0,-0.0,-0.0,-0.0,-0.0,-0.0,-0.0,-0.0,-0.0,-0.0,-0.0,-0.0,-0.0,-0.0,-0.0,-0.0,-0.0,-0.0,-0.0,-0.0,-0.0,-0.0,-0.0,-0.0,-0.0,-0.0,-0.0,-0.0,-0.0,-0.0,-0.0,-0.0,-0.0,-0.0,-0.0,-0.0,-0.0,-0.0,-0.0,-0.0,-0.0,-0.2872,-0.8269,-0.537,-0.4829,0.6756,0.0,0.0,0.0,0.0,0.0,0.0,0.0,0.0,0.0,0.0,0.0,0.0,0.0,0.0,0.5108,0.0,0.0,0.0,0.0,0.0,0.0,0.0,0.0,0.0,0.0,0.0,0.0,0.0,0.0,0.0102,-0.0,-0.0,-0.0,-0.0,-0.0,-0.0,-0.0,-0.0,-0.0,-0.0,-0.0,-0.0,-0.0,-0.0,-0.0,-0.0,-0.0,-0.0,-0.0,-0.0,-0.0,-0.0,-0.0,-0.0,-0.0,-0.0,-0.0,-0.0,-0.0,-0.0,-0.0,-0.0,-0.0,-0.0,-0.0,-0.0,-0.0,-0.0,-0.0,-0.0,-0.0,-0.0,-0.0,-0.0,-0.0,-0.0,-0.0,-0.0,-0.0,-0.0,-0.0,-0.0,-0.0,-0.0,-0.0,-0.0,-0.0,-0.0,-0.0,-0.0,-0.0,-0.0,-0.0,-0.0,-0.0,-0.0,-0.0,-0.0,-0.0,-0.0,-0.0,-0.0,-0.0,-0.0,-0.0,-0.0,-0.0,-0.4848,-1.4276,-1.0773,-0.716,0.0,0.0,0.0,0.6064,0.0,0.0,0.0,0.0,0.525,0.0,0.0,0.0,0.0,0.5562,0.5467,0.5176,0.5135,0.0,0.0,0.0,0.0,0.0,0.0,0.0,0.0,0.0,0.0,0.0,0.0,0.0,0.03,-0.0,-0.0,-0.0,-0.0,-0.0,-0.0,-0.0,-0.0,-0.0,-0.0,-0.0,-0.0,-0.0,-0.0,-0.0,-0.0,-0.0,-0.0,-0.0,-0.0,-0.0,-0.0,-0.0,-0.0,-0.0,-0.0,-0.0,-0.0,-0.0,-0.0,-0.0,-0.0,-0.0,-0.0,-0.0,-0.0,-0.0,-0.0,-0.0,-0.0,-0.0,-0.0,-0.0,-0.0,-0.0,-0.0,-0.0,-0.0,-0.0,-0.0,-0.0,-0.0,-0.0,-0.0,-0.0,-0.0,-0.0,-0.0,-0.0,-0.0,-0.0,-0.0,-0.0,-0.0,-0.0,-0.0,-0.0,-0.0,-0.0,-0.0,-0.0,-0.0,-0.0,-0.0,-0.0,-0.0,-0.0,-0.4848,-1.4276,-1.409,-1.4071,0.0,0.0,0.7461,0.6607,0.0,0.0,0.0,0.0,0.0,0.0,0.0,0.0,0.0,0.5508,0.5406,0.5298,0.5196,0.5047,0.0,0.0,0.0,0.0,0.0,0.0,0.0,0.0,0.0,0.0,0.0,0.0,0.0,0.1921,-0.0,-0.0,-0.0,-0.0,-0.0,-0.0,-0.0,-0.0,-0.0,-0.0,-0.0,-0.0,-0.0,-0.0,-0.0,-0.0,-0.0,-0.0,-0.0,-0.0,-0.0,-0.0,-0.0,-0.0,-0.0,-0.0,-0.0,-0.0,-0.0,-0.0,-0.0,-0.0,-0.0,-0.0,-0.0,-0.0,-0.0,-0.0,-0.0,-0.0,-0.0,-0.0,-0.0,-0.0,-0.0,-0.0,-0.0,-0.0,-0.0,-0.0,-0.0,-0.0,-0.0,-0.0,-0.0,-0.0,-0.0,-0.0,-0.0,-0.0,-0.0,-0.0,-0.0,-0.0,-0.0,-0.0,-0.0,-0.0,-0.0,-0.0,-0.0,-0.0,-0.0,-0.3052,-0.9536,-0.3052,-0.4843,-1.4242,-1.4263,-1.4256,0.7692,0.774,0.0,0.0,0.6641,0.0,0.5542,0.0,0.0,0.0,0.0,0.0,0.0,0.584,0.5596,0.5596,0.5338,0.5006,0.0,0.0,0.0,0.0,0.0,0.0,0.0,0.0,0.639,0.7156,0.0,0.0,0.0,0.0,0.1942,0.0106,-0.0,-0.0,-0.0,-0.0,-0.0,-0.0,-0.0,-0.0,-0.0,-0.0,-0.0,-0.0,-0.0,-0.0,-0.0,-0.0,-0.0,-0.0,-0.0,-0.0,-0.0,-0.0,-0.0,-0.0,-0.0,-0.0,-0.0,-0.0,-0.0,-0.0,-0.0,-0.0,-0.0,-0.0,-0.0,-0.0,-0.0,-0.0,-0.0,-0.0,-0.0,-0.0,-0.0,-0.0,-0.0,-0.0,-0.0,-0.0,-0.0,-0.0,-0.0,-0.0,-0.0,-0.0,-0.0,-0.0,-0.0,-0.0,-0.0,-0.0,-0.0,-0.0,-0.0,-0.0,-0.0,-0.0,-0.0,-0.0,-0.0,-0.0,-0.0,-0.3052,-0.9173,-0.6473,-0.8273,-1.4256,-1.2604,-1.1682]},{"header":{"parameterUnit":"m.s-1","parameterCategory":1,"la1":30.6,"la2":29.2853,"lo1":-89.7004,"lo2":-87.6739,"dy":0.0162,"dx":0.0183,"nx":112,"ny":82,"refTime":"2024-12-31T06:00:00:Z","depth":0,"parameterNumber":3,"parameterNumberName":"V-component_of_WINDS"},"data":[0.0,0.0,0.0,0.0,0.0,0.0,0.0,0.0,0.0,0.0,0.0,0.0,0.0,0.0,0.0,0.0,0.0,0.0,0.0,0.0,0.0,0.0,0.0,0.0,0.0,0.0,0.0,0.0,0.0,0.0,0.0,0.0,0.0,0.0,0.0,0.0,0.0,0.0,0.0,0.0,0.0,0.0,0.0,0.0,0.0,0.0,0.0,0.0,0.0,0.0,0.0,0.0,0.0,0.0,0.0,0.0,0.0,0.0,0.0,0.0,0.0,0.0,0.0,0.0,0.0,0.0,0.0,0.0,0.0,0.0,0.0,0.0,0.0,0.0,0.0,0.0,0.0,0.0,0.0,0.0,0.0,0.0,0.0,0.0,0.0,0.0,0.0,0.0,0.0,0.0,0.0,-3.6181,-3.88,-4.0137,-3.92,-3.9237,-3.7487,-3.3226,0.0,0.0,0.0,0.0,0.0,0.0,0.0,0.0,0.0,0.0,0.0,0.0,0.0,0.0,0.0,0.0,0.0,0.0,0.0,0.0,0.0,0.0,0.0,0.0,0.0,0.0,0.0,0.0,0.0,0.0,0.0,0.0,0.0,0.0,0.0,0.0,0.0,0.0,0.0,0.0,0.0,0.0,0.0,0.0,0.0,0.0,0.0,0.0,0.0,0.0,0.0,0.0,0.0,0.0,0.0,0.0,0.0,0.0,0.0,0.0,0.0,0.0,0.0,0.0,0.0,0.0,0.0,0.0,0.0,0.0,0.0,0.0,0.0,0.0,0.0,0.0,0.0,0.0,0.0,0.0,0.0,0.0,0.0,0.0,0.0,0.0,0.0,0.0,0.0,0.0,0.0,0.0,0.0,0.0,0.0,0.0,0.0,0.0,0.0,0.0,0.0,0.0,0.0,0.0,-3.4107,-3.833,-3.9815,-4.0431,-4.0284,-3.9646,-3.807,-3.5235,0.0,0.0,0.0,0.0,0.0,0.0,0.0,0.0,0.0,0.0,0.0,0.0,0.0,0.0,0.0,0.0,0.0,0.0,0.0,0.0,0.0,0.0,0.0,0.0,0.0,0.0,0.0,0.0,0.0,0.0,0.0,0.0,0.0,0.0,0.0,0.0,0.0,0.0,0.0,0.0,0.0,0.0,0.0,0.0,0.0,0.0,0.0,0.0,0.0,0.0,0.0,0.0,0.0,0.0,0.0,0.0,0.0,0.0,0.0,0.0,0.0,0.0,0.0,0.0,0.0,0.0,0.0,0.0,0.0,0.0,0.0,0.0,0.0,0.0,0.0,0.0,0.0,0.0,0.0,0.0,0.0,0.0,0.0,0.0,0.0,0.0,0.0,0.0,0.0,0.0,0.0,0.0,0.0,0.0,0.0,0.0,0.0,0.0,0.0,0.0,0.0,0.0,0.0,-3.3749,-3.5469,-3.9523,-4.0277,-4.0508,-4.0508,-3.9738,-3.82,-3.5661,-3.3122,0.0,0.0,0.0,0.0,0.0,0.0,0.0,0.0,0.0,0.0,0.0,0.0,0.0,0.0,0.0,0.0,0.0,0.0,0.0,0.0,0.0,0.0,0.0,0.0,0.0,0.0,0.0,0.0,0.0,0.0,0.0,0.0,0.0,0.0,0.0,0.0,0.0,0.0,0.0,0.0,0.0,0.0,0.0,0.0,0.0,0.0,0.0,0.0,0.0,0.0,0.0,0.0,0.0,0.0,0.0,0.0,0.0,0.0,0.0,0.0,0.0,0.0,0.0,0.0,0.0,0.0,0.0,0.0,0.0,0.0,0.0,0.0,0.0,0.0,0.0,0.0,0.0,0.0,0.0,0.0,0.0,0.0,0.0,0.0,0.0,0.0,0.0,0.0,0.0,0.0,0.0,0.0,0.0,0.0,0.0,0.0,0.0,0.0,0.0,0.0,0.0,0.0,-3.6301,-3.7507,-4.02,-4.0508,-4.0508,-4.0508,-3.9392,-3.77,-3.5353,-3.2622,0.0,0.0,0.0,0.0,0.0,0.0,0.0,0.0,0.0,0.0,0.0,0.0,0.0,0.0,0.0,0.0,0.0,0.0,0.0,0.0,0.0,0.0,0.0,0.0,0.0,0.0,0.0,0.0,0.0,0.0,0.0,0.0,0.0,0.0,0.0,0.0,0.0,0.0,0.0,0.0,0.0,0.0,0.0,0.0,0.0,0.0,0.0,0.0,0.0,0.0,0.0,0.0,0.0,0.0,0.0,0.0,0.0,0.0,0.0,0.0,0.0,0.0,0.0,0.0,0.0,0.0,0.0,0.0,0.0,0.0,0.0,0.0,0.0,0.0,0.0,0.0,0.0,0.0,0.0,0.0,0.0,0.0,0.0,0.0,0.0,0.0,0.0,0.0,0.0,0.0,0.0,0.0,0.0,0.0,0.0,0.0,0.0,0.0,0.0,0.0,0.0,0.0,-3.6699,-3.9431,-4.0392,-4.0508,-4.0508,-4.0508,-3.8277,-3.6161,-3.4391,-3.1121,0.0,0.0,0.0,0.0,0.0,0.0,0.0,0.0,0.0,0.0,0.0,0.0,0.0,0.0,0.0,0.0,0.0,0.0,0.0,0.0,0.0,0.0,0.0,0.0,0.0,0.0,0.0,0.0,0.0,0.0,0.0,0.0,0.0,0.0,0.0,0.0,0.0,0.0,0.0,0.0,0.0,0.0,0.0,0.0,0.0,0.0,0.0,0.0,0.0,0.0,0.0,0.0,0.0,0.0,0.0,0.0,0.0,0.0,0.0,0.0,0.0,0.0,0.0,0.0,0.0,0.0,0.0,0.0,0.0,0.0,0.0,0.0,0.0,0.0,0.0,0.0,0.0,0.0,0.0,0.0,0.0,0.0,0.0,0.0,0.0,0.0,0.0,0.0,0.0,0.0,0.0,0.0,0.0,0.0,0.0,0.0,0.0,0.0,0.0,0.0,0.0,0.0,-3.5797,-3.8392,0.0,-4.0508,-4.0508,-4.0508,-3.9161,-3.7123,-3.4353,0.0,0.0,0.0,0.0,0.0,0.0,0.0,0.0,0.0,0.0,0.0,0.0,0.0,0.0,0.0,0.0,0.0,0.0,0.0,0.0,0.0,0.0,0.0,0.0,0.0,0.0,0.0,0.0,0.0,0.0,0.0,0.0,0.0,0.0,0.0,0.0,0.0,0.0,0.0,0.0,0.0,0.0,0.0,0.0,0.0,0.0,0.0,0.0,0.0,0.0,0.0,0.0,0.0,0.0,0.0,0.0,0.0,0.0,0.0,0.0,0.0,0.0,0.0,0.0,0.0,0.0,0.0,0.0,0.0,0.0,0.0,0.0,0.0,0.0,0.0,0.0,0.0,0.0,0.0,0.0,0.0,0.0,0.0,0.0,0.0,0.0,0.0,0.0,0.0,0.0,0.0,0.0,0.0,0.0,0.0,0.0,0.0,0.0,0.0,0.0,0.0,0.0,-3.3632,-3.6481,-3.9084,0.0,-4.1085,-4.0893,-4.0893,-3.9161,-3.6853,-3.3968,0.0,0.0,0.0,0.0,0.0,0.0,0.0,0.0,0.0,0.0,0.0,0.0,0.0,0.0,0.0,0.0,0.0,0.0,0.0,0.0,0.0,0.0,0.0,0.0,0.0,0.0,0.0,0.0,0.0,0.0,0.0,0.0,0.0,0.0,0.0,0.0,0.0,0.0,0.0,0.0,0.0,0.0,0.0,0.0,0.0,0.0,0.0,0.0,0.0,0.0,0.0,0.0,0.0,0.0,0.0,0.0,0.0,0.0,0.0,0.0,0.0,0.0,0.0,0.0,0.0,0.0,0.0,0.0,0.0,0.0,0.0,0.0,0.0,0.0,0.0,0.0,0.0,0.0,0.0,0.0,0.0,0.0,0.0,0.0,0.0,0.0,0.0,0.0,0.0,0.0,0.0,0.0,0.0,0.0,0.0,0.0,0.0,0.0,0.0,0.0,0.0,0.0,-3.5484,-3.926,-4.2124,-4.3008,-4.2316,-4.1816,-4.1816,-3.7969,-3.4776,0.0,0.0,0.0,0.0,0.0,0.0,0.0,0.0,0.0,0.0,0.0,0.0,0.0,0.0,0.0,0.0,0.0,0.0,0.0,0.0,0.0,0.0,0.0,0.0,0.0,0.0,0.0,0.0,0.0,0.0,0.0,0.0,0.0,0.0,0.0,0.0,0.0,0.0,0.0,0.0,0.0,0.0,0.0,0.0,0.0,0.0,0.0,0.0,0.0,0.0,0.0,0.0,0.0,0.0,0.0,0.0,0.0,0.0,0.0,0.0,0.0,0.0,0.0,0.0,0.0,0.0,0.0,0.0,0.0,0.0,0.0,0.0,0.0,0.0,0.0,0.0,0.0,0.0,0.0,0.0,0.0,0.0,0.0,0.0,0.0,0.0,0.0,0.0,0.0,0.0,0.0,0.0,0.0,0.0,0.0,0.0,0.0,0.0,0.0,0.0,0.0,0.0,0.0,-3.5484,-3.926,-4.2124,-4.3008,-4.2854,-4.247,-4.1854,-3.9585,-3.6661,-3.3122,0.0,0.0,0.0,0.0,0.0,0.0,0.0,0.0,0.0,0.0,0.0,0.0,0.0,0.0,0.0,0.0,0.0,0.0,0.0,0.0,0.0,0.0,0.0,0.0,0.0,0.0,0.0,0.0,0.0,0.0,0.0,0.0,0.0,0.0,0.0,0.0,0.0,0.0,0.0,0.0,0.0,0.0,0.0,0.0,0.0,0.0,0.0,0.0,0.0,0.0,0.0,0.0,0.0,0.0,0.0,0.0,0.0,0.0,0.0,0.0,0.0,0.0,0.0,0.0,0.0,0.0,0.0,0.0,0.0,0.0,0.0,0.0,0.0,0.0,0.0,0.0,0.0,0.0,0.0,0.0,0.0,0.0,0.0,0.0,0.0,0.0,0.0,0.0,0.0,0.0,0.0,0.0,0.0,0.0,0.0,0.0,0.0,0.0,0.0,0.0,0.0,0.0,-3.6435,-4.0274,-4.3124,-4.4008,-4.3778,-4.3355,-4.2854,-4.0931,-3.8123,-3.4199,0.0,0.0,0.0,0.0,0.0,0.0,0.0,0.0,0.0,0.0,0.0,0.0,0.0,0.0,0.0,0.0,0.0,0.0,0.0,0.0,0.0,0.0,0.0,0.0,0.0,0.0,0.0,0.0,0.0,0.0,0.0,0.0,0.0,0.0,0.0,0.0,0.0,0.0,0.0,0.0,0.0,0.0,0.0,0.0,0.0,0.0,0.0,0.0,0.0,0.0,0.0,0.0,0.0,0.0,0.0,0.0,0.0,0.0,0.0,0.0,0.0,0.0,0.0,0.0,0.0,0.0,0.0,0.0,0.0,0.0,0.0,0.0,0.0,0.0,0.0,0.0,0.0,0.0,0.0,0.0,0.0,0.0,0.0,0.0,0.0,0.0,0.0,0.0,0.0,0.0,0.0,0.0,0.0,0.0,0.0,0.0,0.0,0.0,0.0,0.0,0.0,0.0,-3.7846,-4.175,-4.4624,-4.5509,-4.4893,-4.4393,-4.4316,-4.2124,-3.9315,-3.593,0.0,0.0,0.0,0.0,0.0,0.0,0.0,0.0,0.0,0.0,0.0,0.0,0.0,0.0,0.0,0.0,0.0,0.0,0.0,0.0,0.0,0.0,0.0,0.0,0.0,0.0,0.0,0.0,0.0,0.0,0.0,0.0,0.0,0.0,0.0,0.0,0.0,0.0,0.0,0.0,0.0,0.0,0.0,0.0,0.0,0.0,0.0,0.0,0.0,0.0,0.0,0.0,0.0,0.0,0.0,0.0,0.0,0.0,0.0,0.0,-2.8791,0.0,0.0,0.0,0.0,0.0,0.0,0.0,0.0,0.0,0.0,0.0,0.0,0.0,0.0,0.0,0.0,0.0,0.0,0.0,0.0,0.0,0.0,0.0,0.0,0.0,0.0,0.0,0.0,0.0,0.0,0.0,0.0,0.0,0.0,0.0,0.0,0.0,0.0,0.0,0.0,0.0,-3.7874,-4.1771,-4.4624,-4.5509,-4.5432,-4.5047,-4.4355,-4.3201,-4.1085,-3.77,-3.5084,0.0,0.0,0.0,0.0,0.0,0.0,0.0,0.0,0.0,0.0,0.0,0.0,0.0,0.0,0.0,0.0,0.0,0.0,0.0,0.0,0.0,0.0,0.0,0.0,0.0,0.0,0.0,0.0,0.0,0.0,0.0,0.0,0.0,0.0,0.0,0.0,0.0,0.0,0.0,0.0,0.0,0.0,0.0,0.0,0.0,0.0,0.0,0.0,0.0,0.0,0.0,0.0,0.0,0.0,0.0,0.0,0.0,0.0,0.0,0.0,-3.0606,0.0,0.0,0.0,0.0,0.0,0.0,0.0,0.0,0.0,0.0,0.0,0.0,0.0,0.0,0.0,0.0,0.0,0.0,0.0,0.0,0.0,0.0,0.0,0.0,0.0,0.0,0.0,0.0,0.0,0.0,0.0,0.0,0.0,0.0,0.0,0.0,0.0,0.0,0.0,0.0,-3.8438,-4.2364,-4.5086,-4.5547,-4.5586,-4.5432,-4.497,-4.4162,-4.2585,-4.0008,-3.743,0.0,0.0,0.0,0.0,0.0,0.0,0.0,0.0,0.0,0.0,0.0,0.0,0.0,0.0,0.0,0.0,0.0,0.0,0.0,0.0,0.0,0.0,0.0,0.0,0.0,0.0,0.0,0.0,0.0,0.0,0.0,0.0,0.0,0.0,0.0,0.0,0.0,0.0,0.0,0.0,0.0,0.0,0.0,0.0,0.0,0.0,0.0,0.0,0.0,0.0,0.0,0.0,0.0,0.0,0.0,-3.5776,-3.732,-3.8071,-3.8077,-3.5995,-3.4689,-3.3877,0.0,0.0,0.0,0.0,0.0,0.0,0.0,0.0,0.0,0.0,0.0,0.0,0.0,0.0,0.0,0.0,0.0,0.0,0.0,0.0,0.0,0.0,0.0,0.0,0.0,-3.9414,-3.9336,0.0,0.0,0.0,0.0,0.0,0.0,0.0,0.0,0.0,0.0,0.0,0.0,-3.9307,-4.3129,-4.5586,-4.5586,-4.5586,-4.5586,-4.5586,-4.4932,-4.3855,-4.2316,-4.0008,-3.7969,0.0,0.0,0.0,0.0,0.0,0.0,0.0,0.0,0.0,0.0,0.0,0.0,0.0,0.0,0.0,0.0,0.0,0.0,0.0,0.0,0.0,0.0,0.0,0.0,0.0,0.0,0.0,0.0,0.0,0.0,0.0,0.0,-2.7428,-2.7544,0.0,0.0,0.0,0.0,0.0,0.0,0.0,0.0,0.0,0.0,0.0,0.0,0.0,0.0,-3.3948,-3.6331,-3.7475,-3.745,-4.0029,-4.0853,-4.0177,-4.1183,-4.1643,-4.1757,-4.2146,0.0,-3.6713,-3.5741,0.0,0.0,0.0,0.0,0.0,0.0,0.0,0.0,0.0,0.0,0.0,0.0,0.0,0.0,0.0,0.0,0.0,0.0,0.0,0.0,0.0,0.0,-4.3435,-4.207,-4.2461,-4.2812,0.0,-3.8281,-3.5405,-3.4032,0.0,0.0,0.0,0.0,0.0,0.0,0.0,0.0,-4.0104,-4.3475,-4.5586,-4.5586,-4.5586,-4.5586,-4.5586,-4.547,-4.5009,-4.4047,-4.2277,-4.0854,-3.9892,-3.6738,0.0,0.0,0.0,0.0,0.0,0.0,0.0,0.0,0.0,0.0,0.0,0.0,0.0,0.0,0.0,0.0,0.0,0.0,0.0,0.0,0.0,0.0,0.0,0.0,0.0,0.0,0.0,0.0,0.0,-2.6659,-2.7736,-2.7236,-2.7582,-2.7544,0.0,0.0,0.0,0.0,0.0,0.0,0.0,0.0,0.0,-3.4622,-3.5204,-3.6332,-3.8063,-3.9685,-4.0461,-4.048,-4.2576,-4.3414,-4.3226,-4.4045,-4.4492,-4.4609,-4.5,-4.3828,-4.1484,-3.9687,-3.7891,-3.6211,0.0,0.0,0.0,0.0,0.0,0.0,-3.7602,0.0,0.0,0.0,0.0,0.0,0.0,0.0,0.0,0.0,0.0,0.0,0.0,0.0,0.0,-4.4531,-4.4883,-4.5032,-4.4565,-4.2617,-4.0082,0.0,-3.6781,-3.5699,-3.1939,0.0,0.0,0.0,0.0,0.0,-4.1728,-4.4107,-4.5586,-4.5586,-4.5586,-4.5586,-4.5586,-4.5586,-4.5432,-4.5047,-4.3893,-4.3047,-4.2662,-3.9854,-3.7507,0.0,0.0,0.0,0.0,0.0,0.0,0.0,0.0,0.0,0.0,0.0,0.0,0.0,0.0,0.0,0.0,0.0,0.0,0.0,0.0,0.0,0.0,0.0,0.0,0.0,0.0,0.0,0.0,-2.8198,-2.8544,-2.7698,-2.8736,-2.889,0.0,0.0,0.0,0.0,0.0,0.0,-3.3288,-3.4853,-3.6498,-3.8234,-3.8947,-4.0163,-4.193,-4.2554,-4.2944,-4.3183,-4.4499,-4.5173,-4.5281,-4.5893,-4.6216,-4.6289,-4.6289,-4.5937,-4.5156,-4.2812,-4.0937,-3.9492,-3.8633,-3.7851,0.0,-3.8984,-3.9114,-3.8942,-4.175,-4.2344,-4.1758,-4.1328,0.0,-4.0195,-3.8242,0.0,0.0,0.0,0.0,-4.0677,-4.2793,0.0,-4.5258,-4.6549,-4.6861,-4.6821,-4.6731,-4.6172,-4.452,0.0,-4.0488,-3.9552,-3.4841,0.0,0.0,0.0,0.0,-4.1925,-4.3838,-4.5163,-4.6009,-4.6201,-4.5855,-4.5701,-4.5893,-4.574,-4.5701,-4.5932,-4.5124,-4.4739,-4.497,-4.2701,-4.0662,-3.9008,0.0,0.0,0.0,0.0,0.0,0.0,0.0,0.0,0.0,0.0,0.0,0.0,0.0,0.0,0.0,0.0,0.0,0.0,0.0,0.0,0.0,0.0,0.0,0.0,0.0,0.0,0.0,0.0,0.0,-3.0302,-3.2391,0.0,0.0,0.0,0.0,-3.266,-3.4327,-3.6087,-3.777,-3.8799,-4.0177,-4.1956,-4.2047,-4.2965,-4.4765,-4.4843,-4.5273,-4.6093,-4.6171,-4.621,-4.6248,-4.6287,-4.6288,-4.6289,-4.6289,-4.6289,-4.6094,-4.4297,-4.3047,-4.2148,-4.1328,-4.0976,-4.1055,-4.1875,-4.2187,-4.2265,-4.3281,-4.3594,-4.3711,-4.4492,-4.3633,-4.2266,-4.2109,-4.0976,0.0,0.0,-4.2693,-4.4709,-4.5667,-4.7066,-4.8292,-4.837,-4.8409,-4.8399,-4.837,-4.8237,-4.7355,0.0,-4.2948,-4.1546,-4.0292,0.0,-3.9623,-4.12,-4.2316,-4.3893,-4.6394,-4.6778,-4.7124,-4.7894,-4.6547,-4.5932,-4.6778,-4.6086,-4.5932,-4.6778,-4.6009,-4.5893,-4.674,-4.5047,-4.3316,-4.1662,-3.9046,0.0,0.0,0.0,0.0,0.0,0.0,0.0,0.0,0.0,0.0,0.0,0.0,0.0,0.0,0.0,0.0,0.0,0.0,0.0,0.0,0.0,0.0,0.0,0.0,0.0,0.0,0.0,0.0,-3.2814,-3.4122,0.0,0.0,-3.3776,-3.4982,-3.6934,-3.818,-3.9419,-4.0626,-4.2176,-4.3288,-4.3959,-4.4565,-4.5171,-4.582,-4.5859,-4.5976,-4.6289,-4.6289,-4.6289,-4.6289,-4.6289,-4.6289,-4.6289,-4.6289,-4.6289,-4.625,-4.5625,-4.5195,-4.4883,-4.4609,-4.4492,-4.4531,-4.4805,-4.5273,-4.5781,-4.6094,-4.6211,-4.625,-4.6562,-4.625,-4.5859,-4.6406,-4.6172,-4.5735,-4.5978,-4.6661,-4.7377,-4.7569,-4.8064,-4.8508,-4.8508,-4.8508,-4.8485,-4.8385,-4.8347,-4.7991,-4.7009,-4.6317,-4.5278,-4.3278,-4.4085,-4.4624,-4.3585,-4.5086,-4.6663,-4.7548,-4.7663,-4.7778,-4.8086,-4.7586,-4.7317,-4.7663,-4.6894,-4.6586,-4.6894,-4.6086,-4.574,-4.6047,-4.547,-4.4586,-4.3431,-4.1524,-3.8638,0.0,0.0,0.0,0.0,0.0,0.0,0.0,0.0,0.0,0.0,0.0,0.0,0.0,0.0,0.0,0.0,0.0,0.0,0.0,0.0,0.0,0.0,0.0,0.0,0.0,0.0,-3.4737,-3.5007,-3.6584,-3.7315,-3.6483,-3.7175,-3.8537,-4.0607,-4.1585,-4.251,-4.3402,-4.4676,-4.5385,-4.5385,-4.5987,-4.6289,-4.6289,-4.6289,-4.6289,-4.6289,-4.6289,-4.6445,-4.6758,-4.6758,-4.6914,-4.7187,-4.7187,-4.7187,-4.7187,-4.7187,-4.7187,-4.7148,-4.6836,-4.6914,-4.7187,-4.7187,-4.7539,-4.8047,-4.8047,-4.8047,-4.8047,-4.8047,-4.8047,-4.8164,-4.8711,-4.8906,-4.8899,-4.8787,-4.891,-4.9048,-4.8971,-4.9087,-4.924,-4.924,-4.924,-4.9202,-4.9106,-4.9298,-4.949,-4.9394,-4.8702,-4.7548,-4.5855,-4.6971,-4.7625,-4.624,-4.7471,-4.8625,-4.8933,-4.8702,-4.8663,-4.8933,-4.8471,-4.824,-4.8509,-4.7548,-4.7009,-4.7278,-4.624,-4.574,-4.6009,-4.574,-4.5316,-4.4739,-4.2911,-4.0433,-3.7269,0.0,0.0,0.0,0.0,0.0,0.0,0.0,0.0,0.0,0.0,0.0,0.0,0.0,0.0,0.0,0.0,0.0,0.0,0.0,0.0,0.0,0.0,0.0,-3.4314,-3.6469,-3.7777,-3.7007,-3.9815,-4.0947,-3.8618,-4.0622,-4.2472,-4.3397,-4.4392,-4.5279,-4.6078,-4.6242,-4.6289,-4.6289,-4.6289,-4.6328,-4.6328,-4.6328,-4.6367,-4.6367,-4.6367,-4.6836,-4.7656,-4.7656,-4.8086,-4.8906,-4.8906,-4.8906,-4.8906,-4.8906,-4.8906,-4.8867,-4.7969,-4.8164,-4.8906,-4.8906,-4.8906,-4.8945,-4.8945,-4.8945,-4.8945,-4.8945,-4.8945,-4.8945,-4.8984,-4.8984,-4.9023,-4.9023,-4.9439,-4.9913,-4.9933,-5.0356,-5.0779,-5.0779,-5.0779,-5.0779,-5.0779,-5.1395,-5.1933,-5.1933,-4.9971,-4.8279,-4.8279,-4.8279,-4.8548,-4.9356,-4.9471,0.0,-5.0587,-4.9971,-4.974,-5.0587,-4.9202,-4.8509,-4.9356,-4.7894,-4.7278,-4.8048,-4.6509,-4.597,-4.6817,-4.6086,-4.5624,-4.5624,-4.3245,-4.1555,-4.0641,0.0,0.0,0.0,0.0,0.0,0.0,0.0,0.0,0.0,0.0,0.0,0.0,0.0,0.0,0.0,0.0,0.0,0.0,0.0,0.0,0.0,0.0,-3.6969,-3.6969,-3.8584,-4.02,-4.1239,-4.2217,-4.281,-4.2771,-4.3504,-4.4354,-4.5307,-4.5599,-4.5918,-4.6226,-4.6282,-4.6289,-4.6289,-4.6289,-4.6601,-4.7226,-4.7226,-4.7578,-4.8203,-4.8203,-4.832,-4.8555,-4.8555,-4.8672,-4.8906,-4.8906,-4.8906,-4.8906,-4.8906,-4.9258,-4.9766,-4.8867,-4.8672,-4.8906,-4.8906,-4.9297,-4.9844,-4.9844,-4.9844,-4.9844,-4.9844,-4.9844,-4.9961,-5.0547,-5.1133,-5.1641,-5.1523,-5.2097,-5.266,-5.2597,-5.2589,-5.2646,-5.2646,-5.2569,-5.251,-5.251,-5.2702,-5.2856,-5.2856,-5.2279,-5.1818,-5.1818,-5.1818,-5.1664,-5.1279,0.0,0.0,-5.0741,-5.0471,-5.0433,-5.0664,-5.0279,-5.0087,-5.0317,-4.8779,-4.7855,0.0,-4.6509,-4.5701,-4.5932,-4.6317,-4.6565,-4.6621,-4.4696,-4.3047,0.0,0.0,0.0,0.0,0.0,0.0,0.0,0.0,0.0,0.0,0.0,0.0,0.0,0.0,0.0,0.0,0.0,0.0,0.0,0.0,0.0,0.0,-3.7862,-3.9854,-4.0546,-4.147,-4.247,-4.3564,-4.4025,-4.4542,-4.5103,-4.5258,-4.5526,-4.6134,-4.6173,-4.6371,-4.6835,-4.6836,-4.6992,-4.7383,-4.7383,-4.7617,-4.8125,-4.8125,-4.8398,-4.8906,-4.8906,-4.9101,-4.9453,-4.9453,-4.9648,0.0,-4.9961,-4.9961,-4.9961,-4.9961,-5.0234,0.0,0.0,0.0,0.0,0.0,-5.0273,-5.0703,-5.0703,-5.0937,-5.125,-5.125,-5.1449,-5.1793,-5.226,-5.2721,-5.3045,-5.2967,-5.3273,-5.3613,-5.3549,-5.3435,-5.3338,-5.3338,-5.3241,-5.3203,-5.3203,-5.351,-5.3741,-5.3741,0.0,0.0,-5.4241,-5.3664,-5.3049,-5.251,-5.2433,-5.2279,0.0,-5.1741,-5.1741,-5.1741,-5.1741,-5.1587,-5.1241,-4.9971,0.0,0.0,0.0,-4.6663,-4.6663,-4.7124,0.0,0.0,0.0,0.0,0.0,0.0,0.0,0.0,-4.5753,-4.586,0.0,0.0,0.0,0.0,0.0,0.0,0.0,0.0,0.0,0.0,0.0,0.0,0.0,0.0,0.0,0.0,-4.0389,-4.2624,-4.4201,-4.4432,-4.4509,-4.4641,-4.5346,-4.5885,-4.6065,-4.6127,-4.6197,-4.6443,-4.6445,-4.6836,-4.7695,0.0,0.0,0.0,0.0,-4.8945,-4.9062,-4.9062,-4.9101,-4.918,-4.918,-4.9609,-5.0351,-5.0351,-5.0703,-5.1406,-5.1406,-5.1406,-5.1406,-5.1406,-5.1445,-5.1484,-5.0742,-5.0937,-5.1562,-5.1641,-5.168,0.0,0.0,0.0,0.0,-5.2845,-5.328,-5.3793,-5.3755,-5.3774,-5.3751,-5.3751,-5.3746,-5.372,-5.372,-5.3626,-5.351,-5.351,-5.351,-5.3472,-5.3472,-5.4087,-5.4626,-5.4626,-5.5203,-5.5703,-5.5703,-5.4472,-5.3433,-5.3356,-5.3356,0.0,-5.3203,-5.3203,-5.3203,-5.3203,0.0,0.0,-5.2125,-5.1318,-5.051,-4.974,-4.8856,-4.8432,-4.8509,-4.8625,-4.9048,-4.9817,-5.001,-5.1164,-5.3356,-5.3549,-5.4434,-5.5857,-5.0486,-4.9603,0.0,0.0,0.0,0.0,0.0,0.0,0.0,0.0,0.0,0.0,0.0,0.0,0.0,0.0,0.0,-4.0575,-4.2607,-4.4162,-4.5201,-4.5355,-4.5393,-4.5526,-4.5738,-4.5944,-4.61,-4.6191,-4.6549,-4.7304,-4.7344,-4.7734,-4.8594,-4.8633,0.0,-4.8906,-4.8906,-4.9258,-4.9922,-4.9961,-5.0273,-5.0937,0.0,0.0,-5.1172,-5.1172,-5.125,-5.1406,-5.1406,-5.1406,-5.1406,-5.1406,-5.1797,-5.2422,-5.2266,-5.2305,-5.2539,-5.3242,-5.3516,-5.3516,-5.3516,-5.3594,-5.3744,-5.3624,-5.3668,-5.3755,-5.3678,-5.4128,0.0,-5.4632,-5.5132,-5.5686,-5.5686,-5.5511,-5.5357,-5.5357,-5.528,-5.5203,-5.5203,-5.5357,-5.5472,-5.5472,-5.5588,-5.5703,-5.5703,-5.5434,-5.5011,-5.4357,-5.4241,-5.3972,-5.328,-5.3203,-5.3203,-5.3203,-5.3203,-5.3126,-5.2972,-5.2164,-5.1587,-5.1433,-5.0664,-5.0471,-5.1164,-5.1856,-5.2279,-5.2472,-5.378,-5.4395,-5.4241,-5.5588,-5.678,-5.7742,-5.5182,-5.472,0.0,0.0,0.0,0.0,0.0,0.0,0.0,0.0,0.0,0.0,0.0,-3.4117,-3.6339,0.0,-4.0085,-4.2624,-4.3739,-4.4586,-4.547,-4.5586,-4.5624,-4.5796,-4.5828,-4.6074,-4.6589,-4.6772,-4.7171,-4.7981,-4.8174,-4.8594,-4.9414,-4.9492,-4.9726,-5.0156,-5.0156,-5.0351,-5.0781,-5.0781,-5.1016,-5.1406,-5.1406,-5.1406,-5.1406,-5.1406,-5.1406,-5.1406,-5.1406,-5.1641,-5.207,-5.2539,-5.2969,-5.3398,-5.3828,-5.3711,-5.3398,-5.3828,-5.3984,-5.3984,-5.3984,-5.4297,-5.4638,-5.4503,-5.472,-5.4951,-5.4797,-5.4989,-5.5318,-5.5318,-5.5626,-5.6071,-5.6494,-5.6533,-5.6549,-5.7011,-5.7049,-5.7011,-5.7011,-5.6665,-5.6357,-5.6357,-5.6357,-5.6357,-5.6357,-5.6703,-5.6588,-5.528,-5.5088,-5.4934,-5.4511,-5.4434,-5.4434,-5.4434,-5.4434,-5.428,-5.3895,-5.3433,-5.3356,-5.378,-5.3433,-5.3395,-5.378,-5.4203,-5.4664,-5.5088,-5.5934,-5.6549,-5.7011,-5.7819,-5.8934,-6.0165,-5.9319,-5.9127,0.0,0.0,0.0,0.0,0.0,0.0,0.0,0.0,-3.2722,-3.3915,-3.5499,-3.7392,-3.9623,-4.07,-4.197,-4.4201,-4.4547,-4.4778,-4.5509,-4.5586,-4.5719,-4.5988,-4.6048,-4.6355,-4.7116,-4.7471,-4.7976,-4.874,-4.9036,-4.9478,-5.0234,-5.0351,-5.0742,-5.1367,-5.1406,-5.1406,-5.1406,-5.1562,-5.1641,-5.1641,-5.1836,-5.1914,-5.1914,-5.1914,-5.1914,-5.1914,-5.1914,-5.2305,-5.3008,-5.3906,-5.4258,-5.4336,-5.5195,-5.5117,-5.4492,-5.4492,-5.4492,-5.4492,-5.4492,-5.4961,-5.554,-5.5397,-5.5731,-5.6148,-5.5955,-5.5895,-5.5934,-5.5934,-5.6049,-5.6357,-5.7049,-5.7242,-5.7434,-5.8127,-5.8319,-5.8319,-5.8319,-5.7742,-5.7242,-5.7242,-5.7242,-5.7242,-5.7242,-5.7819,-5.7819,-5.6434,-5.6203,-5.6203,-5.6203,-5.6203,-5.6203,-5.6203,-5.6203,-5.5934,-5.528,-5.5241,-5.5511,-5.6165,-5.6203,-5.6203,-5.6203,-5.6357,-5.678,-5.7473,-5.7627,-5.8473,-6.0012,-6.0012,-6.0819,-6.232,-6.2512,-6.2474,-3.0467,-2.9779,-3.0076,-3.1467,-3.1618,-3.2531,0.0,0.0,-3.6556,-3.9077,-4.0377,-4.1431,-4.247,-4.3316,-4.4201,-4.5278,-4.5432,-4.547,-4.5586,-4.5586,-4.5911,-4.666,-4.6827,-4.6954,-4.7194,-4.8034,-4.8891,-4.9788,-4.9959,-5.0389,-5.121,-5.125,-5.1328,-5.1406,-5.1406,-5.1406,-5.1406,-5.2187,-5.2539,-5.2578,-5.3359,-5.3711,-5.3711,-5.3711,-5.3711,-5.3711,-5.3711,-5.375,-5.3906,-5.4805,-5.5156,-5.5234,-5.6094,-5.6406,-5.6328,-5.6328,-5.6328,-5.6328,-5.6328,-5.6367,-5.6445,-5.6282,-5.622,-5.6148,-5.5955,-5.6357,-5.6857,-5.6857,-5.7396,-5.805,-5.8127,-5.8165,-5.8165,-5.828,-5.8319,-5.8319,-5.8319,-5.8204,-5.8165,-5.8165,-5.8165,-5.8165,-5.8165,-5.8242,-5.8242,-5.805,-5.8011,-5.8011,-5.8011,-5.8011,-5.8011,-5.8011,-5.8011,-5.7973,-5.7896,-5.7857,-5.7896,-5.8011,-5.8011,-5.8011,-5.8011,-5.8704,-5.9127,-5.9204,-5.9973,-6.0858,-6.182,-6.182,-6.2281,-6.3166,-6.3974,-6.3897,-3.3293,-3.2821,-3.2959,-3.4093,-3.5526,-3.7141,-3.8877,-3.9423,-3.9852,-4.103,-4.2316,-4.3355,-4.3739,-4.447,-4.5163,0.0,-4.5586,-4.5624,-4.5719,-4.5624,-4.5757,-4.6219,-4.6645,-4.7355,-4.8369,-4.8951,-4.9586,-5.0467,-5.0689,-5.0927,-5.1264,-5.1371,-5.1406,-5.1406,-5.1875,-5.2148,-5.2148,-5.3008,-5.3476,-5.3476,-5.3828,-5.3984,-5.3984,-5.3984,-5.3984,-5.4023,-5.4531,-5.4765,-5.4805,-5.5703,-5.6055,-5.6094,-5.6445,-5.6601,-5.6601,-5.6601,-5.6601,-5.6601,-5.6601,-5.6914,-5.7344,-5.7187,-5.743,-5.7731,-5.7602,-5.773,-5.7978,-5.7896,-5.8165,-5.8511,-5.8896,-5.9011,-5.9127,-5.9627,-5.9742,-5.9742,-5.9742,-5.9358,-5.9011,-5.9011,-5.9011,-5.9011,-5.9011,-5.9435,-5.9742,-5.9742,-5.8934,-5.8319,-5.8319,-5.8319,-5.8319,-5.8319,-5.8319,-5.8511,-5.8973,-5.9011,-5.9204,-5.9704,-5.9742,-5.9742,-5.9742,-6.0089,-6.0242,-6.0242,-6.1089,-6.1743,-6.2089,-6.2551,-6.3243,-6.4089,-6.4936,-6.5397,-3.4529,-3.4801,-3.538,-3.6462,-3.88,-4.0816,-4.07,-4.1623,-4.2547,-4.2816,-4.3816,-4.4662,-4.4662,-4.5163,-4.5586,-4.5586,-4.5586,-4.5624,-4.5796,-4.568,-4.5719,-4.6103,-4.6588,-4.7568,-4.9255,-4.9528,-4.9962,-5.0901,-5.1125,-5.1215,-5.1269,-5.1352,-5.1406,-5.1406,-5.2266,-5.2695,-5.2695,-5.3789,-5.4375,-5.4375,-5.4609,-5.4726,-5.4726,-5.4726,-5.4726,-5.4765,-5.539,-5.5664,-5.5703,-5.6328,-5.6601,-5.6601,-5.6601,-5.6601,-5.6601,-5.6601,-5.6758,-5.6953,-5.6953,-5.7539,-5.8242,-5.8164,-5.8476,-5.886,-5.879,-5.8906,-5.9031,-5.8954,-5.9104,-5.9396,-5.9858,-6.0012,-6.0165,-6.0781,-6.0896,-6.0858,-6.0858,-6.0319,-5.9858,-5.9858,-5.9858,-5.9858,-5.9858,-6.0396,-6.0781,-6.0781,-5.9781,-5.8973,-5.8973,-5.8973,-5.8973,-5.8973,-5.8973,-5.9242,-5.9819,-5.9858,-6.0127,-6.0742,-6.0781,-6.0781,-6.0781,-6.1012,-6.1166,-6.1166,-6.2012,-6.2551,-6.2781,-6.3358,-6.4205,-6.5282,-6.5936,-6.6782,-3.3283,-3.4513,-3.6424,-3.8346,-4.03,-4.22,-4.3778,-4.4201,-4.447,-4.5316,-4.5509,-4.5547,-4.5547,-4.5586,-4.5586,-4.5586,-4.5586,-4.5624,-4.5796,-4.568,-4.595,-4.6852,-4.6929,-4.7545,0.0,-4.951,-5.001,-5.1029,-5.1147,-5.125,-5.1406,-5.1406,-5.1406,-5.1406,-5.2266,-5.2695,-5.2695,-5.4414,-5.5273,-5.5273,-5.6133,-5.6523,-5.6523,-5.6523,-5.6523,-5.6523,-5.6562,-5.6562,-5.6562,-5.6601,-5.6601,-5.6601,-5.6601,-5.6601,-5.6601,-5.6601,-5.7148,-5.7851,-5.7851,-5.8437,-5.914,-5.914,-5.9023,-5.8906,-5.8906,-5.9402,-5.9938,-5.9938,-6.0549,-6.1228,-6.1228,-6.1266,-6.1266,-6.1304,-6.1151,-6.0973,-6.0973,-6.0858,-6.0742,-6.0742,-6.0742,-6.0742,-6.0742,-6.0781,-6.0781,-6.0781,-6.0742,-6.0704,-6.0704,-6.0704,-6.0704,-6.0704,-6.0704,-6.0742,-6.0742,-6.0742,-6.0781,-6.0781,-6.0781,-6.0781,-6.0781,-6.1589,-6.205,-6.205,-6.2858,-6.3666,-6.4512,-6.4551,-6.5397,-6.7013,-6.7051,-6.7975,-3.5094,-3.6543,-3.8222,-4.0788,-4.2448,-4.3778,-4.4893,-4.5163,-4.524,-4.5547,-4.5586,-4.5586,-4.5586,-4.5586,-4.5586,-4.5586,-4.5586,-4.5663,-4.5834,-4.5719,-4.5757,-4.6219,-4.6142,0.0,0.0,0.0,0.0,-5.0914,-5.1058,-5.1167,-5.125,-5.1914,-5.2266,-5.2266,-5.3672,-5.4414,-5.4414,-5.5586,-5.6172,-5.6172,-5.6445,-5.6601,-5.6601,-5.6601,-5.6601,-5.6601,-5.6601,-5.6601,-5.6601,-5.6601,-5.6601,-5.6601,-5.6601,-5.6601,-5.668,-5.7265,-5.8008,-5.8672,-5.8086,-5.8828,-6.0,-6.0,-6.0351,-6.0742,-6.0742,-6.0932,-6.1112,-6.1034,-6.1197,-6.1422,-6.1327,-6.1306,-6.1306,-6.1306,-6.1148,-6.1022,-6.1004,-6.0896,-6.0781,-6.0781,-6.0781,-6.0781,-6.0781,-6.0781,-6.0781,-6.0781,-6.0781,-6.0781,-6.0781,-6.0781,-6.0781,-6.0781,-6.0781,-6.0781,-6.0781,-6.0781,-6.0781,-6.0781,-6.132,-6.1666,-6.1666,-6.2474,-6.2897,-6.2897,-6.3743,-6.4589,-6.5474,-6.6013,-6.6859,-6.7975,-6.8552,-6.9129,-3.7079,-3.8622,-4.0096,-4.2661,-4.4036,-4.4893,-4.547,-4.5586,-4.5586,-4.5586,-4.5355,-4.5163,-4.5163,-4.4914,-4.4799,-4.5086,-4.5201,-4.5355,-4.5834,-4.5773,-4.5843,-4.6369,-4.6275,-4.6621,0.0,0.0,0.0,-5.0471,-5.0867,-5.1152,-5.1288,-5.2187,-5.2695,-5.2695,-5.4375,-5.5312,-5.5312,-5.6172,-5.6601,-5.6601,-5.6601,-5.6601,-5.6601,-5.6601,-5.6601,-5.6601,-5.6601,-5.6601,-5.6601,-5.6601,-5.6601,-5.664,-5.6953,-5.707,-5.7187,-5.8047,-5.8906,-5.9531,-5.8984,-5.9687,-6.0859,-6.0859,-6.125,-6.1719,-6.1719,-6.1719,-6.168,-6.1601,-6.1562,-6.156,-6.1459,-6.1424,-6.1424,-6.1424,-6.1314,-6.1175,-6.113,-6.0973,-6.0858,-6.0819,-6.0781,-6.0781,-6.0781,-6.0781,-6.0781,-6.0781,-6.0781,-6.0781,-6.0781,-6.0781,-6.0781,-6.0781,-6.0781,-6.0781,-6.0781,-6.0781,-6.0935,-6.1243,-6.1781,-6.2204,-6.2512,-6.332,-6.3782,-6.3782,-6.4897,-6.5782,-6.632,-6.7167,-6.8013,-6.8898,-6.9436,-6.986,-3.9112,-4.0646,-4.1972,-4.3897,-4.497,-4.5586,-4.5586,-4.5586,-4.5586,-4.5547,-4.4876,-4.4282,-4.4184,-4.3611,-4.3401,-4.4128,-4.4435,-4.4932,-4.5847,-4.5956,-4.6335,0.0,0.0,0.0,0.0,0.0,0.0,-4.9817,0.0,-5.1203,-5.1439,-5.2304,-5.2773,-5.2812,-5.4492,-5.5351,-5.5351,-5.6172,-5.6601,-5.6601,-5.6601,-5.6601,-5.6601,-5.6601,-5.6601,-5.6601,-5.6601,-5.6601,-5.6601,-5.6601,-5.664,-5.6758,-5.7578,-5.793,-5.8086,-5.8945,-5.9726,-6.039,-6.0469,-6.1015,-6.1719,-6.1719,-6.1719,-6.1719,-6.1719,-6.1719,-6.1719,-6.1719,-6.1719,-6.1719,-6.1719,-6.1679,-6.1677,-6.1677,-6.1599,-6.1437,-6.1311,-6.1151,-6.0935,-6.0819,-6.0781,-6.0781,-6.0781,-6.0781,-6.0781,-6.0781,-6.0781,-6.0781,-6.0781,-6.0781,-6.0781,-6.0781,-6.0781,-6.0819,-6.0858,-6.0858,-6.1243,-6.2089,-6.2204,-6.2551,-6.332,-6.4205,-6.4705,-6.4743,-6.6282,-6.7128,-6.7244,-6.8052,-6.8898,-6.9744,-6.9744,-7.0206,-4.1119,-4.2581,-4.3598,-4.4935,-4.5432,-4.5586,-4.5586,-4.5586,-4.5432,-4.4761,-4.4435,-4.3932,-4.2695,-4.3272,0.0,-4.3453,-4.5103,0.0,-4.6844,-4.7391,0.0,-4.8343,0.0,-4.8338,-4.8805,-4.9437,0.0,0.0,-5.0721,-5.1488,-5.2182,-5.3147,-5.3984,-5.4609,-5.5703,-5.6289,-5.6289,-5.6484,-5.6601,-5.6601,-5.6601,-5.6601,-5.6601,-5.6601,-5.6601,-5.6601,-5.6601,-5.6601,-5.6601,-5.6601,-5.6992,-5.7578,-5.7812,-5.8281,-5.8984,-5.9805,-6.0234,-6.0508,-6.1133,-6.1523,-6.1719,-6.1719,-6.1719,-6.1719,-6.1719,-6.1719,-6.1719,-6.1719,-6.1719,-6.1719,-6.1719,-6.1634,-6.1557,-6.1557,-6.1324,-6.1137,-6.1081,-6.0935,-6.0819,-6.0819,-6.0781,-6.0781,-6.0781,-6.0781,-6.0781,-6.0781,-6.0781,-6.0781,-6.0781,-6.0781,-6.0781,-6.0781,-6.0781,-6.105,-6.1704,-6.1781,-6.2127,-6.2935,-6.3589,-6.4051,-6.4282,-6.5128,-6.5859,-6.6436,-6.6859,-6.7744,-6.9052,-6.9244,-6.9783,-7.0591,-7.0591,-7.1052,-4.3073,-4.4172,-4.4787,-4.5453,-4.5586,-4.5393,-4.4684,-4.4474,-4.4166,-4.2885,-4.2343,-4.1816,-4.0896,-4.1763,-4.2607,0.0,0.0,0.0,-4.7167,-4.8005,-4.8788,0.0,-4.9248,0.0,-4.9711,-5.0235,-5.0681,0.0,-5.1567,-5.2,-5.2558,-5.3838,-5.4805,-5.5273,-5.6133,-5.6601,-5.6601,-5.6601,-5.6601,-5.6601,-5.6601,-5.6601,-5.6601,-5.6601,-5.6601,-5.6601,0.0,-5.6601,-5.664,-5.6992,-5.7461,-5.7969,-5.8711,-5.9297,-5.9844,-6.0664,-6.0976,-6.1055,-6.1523,-6.1719,-6.1719,-6.1719,-6.1719,-6.1719,-6.1719,-6.1719,-6.1719,-6.1719,-6.1676,-6.1617,-6.1617,-6.1497,-6.1408,-6.1412,-6.1266,-6.1112,-6.1012,-6.0935,-6.0858,-6.0819,-6.0781,-6.0781,-6.0781,-6.0781,-6.0781,-6.0781,-6.1127,-6.1358,-6.1358,-6.1358,-6.1358,-6.1358,-6.1704,-6.2089,-6.2589,-6.2627,-6.2974,-6.382,-6.432,-6.4782,-6.5166,-6.5974,-6.6628,-6.709,-6.7859,-6.8706,-6.9706,-7.0052,-7.0475,-7.0898,-7.1283,-7.1745,-4.476,-4.5381,-4.5586,-4.5586,-4.5509,-4.5009,-4.3457,-4.2919,-4.2249,-4.0547,-3.9599,-3.9046,-3.8863,-3.9745,-4.0739,-4.1508,0.0,-4.6306,-4.7262,-4.8252,-4.9258,-5.0234,-5.0265,-5.0507,-5.1312,-5.1406,-5.1765,-5.2608,-5.2685,-5.2807,-5.3046,-5.4492,-5.5351,-5.5469,-5.6211,-5.6601,-5.6601,-5.6601,-5.6601,-5.6601,-5.6601,-5.6601,-5.6601,-5.6601,-5.6601,-5.6601,0.0,0.0,-5.6836,-5.7695,-5.8125,-5.8398,-5.9844,-6.0469,-6.0664,-6.1406,-6.1719,-6.1719,-6.1719,-6.1719,-6.1719,-6.1719,-6.1719,-6.1719,-6.1719,-6.1719,-6.1719,-6.1719,-6.1584,-6.1497,-6.1497,-6.1387,-6.1259,-6.1263,-6.1266,-6.1189,-6.1012,-6.105,-6.1089,-6.1012,-6.105,-6.1127,-6.1127,-6.1127,-6.1127,-6.1127,-6.1781,-6.2243,-6.2243,-6.2243,-6.2243,-6.2243,-6.2897,-6.3358,-6.3474,-6.3474,-6.3858,-6.4705,-6.4782,-6.5166,-6.6013,-6.6744,-6.7205,-6.7436,-6.8936,-6.9744,-6.986,-7.0552,-7.0975,-7.1091,-7.186,-7.2322,-4.517,-4.5568,-4.5586,-4.5586,-4.5047,-4.4278,-4.3299,-4.2002,-4.0477,-3.8777,-3.8344,-3.7795,-3.6408,-3.8537,-4.0546,-4.07,-4.3602,-4.6422,-4.804,-4.915,-5.0117,0.0,-5.1166,-5.1235,-5.1361,-5.1402,0.0,0.0,0.0,0.0,-5.4805,-5.5156,-5.5625,-5.6367,-5.6523,-5.6601,-5.6601,-5.6601,-5.6601,-5.6601,-5.6601,-5.6601,-5.6601,-5.6601,-5.6601,-5.664,0.0,0.0,-5.7734,-5.8633,-5.9375,-6.0,-6.0273,-6.0859,-6.1484,-6.164,-6.1719,-6.1719,-6.1719,-6.1719,-6.1719,-6.1719,-6.1719,-6.1719,-6.1719,-6.1719,-6.1719,-6.1719,-6.1584,-6.1497,-6.1497,-6.1296,-6.1032,-6.1058,-6.0973,-6.0858,-6.0819,-6.1396,-6.1897,-6.1858,-6.2397,-6.2858,-6.2858,-6.2858,-6.2858,-6.2858,-6.3012,-6.3089,-6.3089,-6.3089,-6.3089,-6.3089,-6.3243,-6.3589,-6.432,-6.4359,-6.4743,-6.5628,-6.5667,-6.6051,-6.6859,-6.7013,-6.7782,-6.9206,-6.9552,-7.0014,-7.0706,-7.0821,-7.1283,-7.1975,-7.2129,-7.2937,-4.5417,-4.5586,-4.5586,-4.5586,-4.4932,-4.3855,-4.2124,-4.0423,-3.8604,-3.6446,-3.5676,-3.5239,-3.4879,-3.6867,-3.8815,-3.9738,-4.247,-4.5285,-4.7467,-4.8677,-4.9805,-5.1133,-5.1367,-5.1406,0.0,-5.1406,0.0,0.0,0.0,0.0,-5.5234,-5.5742,-5.6172,-5.6601,-5.6601,-5.6601,-5.6601,-5.6601,-5.6601,-5.6601,-5.6601,-5.6836,-5.7265,-5.7265,-5.7539,-5.7969,0.0,0.0,-5.8633,-5.9492,-6.0039,-6.0469,-6.0898,-6.1328,-6.1719,-6.1719,-6.1719,-6.1719,-6.1719,-6.1719,-6.1719,-6.1719,-6.1719,-6.1719,-6.1719,-6.1719,-6.1719,-6.1719,-6.1556,-6.1387,-6.1373,-6.1151,-6.0896,-6.0896,-6.1166,-6.1473,-6.1473,-6.2127,-6.2704,-6.2704,-6.3051,-6.332,-6.332,-6.332,-6.332,-6.332,-6.3705,-6.3974,-6.3974,-6.4359,-6.4474,-6.4012,-6.4397,-6.482,-6.5243,-6.5667,-6.609,-6.6513,-6.6936,-6.7359,-6.7744,-6.8205,-6.8859,-6.9667,-7.0129,-7.0514,-7.0898,-7.136,-7.1783,-7.2206,-7.3091,-7.3937,-4.5532,-4.5586,-4.5586,-4.5586,-4.4816,-4.3431,-4.1046,-3.8945,-3.6804,-3.4429,-3.3249,-3.2904,-3.3737,-3.5315,-3.7084,0.0,-4.1354,-4.3893,-4.645,-4.7874,-4.9199,0.0,-5.1172,0.0,-5.1406,0.0,0.0,0.0,0.0,0.0,0.0,-5.6211,-5.6601,-5.6601,-5.6601,-5.6601,-5.6601,-5.6601,-5.6601,-5.6601,-5.6797,-5.7226,-5.789,-5.8086,-5.8555,-5.9219,0.0,0.0,0.0,-6.0351,-6.0664,-6.0742,-6.1445,-6.1719,-6.1719,-6.1719,-6.1719,-6.1719,-6.1719,-6.1719,-6.1719,-6.1719,-6.1719,-6.1719,-6.1719,-6.1719,-6.1719,-6.1719,-6.1524,-6.1345,-6.134,-6.1151,-6.0935,-6.1089,-6.1627,-6.2127,-6.232,-6.3012,-6.3589,-6.3589,-6.3743,-6.3858,-6.3858,-6.3858,-6.3858,-6.3858,-6.4436,-6.4897,-6.4897,-6.5474,-6.5705,-6.5205,-6.5743,-6.6167,-6.6167,-6.6898,-6.7359,-6.7359,-6.8013,-6.8475,-6.8667,-6.936,-6.9783,-6.9937,-7.0591,-7.0898,-7.0898,-7.1783,-7.2283,-7.2514,-7.4014,-7.4822,-4.5532,-4.5586,-4.5586,-4.5586,-4.4393,-4.2739,-4.0893,-3.8046,-3.5199,-3.3404,-3.2352,-3.2045,-3.2852,-3.443,-3.643,-3.8892,-4.0777,-4.2871,-4.5522,-4.7289,-4.8787,-4.9957,0.0,0.0,-5.1406,0.0,0.0,0.0,0.0,0.0,0.0,-5.6562,-5.6601,-5.6601,-5.6601,-5.6601,-5.6601,-5.6601,-5.6601,-5.6601,-5.7383,-5.7812,-5.793,-5.8711,-5.9101,-5.9258,0.0,0.0,0.0,-6.1211,-6.1562,-6.1601,-6.168,-6.1719,-6.1719,-6.1719,-6.1719,-6.1719,-6.1719,-6.1719,-6.1719,-6.1719,-6.1719,-6.1719,-6.1719,-6.1719,-6.1719,-6.1719,-6.1596,-6.1489,-6.1482,-6.1381,-6.142,-6.2012,-6.2127,-6.2281,-6.3051,-6.3858,-6.4474,-6.4474,-6.5128,-6.5667,-6.5667,-6.5667,-6.5667,-6.5667,-6.5743,-6.5782,-6.5782,-6.5859,-6.6128,-6.6782,-6.6936,-6.6974,-6.6974,-6.7782,-6.8282,-6.8282,-6.8359,-6.8783,-6.9552,-6.9667,-7.0052,-7.0783,-7.086,-7.0898,-7.0898,-7.1783,-7.2591,-7.3399,-7.4284,-7.513,-4.5303,-4.5586,-4.5586,-4.5586,-4.4355,-4.2624,-4.0893,-3.7892,-3.5007,-3.3276,-3.1852,-3.1314,-3.266,-3.3468,-3.493,-3.8007,-3.9084,-4.0585,-4.3717,-4.5257,-4.6761,-4.8863,-4.9913,0.0,0.0,0.0,0.0,0.0,0.0,0.0,0.0,0.0,-5.6601,-5.6601,-5.6601,-5.6601,-5.6601,-5.6601,-5.6601,-5.6601,-5.7461,-5.8164,-5.8711,-5.9531,-6.0195,-6.0703,0.0,0.0,0.0,-6.1562,-6.1719,-6.1719,-6.1719,-6.1719,-6.1719,-6.1719,-6.1719,-6.1719,-6.1719,-6.1719,-6.1719,-6.1719,-6.1719,-6.1719,-6.1719,-6.1719,-6.1719,-6.1719,-6.1607,-6.1479,-6.1496,-6.1698,-6.1949,-6.2159,-6.2897,-6.3705,-6.4012,-6.4782,-6.5397,-6.5397,-6.5667,-6.5897,-6.5897,-6.5897,-6.5897,-6.5897,-6.5897,-6.5897,-6.5897,-6.632,-6.6744,-6.7051,-6.709,-6.7321,-6.7859,-6.8667,-6.9167,-6.9167,-6.9629,-7.0052,-7.0398,-7.0437,-7.0552,-7.0898,-7.0898,-7.1168,-7.1668,-7.2552,-7.3399,-7.4245,-7.5091,-7.5668,-4.4824,-4.5393,-4.5586,-4.5586,-4.4162,-4.2316,-4.0816,-3.77,-3.4699,-3.3199,-3.1583,-3.0929,-3.2583,-3.2891,-3.393,-3.7084,-3.8046,-3.9392,-4.2316,-4.3948,-4.5624,0.0,0.0,0.0,0.0,0.0,0.0,0.0,0.0,0.0,0.0,0.0,-5.6601,-5.6601,-5.6601,-5.6601,-5.6601,-5.6601,-5.6601,-5.6601,-5.7734,-5.8594,-5.9258,-6.0312,-6.1133,0.0,0.0,0.0,0.0,-6.1719,-6.1719,-6.1719,-6.1719,-6.1719,-6.1719,-6.1719,-6.1719,-6.1719,-6.1719,-6.1719,-6.1719,-6.1719,-6.1719,-6.1719,-6.1719,-6.1719,-6.1719,-6.1719,-6.164,-6.1626,-6.1842,-6.2123,-6.2453,-6.2814,-6.3782,-6.4666,-6.4936,-6.5474,-6.5897,-6.5897,-6.5897,-6.5897,-6.5897,-6.609,-6.6244,-6.6244,-6.6474,-6.6628,-6.6628,-6.7128,-6.759,-6.7821,-6.7859,-6.8129,-6.8744,-6.959,-7.0052,-7.0052,-7.0591,-7.0898,-7.0898,-7.0898,-7.0898,-7.0898,-7.1168,-7.1591,-7.2206,-7.3322,-7.4168,-7.4707,-7.5592,-7.613,-4.3978,-4.4932,-4.5586,-4.5586,-4.3701,-4.1585,-4.07,-3.7238,-3.3968,-3.3083,-3.1583,-3.0929,-3.2583,-3.2891,-3.3737,-3.6315,-3.8161,-3.9892,-4.1585,-4.397,-4.5988,0.0,0.0,0.0,0.0,0.0,0.0,0.0,0.0,0.0,0.0,0.0,-5.6601,-5.6601,-5.6601,-5.6601,-5.6601,-5.6601,-5.6601,-5.6601,-5.8359,-5.918,-5.9258,-6.0937,0.0,0.0,0.0,0.0,0.0,-6.1719,-6.1719,-6.1719,-6.1719,-6.1719,-6.1719,-6.1719,-6.1719,-6.1719,-6.1719,-6.1719,-6.1719,-6.1719,-6.1719,-6.1719,-6.1719,-6.1719,-6.1719,-6.1719,-6.1719,-6.1889,-6.2604,-6.2656,-6.2872,-6.4411,-6.468,-6.4859,-6.5705,-6.5897,-6.5897,-6.5897,-6.5897,-6.5897,-6.5897,-6.6551,-6.709,-6.709,-6.7821,-6.8359,-6.8359,-6.8398,-6.8744,-6.959,-6.9667,-6.9667,-6.9706,-7.0437,-7.0898,-7.0898,-7.0898,-7.0898,-7.0898,-7.0898,-7.0898,-7.0898,-7.1745,-7.2168,-7.2206,-7.386,-7.4707,-7.4707,-7.5592,-7.6476,-4.1382,-4.2354,-4.2854,-4.2239,-4.1085,-3.97,-3.8238,-3.5968,-3.3814,-3.2352,-3.1198,-3.0737,-3.1891,-3.2545,-3.393,-3.7084,-3.8546,-4.0085,0.0,0.0,0.0,-4.6985,0.0,0.0,0.0,0.0,0.0,0.0,0.0,0.0,0.0,0.0,0.0,-5.6601,-5.6601,-5.6601,-5.6601,-5.6601,-5.6601,-5.6601,-5.7773,-5.8633,-5.9258,-6.0312,0.0,0.0,0.0,0.0,0.0,-6.1719,-6.1719,-6.1719,-6.1719,-6.1719,-6.1719,-6.1719,-6.1719,-6.1719,-6.1719,-6.1719,-6.1719,-6.1719,-6.1719,-6.1719,-6.1719,-6.1719,-6.1719,-6.1719,-6.2071,-6.2465,-6.2577,-6.3338,-6.418,-6.4564,-6.5089,-6.5551,-6.582,-6.5974,-6.6051,-6.6051,-6.6615,-6.7141,-6.7141,-6.7731,-6.8193,-6.8205,-6.8321,-6.8398,-6.8398,-6.8936,-6.9398,-6.9667,-7.0206,-7.0514,-7.0514,-7.0744,-7.0898,-7.0898,-7.0898,-7.0898,-7.0898,-7.1475,-7.1783,-7.1783,-7.2629,-7.336,-7.3899,-7.4437,-7.5014,-7.5592,-7.5861,-7.6476,-3.9,-4.0392,-4.1162,-4.0623,-3.9662,-3.843,-3.7007,-3.5161,-3.3314,-3.1968,-3.1006,-3.066,-3.1545,-3.2122,-3.3353,-3.6122,-3.7546,-3.92,0.0,0.0,0.0,0.0,0.0,0.0,0.0,0.0,0.0,0.0,0.0,0.0,0.0,0.0,0.0,-5.6601,-5.6601,-5.6601,-5.6601,-5.6601,-5.6601,-5.6601,-5.7461,-5.8359,-5.9219,0.0,0.0,0.0,0.0,0.0,0.0,-6.1719,-6.1719,-6.1719,-6.1719,-6.1719,-6.1719,-6.1719,-6.1719,-6.1719,-6.1719,-6.1719,-6.1717,-6.1719,-6.172,-6.168,-6.164,-6.1612,-6.1703,-6.2036,-6.24,-6.2799,-6.3261,-6.4072,-6.4834,-6.5051,-6.5551,-6.5974,-6.5974,-6.609,-6.6304,-6.6647,-6.723,-6.7792,-6.8101,-6.8759,-6.9253,-6.9181,-6.9321,-6.9436,-6.936,-6.9821,-7.0167,-7.0167,-7.0591,-7.0898,-7.0898,-7.0898,-7.0898,-7.0898,-7.1206,-7.1398,-7.1398,-7.2245,-7.2706,-7.2706,-7.3514,-7.4207,-7.4707,-7.5014,-7.5476,-7.6015,-7.6322,-7.6938,0.0,-3.8777,-4.0046,-3.9969,-3.8777,-3.7392,-3.6546,-3.4507,0.0,-3.1775,-3.0968,-3.0698,-3.1621,-3.1775,-3.2352,-3.416,-3.5892,-3.7853,0.0,-4.2931,0.0,0.0,0.0,0.0,0.0,0.0,0.0,0.0,0.0,0.0,0.0,0.0,0.0,0.0,-5.6601,-5.6601,-5.6601,-5.6601,-5.6601,-5.6601,-5.7422,-5.8242,-5.914,0.0,0.0,0.0,0.0,0.0,0.0,-6.1719,-6.1719,-6.1719,-6.1719,-6.1719,-6.1719,-6.1719,-6.1719,-6.1719,-6.1719,-6.1718,-6.169,-6.1678,-6.168,-6.1676,-6.1522,-6.1495,-6.1666,-6.2554,-6.2723,-6.2929,-6.444,-6.4872,-6.5103,-6.5782,-6.6013,-6.6115,-6.6126,-6.6332,-6.6746,-6.7573,-6.7801,-6.8148,-6.8888,-6.9757,-7.0246,-7.0064,-7.0683,-7.1129,-7.0937,-7.0898,-7.0937,-7.0975,-7.0975,-7.1014,-7.1091,-7.1014,-7.0975,-7.0975,-7.1822,-7.2283,-7.2283,-7.3129,-7.3591,-7.3591,-7.4399,-7.4784,-7.4784,-7.563,-7.6015,-7.6015,-7.6899,-7.7707,-3.2737,0.0,-3.5507,-3.4853,-3.4391,-3.3891,0.0,-3.2429,-3.1737,-3.0891,-3.0533,-3.0852,-3.2352,-3.2622,-3.3583,-3.6622,-3.8507,-4.0277,0.0,0.0,0.0,0.0,0.0,0.0,0.0,0.0,0.0,0.0,0.0,0.0,0.0,0.0,0.0,0.0,-5.6601,-5.6601,-5.6601,-5.6601,-5.6601,-5.6601,-5.6797,-5.7344,-5.8242,0.0,0.0,0.0,0.0,0.0,0.0,-6.1719,-6.1719,-6.1719,-6.1719,-6.1719,-6.1719,-6.1719,-6.1719,-6.1719,-6.1719,-6.169,-6.1678,-6.1588,-6.1559,-6.1513,-6.1401,-6.1407,-6.1666,-6.2554,-6.3137,-6.3714,-6.4768,-6.5513,-6.6051,-6.6269,-6.6307,-6.6314,-6.6334,-6.6977,-6.7614,-6.7795,-6.9005,-7.0064,-7.0221,-7.0885,-7.1312,-7.114,-7.1147,-7.1129,-7.0937,-7.0898,-7.1168,-7.1822,-7.1898,-7.2168,-7.2822,-7.2283,-7.1898,-7.1898,-7.2706,-7.3206,-7.3206,-7.3976,-7.4437,-7.4437,-7.5245,-7.5707,-7.5707,-7.5899,-7.6015,-7.6015,-7.6899,-7.7707,-3.0177,-3.2238,-3.4083,-3.3622,-3.3415,-3.3091,-3.2311,-3.1813,-3.1276,-3.0381,-3.0292,-3.0814,-3.2122,-3.266,-3.3891,-3.693,-3.8854,0.0,0.0,0.0,0.0,0.0,0.0,0.0,0.0,0.0,0.0,0.0,0.0,0.0,0.0,0.0,0.0,0.0,0.0,-5.6601,-5.6601,-5.6601,-5.6601,-5.6601,-5.6601,-5.707,-5.793,0.0,0.0,0.0,0.0,0.0,-6.1719,-6.1719,-6.1719,-6.1719,-6.1719,-6.1719,-6.1719,-6.1719,-6.1719,-6.1719,-6.1719,-6.1656,-6.1574,-6.1458,-6.142,-6.1434,-6.1694,-6.1813,-6.205,-6.2925,-6.368,-6.4436,-6.532,-6.5958,-6.64,-6.64,-6.6444,-6.6598,-6.698,-6.7581,-6.8267,-6.9045,-7.0018,-7.082,-7.1211,-7.1601,-7.1792,-7.1611,-7.1513,-7.1321,-7.1052,-7.1398,-7.1783,-7.2168,-7.2552,-7.2976,-7.3476,-7.3399,-7.3206,-7.2822,-7.3591,-7.4053,-7.4053,-7.4861,-7.5284,-7.5284,-7.5745,-7.6015,-7.6015,-7.6015,-7.6207,-7.663,-7.7438,-7.8284,-2.8912,-3.1451,-3.3862,-3.3647,-3.3485,-3.3124,-3.2393,-3.163,-3.0891,-3.0151,-3.0305,-3.0929,-3.2083,-3.2929,0.0,0.0,0.0,0.0,0.0,0.0,0.0,0.0,0.0,0.0,0.0,0.0,0.0,0.0,0.0,0.0,0.0,0.0,0.0,0.0,0.0,0.0,-5.6601,-5.6601,-5.6601,-5.6601,-5.6601,-5.6992,-5.7695,-5.7851,0.0,0.0,0.0,0.0,-6.1523,-6.164,-6.1719,-6.1719,-6.1719,-6.1719,-6.1719,-6.1719,-6.1719,-6.1719,-6.1719,-6.1607,-6.1456,-6.1328,-6.1381,-6.1543,-6.2123,-6.245,-6.2858,-6.3589,-6.4282,-6.5037,-6.5961,-6.632,-6.6496,-6.6496,-6.6655,-6.7051,-6.7806,-6.8281,-6.8984,-7.043,-7.082,-7.1133,-7.1875,-7.1992,-7.1914,-7.1719,-7.1823,-7.1796,-7.1467,-7.2172,-7.2668,-7.2629,-7.3245,-7.3745,-7.386,-7.4514,-7.463,-7.3937,-7.4514,-7.4899,-7.4899,-7.563,-7.6015,-7.6015,-7.6015,-7.6015,-7.6015,-7.6015,-7.6438,-7.7361,-7.813,-7.8977,-2.9753,-3.1503,-3.2248,-3.1239,-3.1172,-3.118,-3.054,-3.0318,-3.0151,-3.0037,-3.0803,-3.2199,-3.4507,-3.5584,-3.6969,0.0,0.0,0.0,0.0,0.0,0.0,0.0,0.0,0.0,0.0,0.0,0.0,0.0,0.0,0.0,0.0,0.0,0.0,0.0,0.0,0.0,0.0,-5.6601,-5.6601,-5.6601,-5.6601,-5.668,-5.6836,-5.7578,-5.8047,0.0,0.0,0.0,-6.0664,-6.1406,-6.1719,-6.1719,-6.1719,-6.1719,-6.1719,-6.1719,-6.1719,-6.1719,-6.1719,-6.1543,-6.1313,-6.1306,-6.1666,-6.2151,-6.2121,-6.3214,-6.4449,-6.4589,-6.4806,-6.5293,-6.6269,-6.6659,-6.683,-6.683,-6.7409,-6.7984,-6.8141,-6.9291,-7.039,-7.0664,-7.1289,-7.1836,-7.1992,-7.1992,-7.1914,-7.1719,-7.2335,-7.2743,-7.257,-7.3164,-7.385,-7.4504,-7.4553,-7.4822,-7.5553,-7.5745,-7.5745,-7.563,-7.5745,-7.5784,-7.5784,-7.5938,-7.6015,-7.6015,-7.6015,-7.6015,-7.6015,-7.6015,-7.6544,-7.7545,-7.8199,-7.9054,-2.8183,-3.002,-3.1336,-3.132,-3.2482,-3.3373,-3.2467,-3.25,-3.2705,-3.2555,-3.3181,-3.4391,-3.6469,0.0,-3.9238,-4.2701,0.0,0.0,0.0,0.0,0.0,0.0,0.0,0.0,0.0,0.0,0.0,0.0,0.0,0.0,0.0,0.0,0.0,0.0,0.0,0.0,0.0,-5.6601,-5.6601,-5.6601,-5.6601,-5.6601,-5.6601,-5.6992,-5.7461,0.0,0.0,-6.0,-6.0469,-6.1328,-6.1719,-6.1719,-6.1719,-6.1719,-6.1719,-6.1719,-6.1719,-6.1677,-6.1637,-6.1529,-6.1471,-6.1756,-6.205,-6.2474,-6.3306,-6.4128,-6.4936,-6.5615,-6.5771,-6.5935,-6.6483,-6.6737,-6.7031,-6.75,-6.789,-6.8437,-6.9375,-7.0156,-7.0859,-7.1328,-7.1719,-7.1992,-7.1992,-7.1992,-7.2148,-7.25,-7.289,-7.3278,-7.3588,-7.4304,-7.4878,-7.5127,-7.5505,-7.5899,-7.6284,-7.6322,-7.6207,-7.6015,-7.6015,-7.6015,-7.6015,-7.6015,-7.6015,-7.6015,-7.6015,-7.6015,-7.6015,-7.6476,-7.7169,-7.8122,-7.8823,-7.9708,-2.7529,-2.9068,-3.0559,-3.1869,-3.3527,-3.4764,-3.4559,-3.4617,-3.4846,-3.5189,-3.5866,-3.6853,-3.8315,-3.9777,0.0,0.0,0.0,0.0,0.0,0.0,0.0,0.0,0.0,0.0,0.0,0.0,0.0,0.0,0.0,0.0,0.0,0.0,0.0,0.0,0.0,0.0,-5.6601,-5.6601,-5.6601,-5.6601,-5.6601,-5.6601,-5.6601,-5.6601,-5.6953,-5.7656,-5.8711,-5.9531,-6.0195,-6.125,-6.1719,-6.1719,-6.1719,-6.1719,-6.1719,-6.1719,-6.1719,-6.1674,-6.1589,-6.1642,-6.1829,-6.2292,-6.2622,-6.3128,-6.446,-6.5018,-6.5379,-6.6357,-6.6513,-6.6461,-6.6632,-6.6917,-6.7383,-6.8047,-6.8515,-6.914,-7.043,-7.0859,-7.1211,-7.1875,-7.1992,-7.1992,-7.1992,-7.2187,-7.2539,-7.3203,-7.3633,-7.4101,-7.4609,-7.539,-7.584,-7.5701,-7.6212,-7.6598,-7.6598,-7.6598,-7.6482,-7.6147,-7.6167,-7.613,-7.6053,-7.6053,-7.6053,-7.6015,-7.6015,-7.6092,-7.6322,-7.6976,-7.7823,-7.8861,-7.9515,-8.0285,-3.0073,-3.0123,-2.9682,-3.1985,-3.2157,-3.2342,-3.4785,-3.4411,-3.4245,-3.647,-3.8058,-3.9277,-4.0162,-4.297,0.0,0.0,0.0,0.0,0.0,0.0,0.0,0.0,0.0,0.0,0.0,0.0,0.0,0.0,0.0,0.0,0.0,0.0,0.0,0.0,0.0,0.0,-5.6601,-5.6601,-5.6601,-5.6601,-5.6601,-5.6601,-5.6601,-5.6601,-5.664,-5.6797,-5.8476,-5.9219,-5.9414,-6.1015,-6.1719,-6.1719,-6.1719,-6.1719,-6.1719,-6.1719,-6.1719,-6.1718,-6.1677,-6.2024,-6.247,-6.2707,-6.3624,-6.4691,-6.4985,-6.5645,-6.6314,-6.6553,-6.6602,-6.6629,-6.6823,-6.7498,-6.8125,-6.8203,-6.9375,-7.0547,-7.0664,-7.1328,-7.1914,-7.1992,-7.1992,-7.1992,-7.1992,-7.2656,-7.3242,-7.3281,-7.4687,-7.5742,-7.5781,-7.6367,-7.6814,-7.6777,-7.6653,-7.6615,-7.6615,-7.6615,-7.6576,-7.6576,-7.6543,-7.6438,-7.6284,-7.6284,-7.6169,-7.6015,-7.6015,-7.6399,-7.7207,-7.7284,-7.8207,-8.0008,-7.9862,-8.0362,-2.786,-2.9072,-3.0099,-3.1494,-3.2742,-3.4054,-3.5597,-3.6798,-3.8117,-3.9853,-4.0998,-4.1893,-4.2701,0.0,0.0,0.0,0.0,0.0,0.0,0.0,0.0,0.0,0.0,0.0,0.0,0.0,0.0,0.0,0.0,0.0,0.0,0.0,0.0,0.0,0.0,0.0,0.0,-5.6601,-5.6601,-5.6601,-5.6601,-5.6601,-5.6601,-5.6601,-5.6914,-5.7461,-5.8672,-5.9492,-6.0039,-6.1211,-6.1719,-6.1719,-6.1719,-6.1719,-6.1719,-6.1719,-6.1719,-6.168,-6.1601,-6.2119,-6.2883,-6.3274,-6.4195,-6.5228,-6.5848,-6.6244,-6.6569,-6.6728,-6.6769,-6.6935,-6.7546,-6.7969,-6.8476,-6.9492,-7.0234,-7.0859,-7.1406,-7.1758,-7.1992,-7.1992,-7.1992,-7.2187,-7.2734,-7.3086,-7.3672,-7.4765,-7.5469,-7.6094,-7.664,-7.6914,-7.7106,-7.7073,-7.7029,-7.6951,-7.6951,-7.6983,-7.6971,-7.6971,-7.6747,-7.6555,-7.6477,-7.6495,-7.663,-7.6976,-7.7015,-7.7323,-7.8054,-7.8592,-7.9208,-7.99,-8.04,-8.0823,-2.753,-2.8778,-3.0136,-3.1458,-3.3103,-3.4877,-3.6786,-3.8649,-4.0553,-4.264,-4.3482,-4.4047,-4.4624,0.0,0.0,0.0,0.0,0.0,0.0,0.0,0.0,0.0,0.0,0.0,0.0,0.0,0.0,0.0,0.0,0.0,0.0,0.0,0.0,0.0,0.0,0.0,0.0,-5.6601,-5.6601,-5.6601,-5.6601,-5.6601,-5.6601,-5.6601,-5.707,-5.7969,-5.8828,-5.9648,-6.0469,-6.1328,-6.1719,-6.1719,-6.1719,-6.1719,-6.1719,-6.1719,-6.1719,-6.168,-6.1601,-6.2344,-6.3393,-6.382,-6.474,-6.5844,-6.6493,-6.6683,-6.6722,-6.6877,-6.711,-6.7525,-6.8346,-6.8594,-6.8945,-7.0351,-7.0898,-7.1289,-7.1875,-7.1992,-7.1992,-7.1992,-7.2226,-7.2617,-7.3203,-7.375,-7.4531,-7.5703,-7.6133,-7.6523,-7.7109,-7.7187,-7.7187,-7.7187,-7.7187,-7.7187,-7.7187,-7.7212,-7.7326,-7.7599,-7.7365,-7.717,-7.7131,-7.736,-7.7694,-7.8103,-7.8122,-7.84,-7.9015,-7.9669,-8.0054,-8.0246,-8.09,-8.117,-2.9953,-2.9622,-2.9562,-3.2008,-3.2895,-3.4218,-3.8264,-3.9476,-4.0745,-4.4347,-4.5381,-4.5586,-4.5586,-4.6971,0.0,0.0,0.0,0.0,0.0,0.0,0.0,0.0,0.0,0.0,0.0,0.0,0.0,0.0,0.0,0.0,0.0,0.0,0.0,0.0,0.0,0.0,0.0,-5.6601,-5.6601,-5.6601,-5.6601,-5.6601,-5.6601,-5.6601,-5.707,-5.7969,-5.8828,-5.9648,-6.0469,-6.1328,-6.1719,-6.1719,-6.1719,-6.1719,-6.1719,-6.1719,-6.1719,-6.1719,-6.1719,-6.2734,-6.4101,-6.4258,-6.5345,-6.6621,-6.6834,-6.6914,-6.6914,-6.6914,-6.7539,-6.8398,-6.918,-6.9453,-6.9726,-7.0508,-7.1367,-7.1992,-7.1992,-7.1992,-7.1992,-7.1992,-7.2695,-7.332,-7.332,-7.4765,-7.5898,-7.5898,-7.664,-7.7187,-7.7187,-7.7187,-7.7187,-7.7187,-7.7187,-7.7187,-7.7187,-7.7226,-7.7578,-7.8437,-7.8515,-7.8437,-7.8203,-7.8984,-7.9348,-7.9219,-7.9197,-7.9507,-8.0123,-8.0346,-8.0623,-8.1093,-8.1285,-8.1285,-2.775,-2.8741,-3.0207,-3.1718,-3.4758,-3.7978,-4.023,-4.0819,-4.1741,-4.4825,-4.555,-4.5586,-4.5586,0.0,0.0,0.0,0.0,0.0,0.0,0.0,0.0,0.0,0.0,0.0,0.0,0.0,0.0,0.0,0.0,0.0,0.0,0.0,0.0,0.0,0.0,0.0,0.0,0.0,-5.6601,-5.6601,-5.6601,-5.6601,-5.6601,-5.6601,-5.7422,-5.8828,-5.9101,-6.0,-6.1328,-6.1601,-6.1719,-6.1719,-6.1719,-6.1719,-6.1719,-6.1719,-6.1719,-6.1719,-6.1719,-6.2812,-6.4258,-6.4297,-6.545,-6.6805,-6.6871,-6.6914,-6.6914,-6.6914,-6.7539,-6.8398,-6.918,-6.9883,-7.0547,-7.1406,-7.1797,-7.1992,-7.1992,-7.1992,-7.2187,-7.2812,-7.3125,-7.3672,-7.4922,-7.5547,-7.6094,-7.6719,-7.7031,-7.7187,-7.7187,-7.7187,-7.7187,-7.7187,-7.7187,-7.7187,-7.7187,-7.7773,-7.8203,-7.8476,-7.9609,-7.9961,-7.9297,-7.9492,-7.9801,-8.025,-8.0243,-8.0572,-8.1252,-8.1308,-8.1385,-8.1504,-8.1589,-8.1554,-2.8587,-2.9998,-3.1867,-3.3933,-3.6814,-3.9694,-4.203,-4.2833,-4.356,0.0,-4.5586,-4.5586,-4.5586,0.0,0.0,0.0,0.0,0.0,0.0,0.0,0.0,0.0,0.0,0.0,0.0,0.0,0.0,0.0,0.0,0.0,0.0,0.0,0.0,0.0,0.0,0.0,0.0,0.0,0.0,-5.6601,-5.6601,-5.6601,-5.6601,-5.6601,-5.7539,-5.9258,-5.9883,-6.0781,-6.1719,-6.1719,-6.1719,-6.1719,-6.1719,-6.1719,-6.1719,-6.1719,-6.1719,-6.1719,-6.1719,-6.2851,-6.4297,-6.4297,-6.5469,-6.6914,-6.6914,-6.6914,-6.6914,-6.6914,-6.7773,-6.8789,-6.9297,-7.0312,-7.1367,-7.1875,-7.1992,-7.1992,-7.1992,-7.1992,-7.2265,-7.3125,-7.3594,-7.4258,-7.5664,-7.6172,-7.6601,-7.7109,-7.7187,-7.7187,-7.7187,-7.7187,-7.7187,-7.7187,-7.7187,-7.7344,-7.7695,-7.8203,-7.8789,-7.9453,-8.0429,-8.0937,-8.0742,-8.0742,-8.0937,-8.1328,-8.1328,-8.1511,-8.1802,-8.1913,-8.1869,-8.168,-8.1774,-8.1773,-3.1058,-3.2232,-3.3836,-3.7521,-3.8897,-4.0286,-4.3628,-4.5009,-4.5586,-4.5586,0.0,-4.5586,0.0,0.0,0.0,0.0,0.0,0.0,0.0,0.0,0.0,0.0,0.0,0.0,0.0,0.0,0.0,0.0,0.0,0.0,0.0,0.0,0.0,0.0,0.0,0.0,0.0,0.0,0.0,0.0,-5.6601,-5.6601,-5.6601,-5.6601,-5.7539,-5.9297,-6.0976,-6.1719,-6.1719,-6.1719,-6.1719,-6.1719,-6.1719,-6.1719,-6.1719,-6.1719,-6.1719,-6.1719,-6.1719,-6.2851,-6.4297,-6.4297,-6.5469,-6.6914,-6.6914,-6.6914,-6.6914,-6.6914,-6.8125,-6.9414,-6.9492,-7.0742,-7.1992,-7.1992,-7.1992,-7.1992,-7.1992,-7.1992,-7.2265,-7.3242,-7.4062,-7.4883,-7.5859,-7.668,-7.7187,-7.7187,-7.7187,-7.7187,-7.7187,-7.7187,-7.7226,-7.7305,-7.7305,-7.7656,-7.8555,-7.8672,-7.9375,-8.0898,-8.1054,-8.1484,-8.2265,-8.2304,-8.2304,-8.2304,-8.2304,-8.2226,-8.2031,-8.2226,-8.212,-8.1739,-8.1929,-8.192,-2.931,-3.085,-3.3184,-3.743,-4.0826,-4.3513,-4.5009,-4.547,-4.5586,-4.5586,-4.5586,0.0,0.0,0.0,0.0,0.0,0.0,0.0,0.0,0.0,0.0,0.0,0.0,0.0,0.0,0.0,0.0,0.0,0.0,0.0,0.0,0.0,0.0,0.0,0.0,0.0,-5.4258,-5.5156,-5.5937,0.0,-5.6601,-5.6601,-5.6601,-5.6601,-5.7539,-5.9297,-6.0976,-6.1719,-6.1719,-6.1719,-6.1719,-6.1719,-6.1719,-6.1719,-6.1719,-6.1719,-6.1719,-6.1719,-6.1719,-6.2851,-6.4297,-6.4297,-6.5469,-6.6914,-6.6914,-6.6914,-6.6914,-6.6914,-6.8164,-6.9492,-6.9492,-7.0742,-7.1992,-7.1992,-7.1992,-7.1992,-7.1992,-7.1992,-7.2461,-7.4023,-7.4453,-7.5078,-7.664,-7.707,-7.7187,-7.7187,-7.7187,-7.7187,-7.7187,-7.7187,-7.7461,-7.8164,-7.8203,-7.8555,-7.9375,-8.0078,-8.0625,-8.0976,-8.164,-8.2109,-8.2304,-8.2304,-8.2304,-8.2304,-8.2304,-8.2265,-8.2226,-8.2265,-8.2264,-8.2175,-8.2225,-8.2225,-2.9791,-3.1768,-3.4486,-3.9471,-4.2831,-4.5047,-4.5509,-4.5586,-4.5586,-4.5586,0.0,0.0,0.0,0.0,0.0,0.0,0.0,0.0,0.0,0.0,0.0,0.0,0.0,0.0,0.0,0.0,0.0,0.0,0.0,0.0,0.0,0.0,0.0,0.0,0.0,0.0,-5.3984,-5.4844,-5.5742,-5.6601,-5.6601,-5.6601,-5.664,-5.7461,-5.8359,-5.9297,-6.0976,-6.1719,-6.1719,-6.1719,-6.1719,-6.1719,-6.1719,-6.1719,-6.1719,-6.1719,-6.1719,-6.1719,-6.1719,-6.2851,-6.4297,-6.4297,-6.5469,-6.6914,-6.6914,-6.6914,-6.6914,-6.6914,-6.8125,-6.9453,-6.9492,-7.0742,-7.1992,-7.1992,-7.1992,-7.1992,-7.1992,-7.1992,-7.2539,-7.4258,-7.4609,-7.5156,-7.6914,-7.7187,-7.7187,-7.7187,-7.7187,-7.7187,-7.7187,-7.7578,-7.8008,-7.8437,-7.8828,-7.9414,-8.0234,-8.0742,-8.1172,-8.1601,-8.2031,-8.2304,-8.2304,-8.2304,-8.2304,-8.2304,-8.2304,-8.2304,-8.2304,-8.2304,-8.2304,-8.2304,-8.2304,-8.2304,-3.0256,-3.3118,-3.6464,-4.1579,-4.4124,0.0,-4.5547,-4.5586,-4.5586,-4.5586,0.0,0.0,0.0,0.0,0.0,0.0,0.0,0.0,0.0,0.0,0.0,0.0,0.0,0.0,0.0,0.0,0.0,0.0,0.0,0.0,0.0,0.0,0.0,0.0,0.0,-5.2891,-5.3789,-5.4648,-5.5508,-5.6367,-5.6523,-5.6601,-5.664,-5.8398,-5.9219,-5.9297,-6.0976,-6.1719,-6.1719,-6.1719,-6.1719,-6.1719,-6.1719,-6.1719,-6.1719,-6.1719,-6.1719,-6.1719,-6.1719,-6.2851,-6.4297,-6.4297,-6.5469,-6.6914,-6.6914,-6.6914,-6.6914,-6.707,-6.8203,-6.9453,-6.9648,-7.0859,-7.1992,-7.1992,-7.1992,-7.1992,-7.1992,-7.2109,-7.2695,-7.4297,-7.4844,-7.5508,-7.6953,-7.7187,-7.7187,-7.7187,-7.7187,-7.7265,-7.7422,-7.8047,-7.8594,-7.8906,-7.9531,-8.0273,-8.1133,-8.1211,-8.1523,-8.2265,-8.2304,-8.2304,-8.2304,-8.2304,-8.2304,-8.2304,-8.2304,-8.2304,-8.2304,-8.2304,-8.2304,-8.2304,-8.2304,-8.2304,-2.7816,-3.2505,-3.7697,-4.1102,-4.3239,-4.4662,0.0,0.0,-4.5586,0.0,0.0,0.0,0.0,0.0,0.0,0.0,0.0,0.0,0.0,0.0,0.0,0.0,0.0,0.0,0.0,0.0,0.0,0.0,0.0,0.0,0.0,0.0,-5.1406,-5.1406,-5.1523,0.0,-5.2851,-5.375,-5.4609,-5.5469,-5.625,-5.6601,-5.664,-5.8398,-5.9219,-5.9297,-6.0976,-6.1719,-6.1719,-6.1719,-6.1719,-6.1719,-6.1719,-6.1719,-6.1719,-6.1719,-6.1719,-6.1719,-6.1719,-6.2851,-6.4297,-6.4297,-6.5469,-6.6914,-6.6914,-6.6914,-6.707,-6.7812,-6.8672,-6.957,-7.0351,-7.1289,-7.1992,-7.1992,-7.1992,-7.1992,-7.1992,-7.2578,-7.3437,-7.4414,-7.582,-7.6914,-7.7148,-7.7187,-7.7187,-7.7187,-7.7187,-7.7461,-7.8242,-7.8437,-7.9062,-8.0508,-8.0742,-8.1172,-8.2031,-8.2148,-8.2187,-8.2304,-8.2304,-8.2304,-8.2304,-8.2304,-8.2304,-8.2304,-8.2304,-8.2304,-8.2304,-8.2304,-8.2304,-8.2304,-8.2304,-8.2304,-2.9997,-3.373,-3.7375,-4.0927,-4.3047,-4.4393,-4.4778,0.0,0.0,0.0,0.0,0.0,0.0,0.0,0.0,0.0,0.0,0.0,0.0,0.0,0.0,0.0,0.0,0.0,0.0,0.0,0.0,0.0,0.0,0.0,0.0,-5.1406,-5.1406,-5.1406,-5.1406,0.0,-5.2695,-5.3555,-5.4687,-5.6015,-5.6406,-5.6601,-5.664,-5.8398,-5.9219,-5.9297,-6.0976,-6.1719,-6.1719,-6.1719,-6.1719,-6.1719,-6.1719,-6.1719,-6.1719,-6.1719,-6.1719,-6.1758,-6.2265,-6.3242,-6.4375,-6.4883,-6.5898,-6.6914,-6.6914,-6.6914,-6.707,-6.7969,-6.8789,-6.9609,-7.0469,-7.1367,-7.1992,-7.1992,-7.1992,-7.2148,-7.2617,-7.3047,-7.3711,-7.5078,-7.6328,-7.7187,-7.7187,-7.7187,-7.7187,-7.7187,-7.7617,-7.8086,-7.8437,-7.9336,-8.0195,-8.0937,-8.1445,-8.1875,-8.2265,-8.2304,-8.2304,-8.2304,-8.2304,-8.2304,-8.2304,-8.2304,-8.2304,-8.2304,-8.2304,-8.2304,-8.2304,-8.2304,-8.2304,-8.2304,-8.2304,-8.2304,-3.0678,-3.3147,-3.54,-3.9418,-4.1745,-4.3239,0.0,0.0,0.0,0.0,0.0,0.0,0.0,0.0,0.0,0.0,0.0,0.0,0.0,0.0,0.0,0.0,0.0,0.0,0.0,0.0,0.0,0.0,0.0,0.0,-5.1406,-5.1406,-5.1406,-5.1406,-5.1406,-5.1719,-5.2344,-5.3437,-5.4883,-5.6601,-5.6601,-5.6601,-5.664,-5.8398,-5.9219,-5.9297,-6.0976,-6.1719,-6.1719,-6.1719,-6.1719,-6.1719,-6.1719,-6.1719,-6.1719,-6.1719,-6.1719,-6.1836,-6.2695,-6.3555,-6.4453,-6.5312,-6.6172,-6.6914,-6.6914,-6.7031,-6.7422,-6.8281,-6.9101,-6.9922,-7.0781,-7.1523,-7.1992,-7.1992,-7.2187,-7.2578,-7.3437,-7.3789,-7.4414,-7.5937,-7.6758,-7.7187,-7.7187,-7.7187,-7.7265,-7.75,-7.8086,-7.8633,-7.9062,-8.0234,-8.1094,-8.1328,-8.1914,-8.2304,-8.2304,-8.2304,-8.2304,-8.2304,-8.2304,-8.2304,-8.2304,-8.2304,-8.2304,-8.2304,-8.2304,-8.2304,-8.2304,-8.2304,-8.2304,-8.2304,-8.2304,-8.2304,-2.6785,-2.87,-3.1168,-3.5572,-3.8147,-4.0392,0.0,0.0,0.0,0.0,0.0,0.0,0.0,0.0,0.0,0.0,0.0,0.0,0.0,0.0,0.0,0.0,0.0,0.0,0.0,0.0,0.0,0.0,0.0,0.0,-5.1406,-5.1406,-5.1406,-5.1406,-5.1406,-5.1406,-5.1484,-5.3164,-5.4883,-5.6601,-5.6601,-5.6601,-5.664,-5.8398,-5.9219,-5.9297,-6.0976,-6.1719,-6.1719,-6.1719,-6.1719,-6.1719,-6.1719,-6.1719,-6.1719,-6.1719,-6.1719,-6.1836,-6.2695,-6.3555,-6.4453,-6.5312,-6.6172,-6.6914,-6.6914,-6.7461,-6.832,-6.918,-7.0,-7.082,-7.1719,-7.1953,-7.1992,-7.1992,-7.2617,-7.3476,-7.4336,-7.5195,-7.6055,-7.6953,-7.7187,-7.7187,-7.7187,-7.7187,-7.7461,-7.832,-7.8476,-7.9062,-8.0664,-8.0937,-8.1328,-8.2148,-8.2265,-8.2304,-8.2304,-8.2304,-8.2304,-8.2304,-8.2304,-8.2304,-8.2304,-8.2304,-8.2304,-8.2304,-8.2304,-8.2304,-8.2304,-8.2304,-8.2304,-8.2304,-8.2304,-8.2304,-2.7336,-2.852,-2.9991,-3.3997,-3.6748,-3.8931,-4.07,0.0,0.0,0.0,0.0,0.0,0.0,0.0,0.0,0.0,0.0,0.0,0.0,0.0,0.0,0.0,0.0,0.0,0.0,0.0,0.0,0.0,0.0,0.0,-5.1406,-5.1406,-5.1406,-5.1406,-5.1406,-5.1953,-5.3047,-5.3672,-5.4883,-5.6601,-5.6601,-5.6601,-5.664,-5.8398,-5.9219,-5.9297,-6.0976,-6.1719,-6.1719,-6.1719,-6.1719,-6.1719,-6.1719,-6.1719,-6.1719,-6.1719,-6.2031,-6.2656,-6.3515,-6.4414,-6.5273,-6.6133,-6.664,-6.6914,-6.6914,-6.75,-6.8359,-6.9219,-7.0039,-7.0898,-7.1758,-7.1992,-7.2148,-7.2695,-7.3945,-7.5039,-7.5351,-7.5664,-7.6172,-7.7031,-7.7187,-7.7187,-7.7187,-7.7656,-7.8125,-7.8437,-7.9414,-8.0312,-8.0937,-8.1484,-8.1953,-8.2265,-8.2304,-8.2304,-8.2304,-8.2304,-8.2304,-8.2304,-8.2304,-8.2304,-8.2304,-8.2304,-8.2304,-8.2304,-8.2304,-8.2304,-8.2304,-8.2304,-8.2304,-8.2304,-8.2304,-8.2304,-2.6606,-2.7484,-2.8685,0.0,0.0,-3.6546,-3.9123,0.0,0.0,0.0,0.0,0.0,0.0,0.0,0.0,0.0,0.0,0.0,0.0,0.0,0.0,0.0,0.0,0.0,0.0,0.0,0.0,0.0,0.0,0.0,-5.1406,-5.1406,-5.1406,-5.1406,-5.1406,-5.2226,-5.3984,-5.3984,-5.4883,-5.6601,-5.6601,-5.6601,-5.664,-5.8086,-5.8906,-5.9297,-6.0664,-6.1445,-6.1719,-6.1719,-6.1719,-6.1719,-6.1719,-6.1719,-6.1719,-6.1719,-6.2265,-6.3125,-6.3984,-6.4883,-6.5742,-6.6601,-6.6914,-6.6914,-6.6914,-6.7695,-6.875,-6.9258,-7.0234,-7.1289,-7.1836,-7.2226,-7.2656,-7.3515,-7.4844,-7.5976,-7.6289,-7.6328,-7.6523,-7.7109,-7.7187,-7.7187,-7.7187,-7.793,-7.8594,-7.8867,-8.0117,-8.1094,-8.1406,-8.1953,-8.2304,-8.2304,-8.2304,-8.2304,-8.2304,-8.2304,-8.2304,-8.2304,-8.2304,-8.2304,-8.2304,-8.2304,-8.2304,-8.2304,-8.2304,-8.2304,-8.2304,-8.2304,-8.2304,-8.2304,-8.2304,-8.2246,0.0,0.0,0.0,0.0,0.0,0.0,0.0,0.0,0.0,0.0,0.0,0.0,0.0,0.0,0.0,0.0,0.0,0.0,0.0,0.0,0.0,0.0,0.0,0.0,0.0,0.0,0.0,0.0,0.0,-5.0547,-5.1328,-5.1406,-5.1406,-5.1406,-5.1406,-5.2226,-5.3984,-5.3984,-5.4883,-5.6601,-5.6601,-5.6601,-5.664,-5.75,-5.8398,-5.9258,-6.0039,-6.0898,-6.1719,-6.1719,-6.1719,-6.1719,-6.1719,-6.1719,-6.1719,-6.1719,-6.2265,-6.3164,-6.4023,-6.4883,-6.5781,-6.664,-6.6914,-6.6914,-6.6914,-6.8125,-6.9492,-6.9453,-7.0664,-7.1992,-7.1992,-7.2656,-7.3555,-7.4414,-7.5273,-7.6172,-7.7031,-7.7187,-7.7187,-7.7187,-7.7187,-7.7226,-7.7226,-7.7969,-7.8828,-7.9609,-8.0469,-8.1328,-8.2187,-8.2304,-8.2304,-8.2304,-8.2304,-8.2304,-8.2304,-8.2304,-8.2304,-8.2304,-8.2304,-8.2304,-8.2304,-8.2304,-8.2304,-8.2304,-8.2304,-8.2304,-8.2304,-8.2304,-8.2304,-8.2304,-8.2304,-8.2179,-2.4548,0.0,0.0,0.0,0.0,0.0,0.0,0.0,0.0,0.0,0.0,0.0,0.0,0.0,0.0,0.0,0.0,0.0,0.0,0.0,0.0,0.0,0.0,0.0,0.0,0.0,0.0,0.0,0.0,-5.0312,-5.0508,-5.1094,-5.1406,-5.1406,-5.1406,-5.2226,-5.3984,-5.3984,-5.4883,-5.6601,-5.6601,-5.6601,-5.664,-5.75,-5.8398,-5.9258,-6.0039,-6.0898,-6.1719,-6.1719,-6.1719,-6.1719,-6.1719,-6.1719,-6.1719,-6.1719,-6.2656,-6.3984,-6.4219,-6.5273,-6.6562,-6.6836,-6.6914,-6.7031,-6.7656,-6.8633,-6.9609,-7.0195,-7.1133,-7.1992,-7.1992,-7.3125,-7.4297,-7.4531,-7.5742,-7.6914,-7.7148,-7.7187,-7.7187,-7.7187,-7.7187,-7.7383,-7.8047,-7.8828,-7.9648,-8.0508,-8.1367,-8.2031,-8.2265,-8.2304,-8.2304,-8.2304,-8.2304,-8.2304,-8.2304,-8.2304,-8.2304,-8.2304,-8.2304,-8.2304,-8.2304,-8.2304,-8.2304,-8.2304,-8.2304,-8.2304,-8.2304,-8.2304,-8.2304,-8.2304,-8.2304,-8.2179,-2.5235,-2.5352,-2.5869,-2.772,0.0,0.0,0.0,0.0,0.0,0.0,0.0,0.0,0.0,0.0,0.0,0.0,0.0,0.0,0.0,0.0,0.0,0.0,0.0,0.0,0.0,0.0,0.0,0.0,-4.8555,-4.9414,-5.0156,-5.0976,-5.1406,-5.1406,-5.1406,-5.207,-5.3437,-5.3828,-5.4687,-5.6055,-5.6445,-5.6601,-5.6601,-5.7148,-5.8047,-5.9219,-5.9687,-6.0586,-6.1719,-6.1719,-6.1719,-6.1719,-6.1719,-6.1719,-6.1719,-6.1719,-6.2812,-6.4297,-6.4297,-6.543,-6.6914,-6.6914,-6.6914,-6.707,-6.793,-6.8828,-6.9687,-7.0469,-7.1328,-7.207,-7.2461,-7.3555,-7.4687,-7.5078,-7.6211,-7.7187,-7.7187,-7.7187,-7.7187,-7.7187,-7.7187,-7.7461,-7.8359,-7.918,-8.0,-8.0859,-8.1758,-8.2304,-8.2304,-8.2304,-8.2304,-8.2304,-8.2304,-8.2304,-8.2304,-8.2304,-8.2304,-8.2304,-8.2304,-8.2304,-8.2304,-8.2304,-8.2304,-8.2304,-8.2304,-8.2304,-8.2304,-8.2304,-8.2304,-8.2304,-8.2201,-8.2081,-2.6359,-2.6512,-2.7281,-2.9548,-2.8582,0.0,-3.1429,-3.1737,0.0,0.0,0.0,0.0,0.0,0.0,0.0,0.0,0.0,0.0,0.0,0.0,0.0,0.0,0.0,0.0,0.0,0.0,0.0,-4.7383,-4.7539,-4.8359,-5.0117,-5.0898,-5.1328,-5.1406,-5.1406,-5.1836,-5.2695,-5.3555,-5.4453,-5.5312,-5.6172,-5.6601,-5.6601,-5.6601,-5.7539,-5.9219,-5.9219,-6.0156,-6.1719,-6.1719,-6.1719,-6.1719,-6.1719,-6.1719,-6.1719,-6.1719,-6.2812,-6.4297,-6.4297,-6.543,-6.6914,-6.6914,-6.6914,-6.707,-6.8047,-6.8867,-6.9687,-7.0586,-7.1406,-7.2187,-7.3086,-7.3945,-7.4805,-7.5703,-7.6562,-7.7187,-7.7187,-7.7187,-7.7187,-7.7187,-7.7187,-7.75,-7.8476,-7.9219,-8.0039,-8.1015,-8.1797,-8.2304,-8.2304,-8.2304,-8.2304,-8.2304,-8.2304,-8.2304,-8.2304,-8.2304,-8.2304,-8.2304,-8.2304,-8.2304,-8.2304,-8.2304,-8.2304,-8.2304,-8.2304,-8.2304,-8.2304,-8.2304,-8.2304,-8.2304,-8.2101,-8.1891,-2.8408,-2.8807,-2.9218,-2.8549,0.0,0.0,-2.8121,-2.8236,0.0,0.0,0.0,0.0,0.0,0.0,0.0,0.0,0.0,0.0,0.0,0.0,0.0,0.0,0.0,0.0,0.0,0.0,-4.6367,-4.6523,-4.7187,-4.8359,-5.0117,-5.0351,-5.0742,-5.1367,-5.1406,-5.1836,-5.2695,-5.3555,-5.4453,-5.5312,-5.6172,-5.6601,-5.6601,-5.6601,-5.7539,-5.9219,-5.9219,-6.0156,-6.1719,-6.1719,-6.1719,-6.1719,-6.1719,-6.1719,-6.1719,-6.1719,-6.2812,-6.4297,-6.4297,-6.543,-6.6914,-6.6914,-6.6914,-6.7187,-6.8711,-6.9336,-6.9805,-7.1328,-7.1875,-7.2187,-7.3086,-7.3945,-7.4805,-7.5703,-7.6562,-7.7187,-7.7187,-7.7187,-7.7187,-7.7187,-7.7187,-7.7695,-7.9219,-7.9609,-8.0234,-8.1797,-8.2187,-8.2304,-8.2304,-8.2304,-8.2304,-8.2304,-8.2304,-8.2304,-8.2304,-8.2304,-8.2304,-8.2304,-8.2304,-8.2304,-8.2304,-8.2304,-8.2304,-8.2304,-8.2304,-8.2304,-8.2304,-8.2304,-8.2304,-8.2304,-8.2101,-8.1878,-2.9803,-2.9844,-3.019,-2.9879,0.0,0.0,0.0,0.0,0.0,0.0,0.0,0.0,0.0,0.0,0.0,0.0,0.0,0.0,0.0,0.0,0.0,0.0,0.0,0.0,0.0,0.0,-4.6289,-4.6289,-4.7109,-4.8164,-4.9492,-4.9961,-5.0586,-5.1367,-5.1406,-5.1601,-5.2031,-5.293,-5.3789,-5.4648,-5.5547,-5.6172,-5.6601,-5.6601,-5.7539,-5.9219,-5.9219,-6.0156,-6.1719,-6.1719,-6.1719,-6.1719,-6.1719,-6.1719,-6.1719,-6.1719,-6.2812,-6.4297,-6.4297,-6.543,-6.6914,-6.6914,-6.6914,-6.7226,-6.8906,-7.0039,-7.0937,-7.1758,-7.1992,-7.2305,-7.3594,-7.4258,-7.4922,-7.625,-7.6875,-7.7187,-7.7187,-7.7187,-7.7187,-7.7187,-7.7539,-7.8242,-7.9492,-8.0078,-8.0781,-8.2109,-8.2304,-8.2304,-8.2304,-8.2304,-8.2304,-8.2304,-8.2304,-8.2304,-8.2304,-8.2304,-8.2304,-8.2304,-8.2304,-8.2304,-8.2304,-8.2304,-8.2304,-8.2304,-8.2304,-8.2304,-8.2304,-8.2304,-8.2304,-8.2304,-8.1975,-8.1852,0.0,0.0,0.0,0.0,0.0,-2.8967,0.0,0.0,0.0,-2.9071,0.0,0.0,0.0,0.0,0.0,0.0,0.0,0.0,0.0,0.0,0.0,0.0,0.0,0.0,0.0,0.0,-4.5742,-4.625,-4.6484,-4.7187,-4.8594,-4.9492,-5.0312,-5.1133,-5.1328,-5.1406,-5.1406,-5.2266,-5.3125,-5.4023,-5.4883,-5.5742,-5.6601,-5.6601,-5.7539,-5.9219,-5.9219,-6.0156,-6.1719,-6.1719,-6.1719,-6.1719,-6.1719,-6.1719,-6.1719,-6.1875,-6.2969,-6.4336,-6.4492,-6.5586,-6.6914,-6.6914,-6.7148,-6.7695,-6.918,-7.0742,-7.1992,-7.1992,-7.2109,-7.2617,-7.418,-7.4726,-7.5234,-7.6836,-7.7187,-7.7187,-7.7187,-7.7187,-7.7187,-7.7187,-7.8047,-7.8945,-7.9609,-8.0429,-8.1289,-8.2187,-8.2304,-8.2304,-8.2304,-8.2304,-8.2304,-8.2304,-8.2304,-8.2304,-8.2304,-8.2304,-8.2304,-8.2304,-8.2304,-8.2304,-8.2304,-8.2304,-8.2304,-8.2304,-8.2304,-8.2304,-8.2304,-8.2304,-8.2304,-8.2304,-8.1937,-8.1835,0.0,0.0,0.0,0.0,-3.2583,0.0,0.0,0.0,-2.739,-2.6149,0.0,0.0,0.0,0.0,0.0,0.0,0.0,0.0,0.0,0.0,0.0,0.0,0.0,0.0,0.0,0.0,0.0,-4.6133,-4.4258,-4.4375,-4.7578,-4.8555,-4.9453,-5.0312,-5.1016,-5.1406,-5.1406,-5.2266,-5.3125,-5.4023,-5.4883,-5.5742,-5.6601,-5.6601,-5.7539,-5.9219,-5.9219,-6.0156,-6.1719,-6.1719,-6.1719,-6.1719,-6.1719,-6.1719,-6.1797,-6.2578,-6.3476,-6.4414,-6.5195,-6.6094,-6.6914,-6.6914,-6.7969,-6.9375,-7.0273,-7.1211,-7.1992,-7.1992,-7.2578,-7.3398,-7.4336,-7.5156,-7.6015,-7.6953,-7.7187,-7.7187,-7.7187,-7.7187,-7.7187,-7.7187,-7.8476,-7.9609,-7.9687,-8.0429,-8.1289,-8.2187,-8.2304,-8.2304,-8.2304,-8.2304,-8.2304,-8.2304,-8.2304,-8.2304,-8.2304,-8.2304,-8.2304,-8.2304,-8.2304,-8.2304,-8.2304,-8.2304,-8.2304,-8.2304,-8.2304,-8.2304,-8.2304,-8.2304,-8.2304,-8.2304,-8.2068,-8.1987,0.0,0.0,0.0,0.0,0.0,0.0,-2.7813,0.0,-2.6351,0.0,0.0,0.0,0.0,0.0,0.0,0.0,0.0,0.0,0.0,0.0,0.0,0.0,0.0,0.0,0.0,0.0,0.0,0.0,0.0,-4.3867,-4.7305,-4.7891,-4.8789,-5.0156,-5.0547,-5.0937,-5.1406,-5.1758,-5.2656,-5.3984,-5.4375,-5.5273,-5.6601,-5.6601,-5.7539,-5.9219,-5.9219,-6.0156,-6.1719,-6.1719,-6.1719,-6.1719,-6.1719,-6.1719,-6.1797,-6.2695,-6.3555,-6.4414,-6.5312,-6.6172,-6.6992,-6.75,-6.8476,-6.9609,-7.043,-7.1328,-7.1992,-7.1992,-7.2617,-7.3515,-7.4375,-7.5234,-7.6133,-7.6992,-7.7187,-7.7187,-7.7187,-7.7187,-7.7187,-7.7187,-7.8555,-7.9687,-7.9687,-8.0859,-8.1875,-8.2226,-8.2304,-8.2304,-8.2304,-8.2304,-8.2304,-8.2304,-8.2304,-8.2304,-8.2304,-8.2304,-8.2304,-8.2304,-8.2304,-8.2304,-8.2304,-8.2304,-8.2304,-8.2304,-8.2304,-8.2304,-8.2304,-8.2304,-8.2254,-8.2124,-8.1933,-8.1889,-3.8315,0.0,0.0,0.0,0.0,0.0,0.0,0.0,0.0,0.0,0.0,0.0,0.0,0.0,0.0,-2.8967,0.0,0.0,0.0,0.0,0.0,0.0,0.0,0.0,0.0,0.0,0.0,0.0,0.0,0.0,-4.6836,-4.7344,-4.8242,-4.9805,-5.0078,-5.0586,-5.1406,-5.1406,-5.2266,-5.3984,-5.3984,-5.4922,-5.6601,-5.6601,-5.7539,-5.9219,-5.9219,-6.0156,-6.1719,-6.1719,-6.1719,-6.1719,-6.1719,-6.1719,-6.1836,-6.2969,-6.375,-6.4453,-6.5586,-6.6367,-6.707,-6.8164,-6.8945,-6.9648,-7.0742,-7.1484,-7.1992,-7.1992,-7.2812,-7.3789,-7.4453,-7.543,-7.6406,-7.7031,-7.7187,-7.7187,-7.7187,-7.7187,-7.7265,-7.75,-7.8711,-7.9765,-8.0039,-8.1289,-8.2304,-8.2304,-8.2304,-8.2304,-8.2304,-8.2304,-8.2304,-8.2304,-8.2304,-8.2304,-8.2304,-8.2304,-8.2304,-8.2304,-8.2304,-8.2304,-8.2304,-8.2304,-8.2304,-8.2304,-8.2304,-8.2304,-8.2304,-8.2304,-8.2201,-8.2009,-8.1833,-8.1836,0.0,0.0,0.0,-3.4391,0.0,0.0,0.0,0.0,-2.9775,0.0,0.0,0.0,0.0,-3.1545,-3.1006,-2.9352,-2.9121,0.0,0.0,0.0,0.0,0.0,0.0,0.0,0.0,0.0,0.0,0.0,0.0,0.0,-4.5858,-4.6953,-4.7891,-4.8906,-4.9766,-5.0586,-5.1406,-5.1406,-5.2266,-5.3984,-5.3984,-5.4922,-5.6601,-5.6601,-5.7539,-5.9219,-5.9219,-6.0156,-6.1719,-6.1719,-6.1719,-6.1719,-6.1719,-6.1719,-6.1914,-6.3633,-6.4297,-6.4531,-6.625,-6.6875,-6.7187,-6.8828,-6.9414,-6.9805,-7.1445,-7.1992,-7.1992,-7.1992,-7.3242,-7.457,-7.4609,-7.5859,-7.7187,-7.7187,-7.7187,-7.7187,-7.7187,-7.7187,-7.7461,-7.8281,-7.914,-7.9961,-8.082,-8.1719,-8.2304,-8.2304,-8.2304,-8.2304,-8.2304,-8.2304,-8.2304,-8.2304,-8.2304,-8.2304,-8.2304,-8.2304,-8.2304,-8.2304,-8.2304,-8.2304,-8.2304,-8.2304,-8.2304,-8.2304,-8.2304,-8.2304,-8.2304,-8.2304,-8.2201,-8.2009,-8.2001,-8.1886,0.0,0.0,-4.2316,-3.7469,0.0,0.0,0.0,0.0,0.0,0.0,0.0,0.0,0.0,-3.1237,-3.066,-3.0044,-2.9467,-2.8621,0.0,0.0,0.0,0.0,0.0,0.0,0.0,0.0,0.0,0.0,0.0,0.0,0.0,-4.6327,-4.7226,-4.8711,-4.9141,-5.0,-5.1406,-5.1406,-5.2266,-5.3984,-5.3984,-5.4922,-5.6601,-5.6601,-5.7539,-5.9219,-5.9219,-6.0156,-6.1719,-6.1719,-6.1719,-6.1719,-6.1719,-6.1719,-6.1914,-6.3672,-6.4297,-6.4531,-6.6289,-6.7265,-6.793,-6.9023,-6.9805,-7.0508,-7.164,-7.1992,-7.2109,-7.2695,-7.3711,-7.4726,-7.5312,-7.6328,-7.7187,-7.7187,-7.7187,-7.7187,-7.7187,-7.7187,-7.7461,-7.832,-7.914,-7.9961,-8.0859,-8.1719,-8.2304,-8.2304,-8.2304,-8.2304,-8.2304,-8.2304,-8.2304,-8.2304,-8.2304,-8.2304,-8.2304,-8.2304,-8.2304,-8.2304,-8.2304,-8.2304,-8.2304,-8.2304,-8.2304,-8.2304,-8.2304,-8.2248,-8.2104,-8.2248,-8.2123,-8.1816,-8.1932,-8.1893,-4.3624,-4.3893,0.0,0.0,-3.7661,0.0,-3.1429,0.0,0.0,0.0,0.0,0.0,0.0,-3.3122,-3.1737,-3.1737,-3.0275,-2.839,0.0,0.0,0.0,0.0,0.0,0.0,0.0,0.0,-3.6238,-4.0585,0.0,0.0,0.0,0.0,-4.6835,-4.8633,-4.8828,-4.9687,-5.1367,-5.1406,-5.2266,-5.3984,-5.3984,-5.4922,-5.6601,-5.6914,-5.7851,-5.9219,-5.9492,-6.043,-6.1719,-6.1719,-6.1719,-6.1719,-6.1719,-6.1719,-6.1914,-6.3672,-6.4687,-6.539,-6.6523,-6.7461,-6.832,-6.914,-7.0,-7.0859,-7.1758,-7.1992,-7.2187,-7.3047,-7.3945,-7.4805,-7.5664,-7.6562,-7.7187,-7.7187,-7.7187,-7.7187,-7.7187,-7.7422,-7.789,-7.875,-7.9609,-8.0429,-8.1328,-8.1914,-8.2304,-8.2304,-8.2304,-8.2304,-8.2304,-8.2304,-8.2304,-8.2304,-8.2304,-8.2304,-8.2304,-8.2304,-8.2304,-8.2304,-8.2304,-8.2304,-8.2304,-8.2304,-8.2304,-8.2304,-8.2304,-8.2248,-8.2106,-8.2245,-8.2162,-8.1893,-8.1887,-8.1826]}]]